<?xml version="1.0" encoding="UTF-8"?>
<gpx creator="Garmin Connect" version="1.1"
  xsi:schemaLocation="http://www.topografix.com/GPX/1/1 http://www.topografix.com/GPX/11.xsd"
  xmlns:ns3="http://www.garmin.com/xmlschemas/TrackPointExtension/v1"
  xmlns="http://www.topografix.com/GPX/1/1"
  xmlns:xsi="http://www.w3.org/2001/XMLSchema-instance" xmlns:ns2="http://www.garmin.com/xmlschemas/GpxExtensions/v3">
  <metadata>
    <name>Arden Challenge EREZEE MASTERS</name>
    <link href="connect.garmin.com">
      <text>Garmin Connect</text>
    </link>
    <time>2021-07-27T13:05:45.000Z</time>
  </metadata>
  <trk>
    <name>Arden Challenge EREZEE MASTERS</name>
    <trkseg>
      <trkpt lat="50.29201623983681" lon="5.558630581945181">
        <ele>330.45</ele>
        <time>2021-07-27T13:05:45.000Z</time>
      </trkpt>
      <trkpt lat="50.29188045300543" lon="5.5587278958410025">
        <ele>329.39</ele>
        <time>2021-07-27T13:05:45.002Z</time>
      </trkpt>
      <trkpt lat="50.290454691275954" lon="5.558931743726134">
        <ele>328.68</ele>
        <time>2021-07-27T13:05:45.027Z</time>
      </trkpt>
      <trkpt lat="50.29045485891402" lon="5.558931743726134">
        <ele>328.16</ele>
        <time>2021-07-27T13:05:45.052Z</time>
      </trkpt>
      <trkpt lat="50.29045502655208" lon="5.558931743726134">
        <ele>327.09</ele>
        <time>2021-07-27T13:05:45.077Z</time>
      </trkpt>
      <trkpt lat="50.29045335017145" lon="5.558931827545166">
        <ele>326.06</ele>
        <time>2021-07-27T13:05:45.102Z</time>
      </trkpt>
      <trkpt lat="50.29020667076111" lon="5.559017574414611">
        <ele>324.91</ele>
        <time>2021-07-27T13:05:45.131Z</time>
      </trkpt>
      <trkpt lat="50.29000282287598" lon="5.559285879135132">
        <ele>323.73</ele>
        <time>2021-07-27T13:05:45.165Z</time>
      </trkpt>
      <trkpt lat="50.28985253535211" lon="5.559629201889038">
        <ele>322.64</ele>
        <time>2021-07-27T13:05:45.203Z</time>
      </trkpt>
      <trkpt lat="50.28978816233575" lon="5.559918796643615">
        <ele>321.5</ele>
        <time>2021-07-27T13:05:45.244Z</time>
      </trkpt>
      <trkpt lat="50.28958439826965" lon="5.56233286857605">
        <ele>319.7</ele>
        <time>2021-07-27T13:05:45.310Z</time>
      </trkpt>
      <trkpt lat="50.289584482088685" lon="5.56233286857605">
        <ele>318.34</ele>
        <time>2021-07-27T13:05:45.376Z</time>
      </trkpt>
      <trkpt lat="50.289530754089355" lon="5.562901496887207">
        <ele>317.13</ele>
        <time>2021-07-27T13:05:45.448Z</time>
      </trkpt>
      <trkpt lat="50.28953083790839" lon="5.563126718625426">
        <ele>315.99</ele>
        <time>2021-07-27T13:05:45.522Z</time>
      </trkpt>
      <trkpt lat="50.289520025253296" lon="5.563352024182677">
        <ele>314.92</ele>
        <time>2021-07-27T13:05:45.599Z</time>
      </trkpt>
      <trkpt lat="50.289541482925415" lon="5.563867008313537">
        <ele>313.97</ele>
        <time>2021-07-27T13:05:45.681Z</time>
      </trkpt>
      <trkpt lat="50.28967944905162" lon="5.564723219722509">
        <ele>314.0</ele>
        <time>2021-07-27T13:05:45.772Z</time>
      </trkpt>
      <trkpt lat="50.28967919759452" lon="5.56472129188478">
        <ele>313.01</ele>
        <time>2021-07-27T13:05:45.863Z</time>
      </trkpt>
      <trkpt lat="50.289679281413555" lon="5.564721375703812">
        <ele>312.09</ele>
        <time>2021-07-27T13:05:45.954Z</time>
      </trkpt>
      <trkpt lat="50.28991707600653" lon="5.566195249557495">
        <ele>310.94</ele>
        <time>2021-07-27T13:05:46.061Z</time>
      </trkpt>
      <trkpt lat="50.28993844985962" lon="5.566377555951476">
        <ele>310.0</ele>
        <time>2021-07-27T13:05:46.169Z</time>
      </trkpt>
      <trkpt lat="50.28993853367865" lon="5.566377555951476">
        <ele>309.06</ele>
        <time>2021-07-27T13:05:46.277Z</time>
      </trkpt>
      <trkpt lat="50.29019594192505" lon="5.567901050671935">
        <ele>308.03</ele>
        <time>2021-07-27T13:05:46.402Z</time>
      </trkpt>
      <trkpt lat="50.29041051864624" lon="5.5693387147039175">
        <ele>306.69</ele>
        <time>2021-07-27T13:05:46.542Z</time>
      </trkpt>
      <trkpt lat="50.29043197631836" lon="5.56977859698236">
        <ele>305.51</ele>
        <time>2021-07-27T13:05:46.686Z</time>
      </trkpt>
      <trkpt lat="50.29041051864624" lon="5.570079004392028">
        <ele>304.41</ele>
        <time>2021-07-27T13:05:46.833Z</time>
      </trkpt>
      <trkpt lat="50.290367603302" lon="5.570315038785338">
        <ele>303.36</ele>
        <time>2021-07-27T13:05:46.983Z</time>
      </trkpt>
      <trkpt lat="50.290281688794494" lon="5.570615446195006">
        <ele>302.38</ele>
        <time>2021-07-27T13:05:47.136Z</time>
      </trkpt>
      <trkpt lat="50.29014221392572" lon="5.570948040112853">
        <ele>301.37</ele>
        <time>2021-07-27T13:05:47.293Z</time>
      </trkpt>
      <trkpt lat="50.289369905367494" lon="5.572417890653014">
        <ele>300.24</ele>
        <time>2021-07-27T13:05:47.470Z</time>
      </trkpt>
      <trkpt lat="50.28917670249939" lon="5.57277194224298">
        <ele>299.39</ele>
        <time>2021-07-27T13:05:47.652Z</time>
      </trkpt>
      <trkpt lat="50.289004957303405" lon="5.573136806488037">
        <ele>298.59</ele>
        <time>2021-07-27T13:05:47.838Z</time>
      </trkpt>
      <trkpt lat="50.2889084815979" lon="5.573469400405884">
        <ele>298.0</ele>
        <time>2021-07-27T13:05:48.028Z</time>
      </trkpt>
      <trkpt lat="50.2888548374176" lon="5.573737621307373">
        <ele>297.55</ele>
        <time>2021-07-27T13:05:48.221Z</time>
      </trkpt>
      <trkpt lat="50.288801193237305" lon="5.574520826339722">
        <ele>297.17</ele>
        <time>2021-07-27T13:05:48.422Z</time>
      </trkpt>
      <trkpt lat="50.28881183825433" lon="5.575346946716309">
        <ele>297.08</ele>
        <time>2021-07-27T13:05:48.632Z</time>
      </trkpt>
      <trkpt lat="50.28888702392578" lon="5.577610647305846">
        <ele>297.7</ele>
        <time>2021-07-27T13:05:48.865Z</time>
      </trkpt>
      <trkpt lat="50.28889766894281" lon="5.579194910824299">
        <ele>298.5</ele>
        <time>2021-07-27T13:05:49.114Z</time>
      </trkpt>
      <trkpt lat="50.28889766894281" lon="5.5791908875107765">
        <ele>298.25</ele>
        <time>2021-07-27T13:05:49.363Z</time>
      </trkpt>
      <trkpt lat="50.28889766894281" lon="5.5791867803782225">
        <ele>298.76</ele>
        <time>2021-07-27T13:05:49.612Z</time>
      </trkpt>
      <trkpt lat="50.28889766894281" lon="5.579186948016286">
        <ele>299.35</ele>
        <time>2021-07-27T13:05:49.861Z</time>
      </trkpt>
      <trkpt lat="50.2889084815979" lon="5.580786466598511">
        <ele>300.22</ele>
        <time>2021-07-27T13:05:50.127Z</time>
      </trkpt>
      <trkpt lat="50.28892985545099" lon="5.581151163205504">
        <ele>301.09</ele>
        <time>2021-07-27T13:05:50.396Z</time>
      </trkpt>
      <trkpt lat="50.288983499631286" lon="5.581601858139038">
        <ele>301.98</ele>
        <time>2021-07-27T13:05:50.670Z</time>
      </trkpt>
      <trkpt lat="50.28909078799188" lon="5.5820417404174805">
        <ele>302.91</ele>
        <time>2021-07-27T13:05:50.949Z</time>
      </trkpt>
      <trkpt lat="50.28972387313843" lon="5.583865642547607">
        <ele>303.79</ele>
        <time>2021-07-27T13:05:51.249Z</time>
      </trkpt>
      <trkpt lat="50.28972395695746" lon="5.583865642547607">
        <ele>304.84</ele>
        <time>2021-07-27T13:05:51.549Z</time>
      </trkpt>
      <trkpt lat="50.29161214828491" lon="5.589272892102599">
        <ele>305.69</ele>
        <time>2021-07-27T13:05:51.912Z</time>
      </trkpt>
      <trkpt lat="50.29164433479309" lon="5.589369535446167">
        <ele>306.84</ele>
        <time>2021-07-27T13:05:52.276Z</time>
      </trkpt>
      <trkpt lat="50.2918267250061" lon="5.589873706921935">
        <ele>308.06</ele>
        <time>2021-07-27T13:05:52.646Z</time>
      </trkpt>
      <trkpt lat="50.29221296310425" lon="5.590957319363952">
        <ele>309.7</ele>
        <time>2021-07-27T13:05:53.029Z</time>
      </trkpt>
      <trkpt lat="50.29265276156366" lon="5.592212593182921">
        <ele>311.47</ele>
        <time>2021-07-27T13:05:53.427Z</time>
      </trkpt>
      <trkpt lat="50.29272794723511" lon="5.592416524887085">
        <ele>313.24</ele>
        <time>2021-07-27T13:05:53.827Z</time>
      </trkpt>
      <trkpt lat="50.293049896135926" lon="5.593349849805236">
        <ele>315.13</ele>
        <time>2021-07-27T13:05:54.238Z</time>
      </trkpt>
      <trkpt lat="50.2930926438421" lon="5.593478679656982">
        <ele>317.12</ele>
        <time>2021-07-27T13:05:54.651Z</time>
      </trkpt>
      <trkpt lat="50.29339305125177" lon="5.594304716214538">
        <ele>319.28</ele>
        <time>2021-07-27T13:05:55.073Z</time>
      </trkpt>
      <trkpt lat="50.29406896792352" lon="5.59623590670526">
        <ele>321.92</ele>
        <time>2021-07-27T13:05:55.518Z</time>
      </trkpt>
      <trkpt lat="50.29445520602167" lon="5.597319602966309">
        <ele>324.74</ele>
        <time>2021-07-27T13:05:55.976Z</time>
      </trkpt>
      <trkpt lat="50.294476663693786" lon="5.597405349835753">
        <ele>327.38</ele>
        <time>2021-07-27T13:05:56.435Z</time>
      </trkpt>
      <trkpt lat="50.294863069429994" lon="5.598531877622008">
        <ele>330.9</ele>
        <time>2021-07-27T13:05:56.907Z</time>
      </trkpt>
      <trkpt lat="50.29487379826605" lon="5.598574876785278">
        <ele>333.77</ele>
        <time>2021-07-27T13:05:57.379Z</time>
      </trkpt>
      <trkpt lat="50.29494881629944" lon="5.598971843719482">
        <ele>336.84</ele>
        <time>2021-07-27T13:05:57.855Z</time>
      </trkpt>
      <trkpt lat="50.295023834332824" lon="5.5995190143585205">
        <ele>339.73</ele>
        <time>2021-07-27T13:05:58.337Z</time>
      </trkpt>
      <trkpt lat="50.295056188479066" lon="5.6000017281621695">
        <ele>342.59</ele>
        <time>2021-07-27T13:05:58.824Z</time>
      </trkpt>
      <trkpt lat="50.295066833496094" lon="5.600849390029907">
        <ele>345.66</ele>
        <time>2021-07-27T13:05:59.320Z</time>
      </trkpt>
      <trkpt lat="50.295023918151855" lon="5.601396560668945">
        <ele>348.63</ele>
        <time>2021-07-27T13:05:59.821Z</time>
      </trkpt>
      <trkpt lat="50.29491654597223" lon="5.602426445111632">
        <ele>351.81</ele>
        <time>2021-07-27T13:06:00.333Z</time>
      </trkpt>
      <trkpt lat="50.29489517211914" lon="5.60328483581543">
        <ele>354.91</ele>
        <time>2021-07-27T13:06:00.854Z</time>
      </trkpt>
      <trkpt lat="50.2949059009552" lon="5.60448638163507">
        <ele>357.89</ele>
        <time>2021-07-27T13:06:01.387Z</time>
      </trkpt>
      <trkpt lat="50.295023834332824" lon="5.605205213651061">
        <ele>360.91</ele>
        <time>2021-07-27T13:06:01.928Z</time>
      </trkpt>
      <trkpt lat="50.2952616289258" lon="5.605844501405954">
        <ele>362.72</ele>
        <time>2021-07-27T13:06:02.477Z</time>
      </trkpt>
      <trkpt lat="50.29526120983064" lon="5.60584332793951">
        <ele>363.98</ele>
        <time>2021-07-27T13:06:03.026Z</time>
      </trkpt>
      <trkpt lat="50.295260874554515" lon="5.60584232211113">
        <ele>366.78</ele>
        <time>2021-07-27T13:06:03.575Z</time>
      </trkpt>
      <trkpt lat="50.29526095837355" lon="5.605842489749193">
        <ele>369.53</ele>
        <time>2021-07-27T13:06:04.124Z</time>
      </trkpt>
      <trkpt lat="50.29553881846368" lon="5.606589233502746">
        <ele>372.67</ele>
        <time>2021-07-27T13:06:04.681Z</time>
      </trkpt>
      <trkpt lat="50.29590368270874" lon="5.607458269223571">
        <ele>375.65</ele>
        <time>2021-07-27T13:06:05.249Z</time>
      </trkpt>
      <trkpt lat="50.29610744677484" lon="5.608069896697998">
        <ele>378.67</ele>
        <time>2021-07-27T13:06:05.824Z</time>
      </trkpt>
      <trkpt lat="50.29612898826599" lon="5.608649253845215">
        <ele>381.34</ele>
        <time>2021-07-27T13:06:06.405Z</time>
      </trkpt>
      <trkpt lat="50.296214735135436" lon="5.6094324588775635">
        <ele>384.04</ele>
        <time>2021-07-27T13:06:06.994Z</time>
      </trkpt>
      <trkpt lat="50.29621481895447" lon="5.6094324588775635">
        <ele>386.62</ele>
        <time>2021-07-27T13:06:07.583Z</time>
      </trkpt>
      <trkpt lat="50.29624700546265" lon="5.609550392255187">
        <ele>389.19</ele>
        <time>2021-07-27T13:06:08.174Z</time>
      </trkpt>
      <trkpt lat="50.29645085334778" lon="5.6103551387786865">
        <ele>391.76</ele>
        <time>2021-07-27T13:06:08.773Z</time>
      </trkpt>
      <trkpt lat="50.296772718429565" lon="5.611374294385314">
        <ele>394.5</ele>
        <time>2021-07-27T13:06:09.384Z</time>
      </trkpt>
      <trkpt lat="50.297019481658936" lon="5.612243413925171">
        <ele>397.04</ele>
        <time>2021-07-27T13:06:10.005Z</time>
      </trkpt>
      <trkpt lat="50.297051668167114" lon="5.612940788269043">
        <ele>399.61</ele>
        <time>2021-07-27T13:06:10.633Z</time>
      </trkpt>
      <trkpt lat="50.297051668167114" lon="5.613681077957153">
        <ele>402.13</ele>
        <time>2021-07-27T13:06:11.269Z</time>
      </trkpt>
      <trkpt lat="50.2973735332489" lon="5.615483522415161">
        <ele>404.95</ele>
        <time>2021-07-27T13:06:11.924Z</time>
      </trkpt>
      <trkpt lat="50.2976309414953" lon="5.616491949185729">
        <ele>407.57</ele>
        <time>2021-07-27T13:06:12.590Z</time>
      </trkpt>
      <trkpt lat="50.29788851737976" lon="5.618423223495483">
        <ele>410.79</ele>
        <time>2021-07-27T13:06:13.276Z</time>
      </trkpt>
      <trkpt lat="50.29787770472467" lon="5.618777275085449">
        <ele>413.2</ele>
        <time>2021-07-27T13:06:13.966Z</time>
      </trkpt>
      <trkpt lat="50.297770416364074" lon="5.61901330947876">
        <ele>415.44</ele>
        <time>2021-07-27T13:06:14.659Z</time>
      </trkpt>
      <trkpt lat="50.297770500183105" lon="5.61901330947876">
        <ele>417.83</ele>
        <time>2021-07-27T13:06:15.352Z</time>
      </trkpt>
      <trkpt lat="50.29739490710199" lon="5.619882345199585">
        <ele>420.05</ele>
        <time>2021-07-27T13:06:16.056Z</time>
      </trkpt>
      <trkpt lat="50.29727688990533" lon="5.620279228314757">
        <ele>422.53</ele>
        <time>2021-07-27T13:06:16.764Z</time>
      </trkpt>
      <trkpt lat="50.29720178805292" lon="5.620976686477661">
        <ele>425.21</ele>
        <time>2021-07-27T13:06:17.479Z</time>
      </trkpt>
      <trkpt lat="50.29721260070801" lon="5.6214486714452505">
        <ele>427.74</ele>
        <time>2021-07-27T13:06:18.199Z</time>
      </trkpt>
      <trkpt lat="50.29713749885559" lon="5.621695434674621">
        <ele>430.15</ele>
        <time>2021-07-27T13:06:18.922Z</time>
      </trkpt>
      <trkpt lat="50.297051668167114" lon="5.621856367215514">
        <ele>432.55</ele>
        <time>2021-07-27T13:06:19.647Z</time>
      </trkpt>
      <trkpt lat="50.296525871381164" lon="5.622446537017822">
        <ele>435.0</ele>
        <time>2021-07-27T13:06:20.382Z</time>
      </trkpt>
      <trkpt lat="50.296010971069336" lon="5.622982895001769">
        <ele>437.43</ele>
        <time>2021-07-27T13:06:21.127Z</time>
      </trkpt>
      <trkpt lat="50.29585003852844" lon="5.623369216918945">
        <ele>439.87</ele>
        <time>2021-07-27T13:06:21.877Z</time>
      </trkpt>
      <trkpt lat="50.295796394348145" lon="5.623530149459839">
        <ele>442.19</ele>
        <time>2021-07-27T13:06:22.629Z</time>
      </trkpt>
      <trkpt lat="50.29568910598755" lon="5.623970031738281">
        <ele>444.59</ele>
        <time>2021-07-27T13:06:23.386Z</time>
      </trkpt>
      <trkpt lat="50.29561400413513" lon="5.624731779098511">
        <ele>447.16</ele>
        <time>2021-07-27T13:06:24.151Z</time>
      </trkpt>
      <trkpt lat="50.29569975100458" lon="5.625547170639038">
        <ele>449.73</ele>
        <time>2021-07-27T13:06:24.924Z</time>
      </trkpt>
      <trkpt lat="50.29569983482361" lon="5.626201629638672">
        <ele>452.02</ele>
        <time>2021-07-27T13:06:25.704Z</time>
      </trkpt>
      <trkpt lat="50.295731937512755" lon="5.626780986785889">
        <ele>454.19</ele>
        <time>2021-07-27T13:06:26.490Z</time>
      </trkpt>
      <trkpt lat="50.295774936676025" lon="5.627081394195557">
        <ele>456.35</ele>
        <time>2021-07-27T13:06:27.279Z</time>
      </trkpt>
      <trkpt lat="50.296021699905396" lon="5.628272294998169">
        <ele>458.89</ele>
        <time>2021-07-27T13:06:28.081Z</time>
      </trkpt>
      <trkpt lat="50.29648303985596" lon="5.629345094785094">
        <ele>461.53</ele>
        <time>2021-07-27T13:06:28.896Z</time>
      </trkpt>
      <trkpt lat="50.296708261594176" lon="5.629860078915954">
        <ele>463.81</ele>
        <time>2021-07-27T13:06:29.718Z</time>
      </trkpt>
      <trkpt lat="50.296740448102355" lon="5.630053197965026">
        <ele>465.77</ele>
        <time>2021-07-27T13:06:30.542Z</time>
      </trkpt>
      <trkpt lat="50.296751260757446" lon="5.630332147702575">
        <ele>467.59</ele>
        <time>2021-07-27T13:06:31.368Z</time>
      </trkpt>
      <trkpt lat="50.29672980308533" lon="5.630611181259155">
        <ele>469.28</ele>
        <time>2021-07-27T13:06:32.197Z</time>
      </trkpt>
      <trkpt lat="50.29667615890503" lon="5.630772029981017">
        <ele>470.82</ele>
        <time>2021-07-27T13:06:33.028Z</time>
      </trkpt>
      <trkpt lat="50.29660097323358" lon="5.6310296058654785">
        <ele>472.19</ele>
        <time>2021-07-27T13:06:33.862Z</time>
      </trkpt>
      <trkpt lat="50.29640785418451" lon="5.631544589996338">
        <ele>473.51</ele>
        <time>2021-07-27T13:06:34.702Z</time>
      </trkpt>
      <trkpt lat="50.29627910815179" lon="5.632048761472106">
        <ele>474.74</ele>
        <time>2021-07-27T13:06:35.548Z</time>
      </trkpt>
      <trkpt lat="50.296225463971496" lon="5.632370626553893">
        <ele>475.86</ele>
        <time>2021-07-27T13:06:36.397Z</time>
      </trkpt>
      <trkpt lat="50.29620409011841" lon="5.632724678143859">
        <ele>476.88</ele>
        <time>2021-07-27T13:06:37.250Z</time>
      </trkpt>
      <trkpt lat="50.2961718197912" lon="5.633346950635314">
        <ele>477.72</ele>
        <time>2021-07-27T13:06:38.109Z</time>
      </trkpt>
      <trkpt lat="50.29610744677484" lon="5.633668899536133">
        <ele>478.51</ele>
        <time>2021-07-27T13:06:38.972Z</time>
      </trkpt>
      <trkpt lat="50.29593586921692" lon="5.634183883666992">
        <ele>479.24</ele>
        <time>2021-07-27T13:06:39.841Z</time>
      </trkpt>
      <trkpt lat="50.29588222503662" lon="5.634548580273986">
        <ele>479.85</ele>
        <time>2021-07-27T13:06:40.714Z</time>
      </trkpt>
      <trkpt lat="50.29587141238153" lon="5.6349562760442495">
        <ele>480.29</ele>
        <time>2021-07-27T13:06:41.591Z</time>
      </trkpt>
      <trkpt lat="50.29594651423395" lon="5.635535633191466">
        <ele>480.61</ele>
        <time>2021-07-27T13:06:42.474Z</time>
      </trkpt>
      <trkpt lat="50.29603234492242" lon="5.635996973142028">
        <ele>481.1</ele>
        <time>2021-07-27T13:06:43.362Z</time>
      </trkpt>
      <trkpt lat="50.296257734298706" lon="5.63695183955133">
        <ele>481.9</ele>
        <time>2021-07-27T13:06:44.260Z</time>
      </trkpt>
      <trkpt lat="50.29630056582391" lon="5.637166416272521">
        <ele>482.26</ele>
        <time>2021-07-27T13:06:45.160Z</time>
      </trkpt>
      <trkpt lat="50.29639720916748" lon="5.6383466720581055">
        <ele>482.7</ele>
        <time>2021-07-27T13:06:46.073Z</time>
      </trkpt>
      <trkpt lat="50.29645085334778" lon="5.638775741681457">
        <ele>482.93</ele>
        <time>2021-07-27T13:06:46.990Z</time>
      </trkpt>
      <trkpt lat="50.29657951556146" lon="5.639387369155884">
        <ele>483.08</ele>
        <time>2021-07-27T13:06:47.914Z</time>
      </trkpt>
      <trkpt lat="50.29669761657715" lon="5.639805709943175">
        <ele>483.17</ele>
        <time>2021-07-27T13:06:48.842Z</time>
      </trkpt>
      <trkpt lat="50.297008669003844" lon="5.640481626614928">
        <ele>482.95</ele>
        <time>2021-07-27T13:06:49.779Z</time>
      </trkpt>
      <trkpt lat="50.29714814387262" lon="5.640749931335449">
        <ele>482.8</ele>
        <time>2021-07-27T13:06:50.720Z</time>
      </trkpt>
      <trkpt lat="50.297566736117005" lon="5.641329204663634">
        <ele>482.72</ele>
        <time>2021-07-27T13:06:51.669Z</time>
      </trkpt>
      <trkpt lat="50.29783487319946" lon="5.641661798581481">
        <ele>482.69</ele>
        <time>2021-07-27T13:06:52.624Z</time>
      </trkpt>
      <trkpt lat="50.29793134890497" lon="5.6418657302856445">
        <ele>482.63</ele>
        <time>2021-07-27T13:06:53.582Z</time>
      </trkpt>
      <trkpt lat="50.297984993085265" lon="5.642015850171447">
        <ele>482.56</ele>
        <time>2021-07-27T13:06:54.541Z</time>
      </trkpt>
      <trkpt lat="50.298027992248535" lon="5.6422412395477295">
        <ele>482.49</ele>
        <time>2021-07-27T13:06:55.503Z</time>
      </trkpt>
      <trkpt lat="50.29807082377374" lon="5.642766868695617">
        <ele>482.4</ele>
        <time>2021-07-27T13:06:56.470Z</time>
      </trkpt>
      <trkpt lat="50.29808163642883" lon="5.643024360761046">
        <ele>482.32</ele>
        <time>2021-07-27T13:06:57.440Z</time>
      </trkpt>
      <trkpt lat="50.29803863726556" lon="5.643711090087891">
        <ele>482.26</ele>
        <time>2021-07-27T13:06:58.417Z</time>
      </trkpt>
      <trkpt lat="50.29797434806824" lon="5.644129430875182">
        <ele>482.02</ele>
        <time>2021-07-27T13:06:59.398Z</time>
      </trkpt>
      <trkpt lat="50.29788851737976" lon="5.6444942113012075">
        <ele>481.82</ele>
        <time>2021-07-27T13:07:00.383Z</time>
      </trkpt>
      <trkpt lat="50.297791957855225" lon="5.644805431365967">
        <ele>481.67</ele>
        <time>2021-07-27T13:07:01.372Z</time>
      </trkpt>
      <trkpt lat="50.29770612716675" lon="5.645030653104186">
        <ele>481.41</ele>
        <time>2021-07-27T13:07:02.364Z</time>
      </trkpt>
      <trkpt lat="50.297545194625854" lon="5.645298874005675">
        <ele>481.2</ele>
        <time>2021-07-27T13:07:03.359Z</time>
      </trkpt>
      <trkpt lat="50.29743790626526" lon="5.645416891202331">
        <ele>480.9</ele>
        <time>2021-07-27T13:07:04.356Z</time>
      </trkpt>
      <trkpt lat="50.29723414219916" lon="5.645567178726196">
        <ele>480.56</ele>
        <time>2021-07-27T13:07:05.357Z</time>
      </trkpt>
      <trkpt lat="50.29682636260986" lon="5.645867586135864">
        <ele>480.35</ele>
        <time>2021-07-27T13:07:06.365Z</time>
      </trkpt>
      <trkpt lat="50.29660097323358" lon="5.6461358070373535">
        <ele>480.04</ele>
        <time>2021-07-27T13:07:07.378Z</time>
      </trkpt>
      <trkpt lat="50.29634356498718" lon="5.646479045972228">
        <ele>479.6</ele>
        <time>2021-07-27T13:07:08.396Z</time>
      </trkpt>
      <trkpt lat="50.29617198742926" lon="5.6467366218566895">
        <ele>478.91</ele>
        <time>2021-07-27T13:07:09.418Z</time>
      </trkpt>
      <trkpt lat="50.296043241396546" lon="5.646961843594909">
        <ele>478.09</ele>
        <time>2021-07-27T13:07:10.443Z</time>
      </trkpt>
      <trkpt lat="50.295753395184875" lon="5.647476827725768">
        <ele>477.07</ele>
        <time>2021-07-27T13:07:11.475Z</time>
      </trkpt>
      <trkpt lat="50.29534569941461" lon="5.6480348110198975">
        <ele>475.82</ele>
        <time>2021-07-27T13:07:12.516Z</time>
      </trkpt>
      <trkpt lat="50.29493800364435" lon="5.648410236462951">
        <ele>474.56</ele>
        <time>2021-07-27T13:07:13.564Z</time>
      </trkpt>
      <trkpt lat="50.294455122202635" lon="5.648721372708678">
        <ele>474.13</ele>
        <time>2021-07-27T13:07:14.621Z</time>
      </trkpt>
      <trkpt lat="50.29445520602167" lon="5.648721372708678">
        <ele>473.2</ele>
        <time>2021-07-27T13:07:15.678Z</time>
      </trkpt>
      <trkpt lat="50.29445520602167" lon="5.64872145652771">
        <ele>471.87</ele>
        <time>2021-07-27T13:07:16.735Z</time>
      </trkpt>
      <trkpt lat="50.29445537365973" lon="5.64872145652771">
        <ele>470.46</ele>
        <time>2021-07-27T13:07:17.792Z</time>
      </trkpt>
      <trkpt lat="50.29445520602167" lon="5.64872145652771">
        <ele>471.87</ele>
        <time>2021-07-27T13:07:18.849Z</time>
      </trkpt>
      <trkpt lat="50.29445537365973" lon="5.64872145652771">
        <ele>470.46</ele>
        <time>2021-07-27T13:07:19.906Z</time>
      </trkpt>
      <trkpt lat="50.294026136398315" lon="5.649054050445557">
        <ele>465.45</ele>
        <time>2021-07-27T13:07:20.970Z</time>
      </trkpt>
      <trkpt lat="50.293264389038086" lon="5.649858629330993">
        <ele>463.45</ele>
        <time>2021-07-27T13:07:22.049Z</time>
      </trkpt>
      <trkpt lat="50.29266365803778" lon="5.650716936215758">
        <ele>461.37</ele>
        <time>2021-07-27T13:07:23.141Z</time>
      </trkpt>
      <trkpt lat="50.29259911738336" lon="5.650824308395386">
        <ele>459.55</ele>
        <time>2021-07-27T13:07:24.235Z</time>
      </trkpt>
      <trkpt lat="50.29259920120239" lon="5.650824308395386">
        <ele>457.7</ele>
        <time>2021-07-27T13:07:25.329Z</time>
      </trkpt>
      <trkpt lat="50.29238454066217" lon="5.651156818494201">
        <ele>455.86</ele>
        <time>2021-07-27T13:07:26.428Z</time>
      </trkpt>
      <trkpt lat="50.2918267250061" lon="5.65220832824707">
        <ele>453.68</ele>
        <time>2021-07-27T13:07:27.541Z</time>
      </trkpt>
      <trkpt lat="50.29156914912164" lon="5.6527769565582275">
        <ele>451.72</ele>
        <time>2021-07-27T13:07:28.661Z</time>
      </trkpt>
      <trkpt lat="50.29135465621948" lon="5.653313314542174">
        <ele>449.74</ele>
        <time>2021-07-27T13:07:29.787Z</time>
      </trkpt>
      <trkpt lat="50.29117226600647" lon="5.653903400525451">
        <ele>447.84</ele>
        <time>2021-07-27T13:07:30.920Z</time>
      </trkpt>
      <trkpt lat="50.291011333465576" lon="5.65447211265564">
        <ele>445.98</ele>
        <time>2021-07-27T13:07:32.059Z</time>
      </trkpt>
      <trkpt lat="50.2908718585968" lon="5.655072843655944">
        <ele>444.24</ele>
        <time>2021-07-27T13:07:33.205Z</time>
      </trkpt>
      <trkpt lat="50.290775215253234" lon="5.655587911605835">
        <ele>442.47</ele>
        <time>2021-07-27T13:07:34.356Z</time>
      </trkpt>
      <trkpt lat="50.290775299072266" lon="5.655587911605835">
        <ele>440.79</ele>
        <time>2021-07-27T13:07:35.507Z</time>
      </trkpt>
      <trkpt lat="50.290764570236206" lon="5.655663013458252">
        <ele>439.13</ele>
        <time>2021-07-27T13:07:36.659Z</time>
      </trkpt>
      <trkpt lat="50.29076465405524" lon="5.655663013458252">
        <ele>437.56</ele>
        <time>2021-07-27T13:07:37.811Z</time>
      </trkpt>
      <trkpt lat="50.290528452023864" lon="5.657089864835143">
        <ele>435.85</ele>
        <time>2021-07-27T13:07:38.978Z</time>
      </trkpt>
      <trkpt lat="50.290528535842896" lon="5.657089864835143">
        <ele>434.41</ele>
        <time>2021-07-27T13:07:40.145Z</time>
      </trkpt>
      <trkpt lat="50.290474807843566" lon="5.65770149230957">
        <ele>433.04</ele>
        <time>2021-07-27T13:07:41.319Z</time>
      </trkpt>
      <trkpt lat="50.29045351780951" lon="5.658205663785338">
        <ele>431.79</ele>
        <time>2021-07-27T13:07:42.498Z</time>
      </trkpt>
      <trkpt lat="50.29045335017145" lon="5.658870851621032">
        <ele>430.51</ele>
        <time>2021-07-27T13:07:43.684Z</time>
      </trkpt>
      <trkpt lat="50.29049634933472" lon="5.659536123275757">
        <ele>429.2</ele>
        <time>2021-07-27T13:07:44.877Z</time>
      </trkpt>
      <trkpt lat="50.290506994351745" lon="5.65965405665338">
        <ele>428.15</ele>
        <time>2021-07-27T13:07:46.071Z</time>
      </trkpt>
      <trkpt lat="50.29045335017145" lon="5.6596755143254995">
        <ele>427.25</ele>
        <time>2021-07-27T13:07:47.266Z</time>
      </trkpt>
      <trkpt lat="50.29042116366327" lon="5.659750699996948">
        <ele>426.44</ele>
        <time>2021-07-27T13:07:48.462Z</time>
      </trkpt>
      <trkpt lat="50.29043197631836" lon="5.659847175702453">
        <ele>425.72</ele>
        <time>2021-07-27T13:07:49.659Z</time>
      </trkpt>
      <trkpt lat="50.29046424664557" lon="5.659911632537842">
        <ele>425.13</ele>
        <time>2021-07-27T13:07:50.856Z</time>
      </trkpt>
      <trkpt lat="50.29046416282654" lon="5.659911632537842">
        <ele>424.69</ele>
        <time>2021-07-27T13:07:52.053Z</time>
      </trkpt>
      <trkpt lat="50.290539264678955" lon="5.65992227755487">
        <ele>424.38</ele>
        <time>2021-07-27T13:07:53.252Z</time>
      </trkpt>
      <trkpt lat="50.29058209620416" lon="5.660254871472716">
        <ele>424.15</ele>
        <time>2021-07-27T13:07:54.454Z</time>
      </trkpt>
      <trkpt lat="50.29058218002319" lon="5.660254871472716">
        <ele>424.15</ele>
        <time>2021-07-27T13:07:55.656Z</time>
      </trkpt>
      <trkpt lat="50.2910756226629" lon="5.664567947387695">
        <ele>423.75</ele>
        <time>2021-07-27T13:07:56.903Z</time>
      </trkpt>
      <trkpt lat="50.29119380749762" lon="5.665533458814025">
        <ele>424.09</ele>
        <time>2021-07-27T13:07:58.160Z</time>
      </trkpt>
      <trkpt lat="50.29124736785889" lon="5.666026985272765">
        <ele>424.61</ele>
        <time>2021-07-27T13:07:59.422Z</time>
      </trkpt>
      <trkpt lat="50.29155816882849" lon="5.6687019020318985">
        <ele>424.46</ele>
        <time>2021-07-27T13:08:00.712Z</time>
      </trkpt>
      <trkpt lat="50.2915574144572" lon="5.668694861233234">
        <ele>425.47</ele>
        <time>2021-07-27T13:08:02.002Z</time>
      </trkpt>
      <trkpt lat="50.29155674390495" lon="5.668688826262951">
        <ele>426.33</ele>
        <time>2021-07-27T13:08:03.292Z</time>
      </trkpt>
      <trkpt lat="50.29155674390495" lon="5.668688910081983">
        <ele>427.37</ele>
        <time>2021-07-27T13:08:04.582Z</time>
      </trkpt>
      <trkpt lat="50.29197701252997" lon="5.6723034381866455">
        <ele>428.99</ele>
        <time>2021-07-27T13:08:05.910Z</time>
      </trkpt>
      <trkpt lat="50.29218077659607" lon="5.674073696136475">
        <ele>430.75</ele>
        <time>2021-07-27T13:08:07.257Z</time>
      </trkpt>
      <trkpt lat="50.29232016764581" lon="5.675243139266968">
        <ele>432.33</ele>
        <time>2021-07-27T13:08:08.616Z</time>
      </trkpt>
      <trkpt lat="50.29238454066217" lon="5.675522005185485">
        <ele>433.99</ele>
        <time>2021-07-27T13:08:09.978Z</time>
      </trkpt>
      <trkpt lat="50.29223442077637" lon="5.6756508350372314">
        <ele>435.8</ele>
        <time>2021-07-27T13:08:11.342Z</time>
      </trkpt>
      <trkpt lat="50.29066792689264" lon="5.677024042233825">
        <ele>437.89</ele>
        <time>2021-07-27T13:08:12.735Z</time>
      </trkpt>
      <trkpt lat="50.29066801071167" lon="5.677024042233825">
        <ele>439.97</ele>
        <time>2021-07-27T13:08:14.128Z</time>
      </trkpt>
      <trkpt lat="50.28951281681657" lon="5.678038587793708">
        <ele>441.18</ele>
        <time>2021-07-27T13:08:15.543Z</time>
      </trkpt>
      <trkpt lat="50.289513571187854" lon="5.678038001060486">
        <ele>442.35</ele>
        <time>2021-07-27T13:08:16.958Z</time>
      </trkpt>
      <trkpt lat="50.28951373882592" lon="5.678037917241454">
        <ele>444.67</ele>
        <time>2021-07-27T13:08:18.373Z</time>
      </trkpt>
      <trkpt lat="50.289513571187854" lon="5.6780380848795176">
        <ele>447.08</ele>
        <time>2021-07-27T13:08:19.788Z</time>
      </trkpt>
      <trkpt lat="50.28943419456482" lon="5.678107654675841">
        <ele>449.63</ele>
        <time>2021-07-27T13:08:21.204Z</time>
      </trkpt>
      <trkpt lat="50.28850086964667" lon="5.678933775052428">
        <ele>452.26</ele>
        <time>2021-07-27T13:08:22.637Z</time>
      </trkpt>
      <trkpt lat="50.28847932815552" lon="5.678955232724547">
        <ele>454.94</ele>
        <time>2021-07-27T13:08:24.071Z</time>
      </trkpt>
      <trkpt lat="50.28640866279602" lon="5.680779134854674">
        <ele>458.64</ele>
        <time>2021-07-27T13:08:25.543Z</time>
      </trkpt>
      <trkpt lat="50.286258375272155" lon="5.680940067395568">
        <ele>461.47</ele>
        <time>2021-07-27T13:08:27.018Z</time>
      </trkpt>
      <trkpt lat="50.28609744273126" lon="5.6811439990997314">
        <ele>464.31</ele>
        <time>2021-07-27T13:08:28.496Z</time>
      </trkpt>
      <trkpt lat="50.28596878051758" lon="5.681358492001891">
        <ele>467.11</ele>
        <time>2021-07-27T13:08:29.977Z</time>
      </trkpt>
      <trkpt lat="50.28596886433661" lon="5.681358492001891">
        <ele>469.93</ele>
        <time>2021-07-27T13:08:31.458Z</time>
      </trkpt>
      <trkpt lat="50.285829305648804" lon="5.68166971206665">
        <ele>472.75</ele>
        <time>2021-07-27T13:08:32.943Z</time>
      </trkpt>
      <trkpt lat="50.28572201728821" lon="5.68193793296814">
        <ele>475.56</ele>
        <time>2021-07-27T13:08:34.431Z</time>
      </trkpt>
      <trkpt lat="50.28564691543579" lon="5.6822168827056885">
        <ele>478.42</ele>
        <time>2021-07-27T13:08:35.922Z</time>
      </trkpt>
      <trkpt lat="50.28557172976434" lon="5.68263522349298">
        <ele>481.34</ele>
        <time>2021-07-27T13:08:37.418Z</time>
      </trkpt>
      <trkpt lat="50.285539627075195" lon="5.683010732755065">
        <ele>484.16</ele>
        <time>2021-07-27T13:08:38.918Z</time>
      </trkpt>
      <trkpt lat="50.285539627075195" lon="5.683407783508301">
        <ele>486.86</ele>
        <time>2021-07-27T13:08:40.422Z</time>
      </trkpt>
      <trkpt lat="50.285582542419434" lon="5.68393349647522">
        <ele>489.44</ele>
        <time>2021-07-27T13:08:41.931Z</time>
      </trkpt>
      <trkpt lat="50.286076068878174" lon="5.689608966931701">
        <ele>493.22</ele>
        <time>2021-07-27T13:08:43.499Z</time>
      </trkpt>
      <trkpt lat="50.286108339205384" lon="5.690392171964049">
        <ele>495.57</ele>
        <time>2021-07-27T13:08:45.075Z</time>
      </trkpt>
      <trkpt lat="50.28610825538635" lon="5.690767765045166">
        <ele>497.84</ele>
        <time>2021-07-27T13:08:46.655Z</time>
      </trkpt>
      <trkpt lat="50.286076068878174" lon="5.691218376159668">
        <ele>500.03</ele>
        <time>2021-07-27T13:08:48.239Z</time>
      </trkpt>
      <trkpt lat="50.285775661468506" lon="5.694243907928467">
        <ele>502.41</ele>
        <time>2021-07-27T13:08:49.855Z</time>
      </trkpt>
      <trkpt lat="50.285732662305236" lon="5.694587146863341">
        <ele>504.41</ele>
        <time>2021-07-27T13:08:51.474Z</time>
      </trkpt>
      <trkpt lat="50.28566837310791" lon="5.694887554273009">
        <ele>506.21</ele>
        <time>2021-07-27T13:08:53.097Z</time>
      </trkpt>
      <trkpt lat="50.28560391627252" lon="5.695145130157471">
        <ele>507.89</ele>
        <time>2021-07-27T13:08:54.722Z</time>
      </trkpt>
      <trkpt lat="50.28550744056702" lon="5.695391893386841">
        <ele>509.43</ele>
        <time>2021-07-27T13:08:56.350Z</time>
      </trkpt>
      <trkpt lat="50.285292863845825" lon="5.695810234174132">
        <ele>511.04</ele>
        <time>2021-07-27T13:08:57.984Z</time>
      </trkpt>
      <trkpt lat="50.285035287961364" lon="5.696121454238892">
        <ele>512.48</ele>
        <time>2021-07-27T13:08:59.623Z</time>
      </trkpt>
      <trkpt lat="50.28491727076471" lon="5.696239471435547">
        <ele>513.69</ele>
        <time>2021-07-27T13:09:01.264Z</time>
      </trkpt>
      <trkpt lat="50.284756338223815" lon="5.696335947141051">
        <ele>514.79</ele>
        <time>2021-07-27T13:09:02.908Z</time>
      </trkpt>
      <trkpt lat="50.28456321917474" lon="5.69642186164856">
        <ele>515.81</ele>
        <time>2021-07-27T13:09:04.555Z</time>
      </trkpt>
      <trkpt lat="50.284273540601134" lon="5.696475505828857">
        <ele>516.71</ele>
        <time>2021-07-27T13:09:06.207Z</time>
      </trkpt>
      <trkpt lat="50.2842737082392" lon="5.696475505828857">
        <ele>517.77</ele>
        <time>2021-07-27T13:09:07.859Z</time>
      </trkpt>
      <trkpt lat="50.28390876017511" lon="5.696411048993468">
        <ele>518.77</ele>
        <time>2021-07-27T13:09:09.517Z</time>
      </trkpt>
      <trkpt lat="50.28373718261719" lon="5.696346759796143">
        <ele>519.9</ele>
        <time>2021-07-27T13:09:11.178Z</time>
      </trkpt>
      <trkpt lat="50.27996063232422" lon="5.694758892059326">
        <ele>521.45</ele>
        <time>2021-07-27T13:09:12.901Z</time>
      </trkpt>
      <trkpt lat="50.27987480163574" lon="5.694715976715088">
        <ele>522.77</ele>
        <time>2021-07-27T13:09:14.626Z</time>
      </trkpt>
      <trkpt lat="50.27986407279968" lon="5.694715976715088">
        <ele>524.18</ele>
        <time>2021-07-27T13:09:16.351Z</time>
      </trkpt>
      <trkpt lat="50.27490743435919" lon="5.692613124847412">
        <ele>525.7</ele>
        <time>2021-07-27T13:09:18.158Z</time>
      </trkpt>
      <trkpt lat="50.27446738444269" lon="5.6924842949956656">
        <ele>527.35</ele>
        <time>2021-07-27T13:09:19.972Z</time>
      </trkpt>
      <trkpt lat="50.27422062121332" lon="5.692441379651427">
        <ele>529.25</ele>
        <time>2021-07-27T13:09:21.790Z</time>
      </trkpt>
      <trkpt lat="50.27374863624573" lon="5.692409193143249">
        <ele>531.46</ele>
        <time>2021-07-27T13:09:23.616Z</time>
      </trkpt>
      <trkpt lat="50.273265754804015" lon="5.692473649978638">
        <ele>533.68</ele>
        <time>2021-07-27T13:09:25.450Z</time>
      </trkpt>
      <trkpt lat="50.26969313621521" lon="5.69336405955255">
        <ele>536.26</ele>
        <time>2021-07-27T13:09:27.342Z</time>
      </trkpt>
      <trkpt lat="50.26922115124762" lon="5.693546449765563">
        <ele>539.06</ele>
        <time>2021-07-27T13:09:29.242Z</time>
      </trkpt>
      <trkpt lat="50.26887766085565" lon="5.693771755322814">
        <ele>542.08</ele>
        <time>2021-07-27T13:09:31.147Z</time>
      </trkpt>
      <trkpt lat="50.26849150657654" lon="5.694136619567871">
        <ele>545.39</ele>
        <time>2021-07-27T13:09:33.060Z</time>
      </trkpt>
      <trkpt lat="50.268309032544494" lon="5.694361925125122">
        <ele>549.04</ele>
        <time>2021-07-27T13:09:34.976Z</time>
      </trkpt>
      <trkpt lat="50.268309116363525" lon="5.694361925125122">
        <ele>552.75</ele>
        <time>2021-07-27T13:09:36.892Z</time>
      </trkpt>
      <trkpt lat="50.26803016662598" lon="5.694780265912414">
        <ele>556.93</ele>
        <time>2021-07-27T13:09:38.815Z</time>
      </trkpt>
      <trkpt lat="50.2678906917572" lon="5.695048486813903">
        <ele>561.15</ele>
        <time>2021-07-27T13:09:40.741Z</time>
      </trkpt>
      <trkpt lat="50.26677489280701" lon="5.697430372238159">
        <ele>566.16</ele>
        <time>2021-07-27T13:09:42.697Z</time>
      </trkpt>
      <trkpt lat="50.266345739364624" lon="5.698353052139282">
        <ele>570.75</ele>
        <time>2021-07-27T13:09:44.665Z</time>
      </trkpt>
      <trkpt lat="50.26367425918579" lon="5.704039251431823">
        <ele>576.37</ele>
        <time>2021-07-27T13:09:46.706Z</time>
      </trkpt>
      <trkpt lat="50.26224732398987" lon="5.707064867019653">
        <ele>582.25</ele>
        <time>2021-07-27T13:09:48.785Z</time>
      </trkpt>
      <trkpt lat="50.262043392285705" lon="5.707526123151183">
        <ele>586.89</ele>
        <time>2021-07-27T13:09:50.870Z</time>
      </trkpt>
      <trkpt lat="50.26100277900696" lon="5.710283517837524">
        <ele>591.21</ele>
        <time>2021-07-27T13:09:52.988Z</time>
      </trkpt>
      <trkpt lat="50.26100286282599" lon="5.710283517837524">
        <ele>595.64</ele>
        <time>2021-07-27T13:09:55.106Z</time>
      </trkpt>
      <trkpt lat="50.25894275866449" lon="5.715776598080993">
        <ele>600.32</ele>
        <time>2021-07-27T13:09:57.289Z</time>
      </trkpt>
      <trkpt lat="50.25894284248352" lon="5.715776598080993">
        <ele>604.55</ele>
        <time>2021-07-27T13:09:59.472Z</time>
      </trkpt>
      <trkpt lat="50.25822401046753" lon="5.717675602063537">
        <ele>608.91</ele>
        <time>2021-07-27T13:10:01.678Z</time>
      </trkpt>
      <trkpt lat="50.25822409428656" lon="5.717675602063537">
        <ele>612.84</ele>
        <time>2021-07-27T13:10:03.884Z</time>
      </trkpt>
      <trkpt lat="50.25821319781244" lon="5.717718601226807">
        <ele>616.6</ele>
        <time>2021-07-27T13:10:06.090Z</time>
      </trkpt>
      <trkpt lat="50.25821328163147" lon="5.717718601226807">
        <ele>620.18</ele>
        <time>2021-07-27T13:10:08.296Z</time>
      </trkpt>
      <trkpt lat="50.25767683982849" lon="5.719166910275817">
        <ele>623.63</ele>
        <time>2021-07-27T13:10:10.519Z</time>
      </trkpt>
      <trkpt lat="50.25718331336975" lon="5.720679759979248">
        <ele>627.01</ele>
        <time>2021-07-27T13:10:12.760Z</time>
      </trkpt>
      <trkpt lat="50.25695792399347" lon="5.721452236175537">
        <ele>630.19</ele>
        <time>2021-07-27T13:10:15.010Z</time>
      </trkpt>
      <trkpt lat="50.256324922665954" lon="5.723801767453551">
        <ele>633.14</ele>
        <time>2021-07-27T13:10:17.286Z</time>
      </trkpt>
      <trkpt lat="50.256035244092345" lon="5.724735260009766">
        <ele>635.69</ele>
        <time>2021-07-27T13:10:19.572Z</time>
      </trkpt>
      <trkpt lat="50.25603532791138" lon="5.724735260009766">
        <ele>637.97</ele>
        <time>2021-07-27T13:10:21.858Z</time>
      </trkpt>
      <trkpt lat="50.25565981864929" lon="5.725872432813048">
        <ele>640.26</ele>
        <time>2021-07-27T13:10:24.158Z</time>
      </trkpt>
      <trkpt lat="50.25525212287903" lon="5.7269667740911245">
        <ele>642.26</ele>
        <time>2021-07-27T13:10:26.471Z</time>
      </trkpt>
      <trkpt lat="50.25525220669806" lon="5.7269667740911245">
        <ele>643.84</ele>
        <time>2021-07-27T13:10:28.784Z</time>
      </trkpt>
      <trkpt lat="50.25489807128906" lon="5.727857267484069">
        <ele>645.15</ele>
        <time>2021-07-27T13:10:31.107Z</time>
      </trkpt>
      <trkpt lat="50.254318630322814" lon="5.729176998138428">
        <ele>646.39</ele>
        <time>2021-07-27T13:10:33.447Z</time>
      </trkpt>
      <trkpt lat="50.25394320487976" lon="5.729981577023864">
        <ele>647.3</ele>
        <time>2021-07-27T13:10:35.797Z</time>
      </trkpt>
      <trkpt lat="50.25340676307678" lon="5.731043731793761">
        <ele>648.08</ele>
        <time>2021-07-27T13:10:38.161Z</time>
      </trkpt>
      <trkpt lat="50.253074169158936" lon="5.731666004285216">
        <ele>648.75</ele>
        <time>2021-07-27T13:10:40.533Z</time>
      </trkpt>
      <trkpt lat="50.25307425297797" lon="5.731666004285216">
        <ele>649.05</ele>
        <time>2021-07-27T13:10:42.905Z</time>
      </trkpt>
      <trkpt lat="50.25284877978265" lon="5.73208442889154">
        <ele>649.23</ele>
        <time>2021-07-27T13:10:45.283Z</time>
      </trkpt>
      <trkpt lat="50.252612913027406" lon="5.7325029373168945">
        <ele>649.24</ele>
        <time>2021-07-27T13:10:47.666Z</time>
      </trkpt>
      <trkpt lat="50.25255926884711" lon="5.732599413022399">
        <ele>649.04</ele>
        <time>2021-07-27T13:10:50.051Z</time>
      </trkpt>
      <trkpt lat="50.25027402676642" lon="5.736386692151427">
        <ele>648.33</ele>
        <time>2021-07-27T13:10:52.489Z</time>
      </trkpt>
      <trkpt lat="50.25014519691467" lon="5.736590623855591">
        <ele>647.85</ele>
        <time>2021-07-27T13:10:54.930Z</time>
      </trkpt>
      <trkpt lat="50.249641025438905" lon="5.737427473068237">
        <ele>647.22</ele>
        <time>2021-07-27T13:10:57.383Z</time>
      </trkpt>
      <trkpt lat="50.24958738125861" lon="5.737523948773742">
        <ele>646.64</ele>
        <time>2021-07-27T13:10:59.837Z</time>
      </trkpt>
      <trkpt lat="50.249522840604186" lon="5.737631237134337">
        <ele>646.0</ele>
        <time>2021-07-27T13:11:02.293Z</time>
      </trkpt>
      <trkpt lat="50.24941555224359" lon="5.737717067822814">
        <ele>645.33</ele>
        <time>2021-07-27T13:11:04.751Z</time>
      </trkpt>
      <trkpt lat="50.249329721555114" lon="5.737738525494933">
        <ele>644.66</ele>
        <time>2021-07-27T13:11:07.210Z</time>
      </trkpt>
      <trkpt lat="50.249372720718384" lon="5.73786735534668">
        <ele>643.97</ele>
        <time>2021-07-27T13:11:09.671Z</time>
      </trkpt>
      <trkpt lat="50.24936190806329" lon="5.737953186035156">
        <ele>643.29</ele>
        <time>2021-07-27T13:11:12.132Z</time>
      </trkpt>
      <trkpt lat="50.249276077374816" lon="5.73810338973999">
        <ele>642.63</ele>
        <time>2021-07-27T13:11:14.596Z</time>
      </trkpt>
      <trkpt lat="50.24921178817749" lon="5.73831788264215">
        <ele>641.99</ele>
        <time>2021-07-27T13:11:17.062Z</time>
      </trkpt>
      <trkpt lat="50.24919033050537" lon="5.738414525985718">
        <ele>641.43</ele>
        <time>2021-07-27T13:11:19.529Z</time>
      </trkpt>
      <trkpt lat="50.24924397468567" lon="5.738435983657837">
        <ele>640.95</ele>
        <time>2021-07-27T13:11:21.997Z</time>
      </trkpt>
      <trkpt lat="50.249230647459626" lon="5.738549726083875">
        <ele>640.1</ele>
        <time>2021-07-27T13:11:24.466Z</time>
      </trkpt>
      <trkpt lat="50.249230647459626" lon="5.738550312817097">
        <ele>640.52</ele>
        <time>2021-07-27T13:11:26.935Z</time>
      </trkpt>
      <trkpt lat="50.24923047982156" lon="5.738552240654826">
        <ele>640.19</ele>
        <time>2021-07-27T13:11:29.404Z</time>
      </trkpt>
      <trkpt lat="50.24923047982156" lon="5.738552073016763">
        <ele>639.94</ele>
        <time>2021-07-27T13:11:31.873Z</time>
      </trkpt>
      <trkpt lat="50.24924397468567" lon="5.738435983657837">
        <ele>640.95</ele>
        <time>2021-07-27T13:11:34.343Z</time>
      </trkpt>
      <trkpt lat="50.24919033050537" lon="5.738414525985718">
        <ele>641.43</ele>
        <time>2021-07-27T13:11:36.814Z</time>
      </trkpt>
      <trkpt lat="50.24921178817749" lon="5.73831788264215">
        <ele>641.99</ele>
        <time>2021-07-27T13:11:39.286Z</time>
      </trkpt>
      <trkpt lat="50.249276077374816" lon="5.73810338973999">
        <ele>642.63</ele>
        <time>2021-07-27T13:11:41.761Z</time>
      </trkpt>
      <trkpt lat="50.24936190806329" lon="5.737953186035156">
        <ele>643.29</ele>
        <time>2021-07-27T13:11:44.238Z</time>
      </trkpt>
      <trkpt lat="50.249372804537416" lon="5.73786735534668">
        <ele>640.38</ele>
        <time>2021-07-27T13:11:46.716Z</time>
      </trkpt>
      <trkpt lat="50.249329721555114" lon="5.737738525494933">
        <ele>644.66</ele>
        <time>2021-07-27T13:11:49.195Z</time>
      </trkpt>
      <trkpt lat="50.2492546197027" lon="5.737706422805786">
        <ele>641.15</ele>
        <time>2021-07-27T13:11:51.675Z</time>
      </trkpt>
      <trkpt lat="50.24921178817749" lon="5.73755613528192">
        <ele>641.63</ele>
        <time>2021-07-27T13:11:54.157Z</time>
      </trkpt>
      <trkpt lat="50.24920105934143" lon="5.737406015396118">
        <ele>642.18</ele>
        <time>2021-07-27T13:11:56.641Z</time>
      </trkpt>
      <trkpt lat="50.24920105934143" lon="5.737191354855895">
        <ele>642.77</ele>
        <time>2021-07-27T13:11:59.127Z</time>
      </trkpt>
      <trkpt lat="50.24920105934143" lon="5.7363975048065186">
        <ele>643.44</ele>
        <time>2021-07-27T13:12:01.621Z</time>
      </trkpt>
      <trkpt lat="50.2491473313421" lon="5.735496282577515">
        <ele>644.29</ele>
        <time>2021-07-27T13:12:04.124Z</time>
      </trkpt>
      <trkpt lat="50.249082958325744" lon="5.734766721725464">
        <ele>645.1</ele>
        <time>2021-07-27T13:12:06.635Z</time>
      </trkpt>
      <trkpt lat="50.24894365109503" lon="5.733779668807983">
        <ele>645.8</ele>
        <time>2021-07-27T13:12:09.156Z</time>
      </trkpt>
      <trkpt lat="50.248857820406556" lon="5.733307516202331">
        <ele>646.39</ele>
        <time>2021-07-27T13:12:11.682Z</time>
      </trkpt>
      <trkpt lat="50.24877190589905" lon="5.73285698890686">
        <ele>646.95</ele>
        <time>2021-07-27T13:12:14.213Z</time>
      </trkpt>
      <trkpt lat="50.24864315986633" lon="5.732331275939941">
        <ele>647.47</ele>
        <time>2021-07-27T13:12:16.750Z</time>
      </trkpt>
      <trkpt lat="50.24853587150574" lon="5.731966411694884">
        <ele>647.94</ele>
        <time>2021-07-27T13:12:19.291Z</time>
      </trkpt>
      <trkpt lat="50.248364293947816" lon="5.731397783383727">
        <ele>648.31</ele>
        <time>2021-07-27T13:12:21.838Z</time>
      </trkpt>
      <trkpt lat="50.248267566785216" lon="5.73106518946588">
        <ele>648.7</ele>
        <time>2021-07-27T13:12:24.389Z</time>
      </trkpt>
      <trkpt lat="50.24819254875183" lon="5.730850612744689">
        <ele>649.06</ele>
        <time>2021-07-27T13:12:26.943Z</time>
      </trkpt>
      <trkpt lat="50.248052990064025" lon="5.730453729629517">
        <ele>649.31</ele>
        <time>2021-07-27T13:12:29.501Z</time>
      </trkpt>
      <trkpt lat="50.24787059985101" lon="5.730003118515015">
        <ele>649.47</ele>
        <time>2021-07-27T13:12:32.065Z</time>
      </trkpt>
      <trkpt lat="50.24752744473517" lon="5.729252016171813">
        <ele>649.51</ele>
        <time>2021-07-27T13:12:34.638Z</time>
      </trkpt>
      <trkpt lat="50.24734488688409" lon="5.728887235745788">
        <ele>649.46</ele>
        <time>2021-07-27T13:12:37.216Z</time>
      </trkpt>
      <trkpt lat="50.247173393145204" lon="5.7286083698272705">
        <ele>649.41</ele>
        <time>2021-07-27T13:12:39.798Z</time>
      </trkpt>
      <trkpt lat="50.24701237678528" lon="5.728340148925781">
        <ele>649.32</ele>
        <time>2021-07-27T13:12:42.384Z</time>
      </trkpt>
      <trkpt lat="50.24694800376892" lon="5.728275775909424">
        <ele>649.1</ele>
        <time>2021-07-27T13:12:44.971Z</time>
      </trkpt>
      <trkpt lat="50.246379375457764" lon="5.727331638336182">
        <ele>648.76</ele>
        <time>2021-07-27T13:12:47.571Z</time>
      </trkpt>
      <trkpt lat="50.246379459276795" lon="5.727331638336182">
        <ele>648.31</ele>
        <time>2021-07-27T13:12:50.171Z</time>
      </trkpt>
      <trkpt lat="50.243782913312316" lon="5.723050832748413">
        <ele>647.29</ele>
        <time>2021-07-27T13:12:52.832Z</time>
      </trkpt>
      <trkpt lat="50.24378299713135" lon="5.723050832748413">
        <ele>646.65</ele>
        <time>2021-07-27T13:12:55.493Z</time>
      </trkpt>
      <trkpt lat="50.240628803148866" lon="5.717815076932311">
        <ele>645.55</ele>
        <time>2021-07-27T13:12:58.228Z</time>
      </trkpt>
      <trkpt lat="50.23546915501356" lon="5.709306104108691">
        <ele>646.03</ele>
        <time>2021-07-27T13:13:01.083Z</time>
      </trkpt>
      <trkpt lat="50.23547644726932" lon="5.7093180902302265">
        <ele>645.39</ele>
        <time>2021-07-27T13:13:03.938Z</time>
      </trkpt>
      <trkpt lat="50.235483068972826" lon="5.7093289867043495">
        <ele>644.45</ele>
        <time>2021-07-27T13:13:06.793Z</time>
      </trkpt>
      <trkpt lat="50.23548290133476" lon="5.709328902885318">
        <ele>643.41</ele>
        <time>2021-07-27T13:13:09.648Z</time>
      </trkpt>
      <trkpt lat="50.234084045514464" lon="5.707021951675415">
        <ele>641.92</ele>
        <time>2021-07-27T13:13:12.536Z</time>
      </trkpt>
      <trkpt lat="50.2336763497442" lon="5.70634595118463">
        <ele>640.76</ele>
        <time>2021-07-27T13:13:15.433Z</time>
      </trkpt>
      <trkpt lat="50.232131564989686" lon="5.703835487365723">
        <ele>639.04</ele>
        <time>2021-07-27T13:13:18.366Z</time>
      </trkpt>
      <trkpt lat="50.23205646313727" lon="5.703728199005127">
        <ele>637.59</ele>
        <time>2021-07-27T13:13:21.301Z</time>
      </trkpt>
      <trkpt lat="50.23112288676202" lon="5.702161705121398">
        <ele>635.97</ele>
        <time>2021-07-27T13:13:24.258Z</time>
      </trkpt>
      <trkpt lat="50.231122970581055" lon="5.702161705121398">
        <ele>634.35</ele>
        <time>2021-07-27T13:13:27.215Z</time>
      </trkpt>
      <trkpt lat="50.227131843566895" lon="5.69562784396112">
        <ele>632.35</ele>
        <time>2021-07-27T13:13:30.264Z</time>
      </trkpt>
      <trkpt lat="50.226895809173584" lon="5.695155775174499">
        <ele>630.43</ele>
        <time>2021-07-27T13:13:33.320Z</time>
      </trkpt>
      <trkpt lat="50.22671333514154" lon="5.694683790206909">
        <ele>628.56</ele>
        <time>2021-07-27T13:13:36.381Z</time>
      </trkpt>
      <trkpt lat="50.22665969096124" lon="5.694469213485718">
        <ele>626.65</ele>
        <time>2021-07-27T13:13:39.445Z</time>
      </trkpt>
      <trkpt lat="50.22655257023871" lon="5.693986332044005">
        <ele>624.72</ele>
        <time>2021-07-27T13:13:42.514Z</time>
      </trkpt>
      <trkpt lat="50.22650957107544" lon="5.693685924634337">
        <ele>622.66</ele>
        <time>2021-07-27T13:13:45.586Z</time>
      </trkpt>
      <trkpt lat="50.22643438540399" lon="5.69287053309381">
        <ele>620.49</ele>
        <time>2021-07-27T13:13:48.667Z</time>
      </trkpt>
      <trkpt lat="50.2262734528631" lon="5.6905638333410025">
        <ele>618.0</ele>
        <time>2021-07-27T13:13:51.771Z</time>
      </trkpt>
      <trkpt lat="50.22627353668213" lon="5.6905638333410025">
        <ele>615.73</ele>
        <time>2021-07-27T13:13:54.875Z</time>
      </trkpt>
      <trkpt lat="50.22572636604309" lon="5.683053731918335">
        <ele>613.07</ele>
        <time>2021-07-27T13:13:58.057Z</time>
      </trkpt>
      <trkpt lat="50.2255654335022" lon="5.6809507962316275">
        <ele>610.64</ele>
        <time>2021-07-27T13:14:01.261Z</time>
      </trkpt>
      <trkpt lat="50.225543892011046" lon="5.680553913116455">
        <ele>608.17</ele>
        <time>2021-07-27T13:14:04.469Z</time>
      </trkpt>
      <trkpt lat="50.22520065307617" lon="5.675800954923034">
        <ele>605.15</ele>
        <time>2021-07-27T13:14:07.726Z</time>
      </trkpt>
      <trkpt lat="50.225147008895874" lon="5.675296783447266">
        <ele>602.61</ele>
        <time>2021-07-27T13:14:10.988Z</time>
      </trkpt>
      <trkpt lat="50.225071823224425" lon="5.674835443496704">
        <ele>600.11</ele>
        <time>2021-07-27T13:14:14.255Z</time>
      </trkpt>
      <trkpt lat="50.22487870417535" lon="5.674073696136475">
        <ele>597.7</ele>
        <time>2021-07-27T13:14:17.531Z</time>
      </trkpt>
      <trkpt lat="50.22468566894531" lon="5.673547983169556">
        <ele>595.27</ele>
        <time>2021-07-27T13:14:20.813Z</time>
      </trkpt>
      <trkpt lat="50.22454619407654" lon="5.673247575759888">
        <ele>592.76</ele>
        <time>2021-07-27T13:14:24.099Z</time>
      </trkpt>
      <trkpt lat="50.22424545139074" lon="5.672653550282121">
        <ele>591.46</ele>
        <time>2021-07-27T13:14:27.392Z</time>
      </trkpt>
      <trkpt lat="50.22424519993365" lon="5.672652963548899">
        <ele>590.17</ele>
        <time>2021-07-27T13:14:30.685Z</time>
      </trkpt>
      <trkpt lat="50.22424419410527" lon="5.6726509518921375">
        <ele>587.73</ele>
        <time>2021-07-27T13:14:33.978Z</time>
      </trkpt>
      <trkpt lat="50.224244110286236" lon="5.672650700435042">
        <ele>585.3</ele>
        <time>2021-07-27T13:14:37.271Z</time>
      </trkpt>
      <trkpt lat="50.221027135849" lon="5.666295206174254">
        <ele>582.28</ele>
        <time>2021-07-27T13:14:40.648Z</time>
      </trkpt>
      <trkpt lat="50.22102721966803" lon="5.666295206174254">
        <ele>579.92</ele>
        <time>2021-07-27T13:14:44.025Z</time>
      </trkpt>
      <trkpt lat="50.22003999911249" lon="5.664342558011413">
        <ele>577.5</ele>
        <time>2021-07-27T13:14:47.427Z</time>
      </trkpt>
      <trkpt lat="50.22004008293152" lon="5.664342558011413">
        <ele>575.23</ele>
        <time>2021-07-27T13:14:50.829Z</time>
      </trkpt>
      <trkpt lat="50.218355571851134" lon="5.661016618832946">
        <ele>572.7</ele>
        <time>2021-07-27T13:14:54.275Z</time>
      </trkpt>
      <trkpt lat="50.2183557394892" lon="5.661016618832946">
        <ele>570.56</ele>
        <time>2021-07-27T13:14:57.721Z</time>
      </trkpt>
      <trkpt lat="50.21718621253967" lon="5.658688545227051">
        <ele>568.72</ele>
        <time>2021-07-27T13:15:01.197Z</time>
      </trkpt>
      <trkpt lat="50.21696082316339" lon="5.6581950187683105">
        <ele>566.71</ele>
        <time>2021-07-27T13:15:04.679Z</time>
      </trkpt>
      <trkpt lat="50.21672487258911" lon="5.657540559768677">
        <ele>564.78</ele>
        <time>2021-07-27T13:15:08.169Z</time>
      </trkpt>
      <trkpt lat="50.21593085490167" lon="5.6543004512786865">
        <ele>562.41</ele>
        <time>2021-07-27T13:15:11.695Z</time>
      </trkpt>
      <trkpt lat="50.21558769978583" lon="5.652862787246704">
        <ele>560.24</ele>
        <time>2021-07-27T13:15:15.236Z</time>
      </trkpt>
      <trkpt lat="50.21384954452515" lon="5.645599281415343">
        <ele>558.29</ele>
        <time>2021-07-27T13:15:18.857Z</time>
      </trkpt>
      <trkpt lat="50.21383889950812" lon="5.645545637235045">
        <ele>556.79</ele>
        <time>2021-07-27T13:15:22.479Z</time>
      </trkpt>
      <trkpt lat="50.21333456039429" lon="5.6434213276952505">
        <ele>555.32</ele>
        <time>2021-07-27T13:15:26.124Z</time>
      </trkpt>
      <trkpt lat="50.212690914049745" lon="5.640749931335449">
        <ele>553.84</ele>
        <time>2021-07-27T13:15:29.798Z</time>
      </trkpt>
      <trkpt lat="50.21175742149353" lon="5.636887466534972">
        <ele>552.67</ele>
        <time>2021-07-27T13:15:33.515Z</time>
      </trkpt>
      <trkpt lat="50.21133899688721" lon="5.635127937421203">
        <ele>551.86</ele>
        <time>2021-07-27T13:15:37.251Z</time>
      </trkpt>
      <trkpt lat="50.21117806434631" lon="5.6344091054052114">
        <ele>550.97</ele>
        <time>2021-07-27T13:15:40.995Z</time>
      </trkpt>
      <trkpt lat="50.211392641067505" lon="5.634280359372497">
        <ele>550.2</ele>
        <time>2021-07-27T13:15:44.743Z</time>
      </trkpt>
      <trkpt lat="50.21154276095331" lon="5.634226715192199">
        <ele>549.57</ele>
        <time>2021-07-27T13:15:48.493Z</time>
      </trkpt>
      <trkpt lat="50.211843168362975" lon="5.634312629699707">
        <ele>549.03</ele>
        <time>2021-07-27T13:15:52.248Z</time>
      </trkpt>
      <trkpt lat="50.2127658482641" lon="5.634634410962462">
        <ele>548.68</ele>
        <time>2021-07-27T13:15:56.018Z</time>
      </trkpt>
      <trkpt lat="50.21300196647644" lon="5.634634410962462">
        <ele>548.32</ele>
        <time>2021-07-27T13:15:59.792Z</time>
      </trkpt>
      <trkpt lat="50.21332383155823" lon="5.634548580273986">
        <ele>547.98</ele>
        <time>2021-07-27T13:16:03.571Z</time>
      </trkpt>
      <trkpt lat="50.213613426312804" lon="5.634366190060973">
        <ele>547.71</ele>
        <time>2021-07-27T13:16:07.355Z</time>
      </trkpt>
      <trkpt lat="50.21726123057306" lon="5.631018877029419">
        <ele>547.15</ele>
        <time>2021-07-27T13:16:11.207Z</time>
      </trkpt>
      <trkpt lat="50.21781921386719" lon="5.6302571296691895">
        <ele>547.19</ele>
        <time>2021-07-27T13:16:15.071Z</time>
      </trkpt>
      <trkpt lat="50.21822690963745" lon="5.629784977063537">
        <ele>547.03</ele>
        <time>2021-07-27T13:16:18.943Z</time>
      </trkpt>
      <trkpt lat="50.21875253878534" lon="5.629355823621154">
        <ele>546.87</ele>
        <time>2021-07-27T13:16:22.824Z</time>
      </trkpt>
      <trkpt lat="50.21923542022705" lon="5.629012584686279">
        <ele>546.8</ele>
        <time>2021-07-27T13:16:26.714Z</time>
      </trkpt>
      <trkpt lat="50.21978267468512" lon="5.628143548965454">
        <ele>546.55</ele>
        <time>2021-07-27T13:16:30.616Z</time>
      </trkpt>
      <trkpt lat="50.21978259086609" lon="5.628143548965454">
        <ele>546.29</ele>
        <time>2021-07-27T13:16:34.518Z</time>
      </trkpt>
      <trkpt lat="50.219846963882446" lon="5.628036176785827">
        <ele>545.98</ele>
        <time>2021-07-27T13:16:38.422Z</time>
      </trkpt>
      <trkpt lat="50.22044777870178" lon="5.627081394195557">
        <ele>545.56</ele>
        <time>2021-07-27T13:16:42.340Z</time>
      </trkpt>
      <trkpt lat="50.2211772557348" lon="5.625922596082091">
        <ele>545.15</ele>
        <time>2021-07-27T13:16:46.274Z</time>
      </trkpt>
      <trkpt lat="50.22147766314447" lon="5.625321781262755">
        <ele>544.53</ele>
        <time>2021-07-27T13:16:50.216Z</time>
      </trkpt>
      <trkpt lat="50.221606492996216" lon="5.624935543164611">
        <ele>543.82</ele>
        <time>2021-07-27T13:16:54.163Z</time>
      </trkpt>
      <trkpt lat="50.221842527389526" lon="5.624409914016724">
        <ele>542.88</ele>
        <time>2021-07-27T13:16:58.116Z</time>
      </trkpt>
      <trkpt lat="50.22228240966797" lon="5.623841285705566">
        <ele>542.1</ele>
        <time>2021-07-27T13:17:02.078Z</time>
      </trkpt>
      <trkpt lat="50.22270075045526" lon="5.623476505279541">
        <ele>540.76</ele>
        <time>2021-07-27T13:17:06.048Z</time>
      </trkpt>
      <trkpt lat="50.22279747761786" lon="5.623412048444152">
        <ele>539.48</ele>
        <time>2021-07-27T13:17:10.020Z</time>
      </trkpt>
      <trkpt lat="50.22279739379883" lon="5.623412048444152">
        <ele>538.21</ele>
        <time>2021-07-27T13:17:13.992Z</time>
      </trkpt>
      <trkpt lat="50.22299059666693" lon="5.623304760083556">
        <ele>536.68</ele>
        <time>2021-07-27T13:17:17.967Z</time>
      </trkpt>
      <trkpt lat="50.223151445388794" lon="5.623208284378052">
        <ele>535.23</ele>
        <time>2021-07-27T13:17:21.945Z</time>
      </trkpt>
      <trkpt lat="50.22347322665155" lon="5.623122453689575">
        <ele>533.55</ele>
        <time>2021-07-27T13:17:25.928Z</time>
      </trkpt>
      <trkpt lat="50.22379509173334" lon="5.623143827542663">
        <ele>531.63</ele>
        <time>2021-07-27T13:17:29.916Z</time>
      </trkpt>
      <trkpt lat="50.224181497469544" lon="5.623251115903258">
        <ele>529.76</ele>
        <time>2021-07-27T13:17:33.911Z</time>
      </trkpt>
      <trkpt lat="50.2245569229126" lon="5.623229658231139">
        <ele>527.89</ele>
        <time>2021-07-27T13:17:37.912Z</time>
      </trkpt>
      <trkpt lat="50.224556839093566" lon="5.623229658231139">
        <ele>525.91</ele>
        <time>2021-07-27T13:17:41.913Z</time>
      </trkpt>
      <trkpt lat="50.2249538898468" lon="5.623100996017456">
        <ele>523.8</ele>
        <time>2021-07-27T13:17:45.920Z</time>
      </trkpt>
      <trkpt lat="50.2252649422735" lon="5.623079538345337">
        <ele>521.56</ele>
        <time>2021-07-27T13:17:49.932Z</time>
      </trkpt>
      <trkpt lat="50.22559770382941" lon="5.623186826705933">
        <ele>519.16</ele>
        <time>2021-07-27T13:17:53.949Z</time>
      </trkpt>
      <trkpt lat="50.226327097043395" lon="5.623530149459839">
        <ele>516.56</ele>
        <time>2021-07-27T13:17:57.979Z</time>
      </trkpt>
      <trkpt lat="50.22679924964905" lon="5.623905574902892">
        <ele>514.15</ele>
        <time>2021-07-27T13:18:02.017Z</time>
      </trkpt>
      <trkpt lat="50.227153301239014" lon="5.624066507443786">
        <ele>511.85</ele>
        <time>2021-07-27T13:18:06.061Z</time>
      </trkpt>
      <trkpt lat="50.22765755653381" lon="5.6241201516240835">
        <ele>509.57</ele>
        <time>2021-07-27T13:18:10.113Z</time>
      </trkpt>
      <trkpt lat="50.2279794216156" lon="5.624152338132262">
        <ele>507.24</ele>
        <time>2021-07-27T13:18:14.170Z</time>
      </trkpt>
      <trkpt lat="50.2290415763855" lon="5.624302625656128">
        <ele>504.76</ele>
        <time>2021-07-27T13:18:18.244Z</time>
      </trkpt>
      <trkpt lat="50.229899967089295" lon="5.62445274554193">
        <ele>502.7</ele>
        <time>2021-07-27T13:18:22.332Z</time>
      </trkpt>
      <trkpt lat="50.2302538510412" lon="5.624517202377319">
        <ele>500.77</ele>
        <time>2021-07-27T13:18:26.426Z</time>
      </trkpt>
      <trkpt lat="50.231852447614074" lon="5.624871253967285">
        <ele>498.7</ele>
        <time>2021-07-27T13:18:30.546Z</time>
      </trkpt>
      <trkpt lat="50.23193827830255" lon="5.6248390674591064">
        <ele>496.96</ele>
        <time>2021-07-27T13:18:34.667Z</time>
      </trkpt>
      <trkpt lat="50.23219585418701" lon="5.624592304229736">
        <ele>495.32</ele>
        <time>2021-07-27T13:18:38.793Z</time>
      </trkpt>
      <trkpt lat="50.2324640750885" lon="5.624313270673156">
        <ele>493.75</ele>
        <time>2021-07-27T13:18:42.924Z</time>
      </trkpt>
      <trkpt lat="50.23253926075995" lon="5.624184608459473">
        <ele>492.3</ele>
        <time>2021-07-27T13:18:47.057Z</time>
      </trkpt>
      <trkpt lat="50.2326141949743" lon="5.62395921908319">
        <ele>490.91</ele>
        <time>2021-07-27T13:18:51.193Z</time>
      </trkpt>
      <trkpt lat="50.232646465301514" lon="5.623744642361999">
        <ele>489.61</ele>
        <time>2021-07-27T13:18:55.331Z</time>
      </trkpt>
      <trkpt lat="50.23294678889215" lon="5.622510826215148">
        <ele>488.43</ele>
        <time>2021-07-27T13:18:59.482Z</time>
      </trkpt>
      <trkpt lat="50.23300043307245" lon="5.622360706329346">
        <ele>487.34</ele>
        <time>2021-07-27T13:19:03.635Z</time>
      </trkpt>
      <trkpt lat="50.23306488990784" lon="5.622242605313659">
        <ele>486.33</ele>
        <time>2021-07-27T13:19:07.790Z</time>
      </trkpt>
      <trkpt lat="50.233343839645386" lon="5.621931552886963">
        <ele>485.4</ele>
        <time>2021-07-27T13:19:11.950Z</time>
      </trkpt>
      <trkpt lat="50.233536874875426" lon="5.621802723035216">
        <ele>484.46</ele>
        <time>2021-07-27T13:19:16.114Z</time>
      </trkpt>
      <trkpt lat="50.23369789123535" lon="5.621781265363097">
        <ele>483.5</ele>
        <time>2021-07-27T13:19:20.280Z</time>
      </trkpt>
      <trkpt lat="50.23404129780829" lon="5.621856367215514">
        <ele>482.53</ele>
        <time>2021-07-27T13:19:24.452Z</time>
      </trkpt>
      <trkpt lat="50.23444899357855" lon="5.6219743844121695">
        <ele>481.56</ele>
        <time>2021-07-27T13:19:28.630Z</time>
      </trkpt>
      <trkpt lat="50.23452401161194" lon="5.622028028592467">
        <ele>480.58</ele>
        <time>2021-07-27T13:19:32.810Z</time>
      </trkpt>
      <trkpt lat="50.23480296134949" lon="5.622156774625182">
        <ele>479.43</ele>
        <time>2021-07-27T13:19:36.994Z</time>
      </trkpt>
      <trkpt lat="50.23501762188971" lon="5.622124671936035">
        <ele>478.35</ele>
        <time>2021-07-27T13:19:41.182Z</time>
      </trkpt>
      <trkpt lat="50.23547879420221" lon="5.6219743844121695">
        <ele>477.38</ele>
        <time>2021-07-27T13:19:45.377Z</time>
      </trkpt>
      <trkpt lat="50.235875844955444" lon="5.621770620346069">
        <ele>476.18</ele>
        <time>2021-07-27T13:19:49.579Z</time>
      </trkpt>
      <trkpt lat="50.23619779385626" lon="5.621470212936401">
        <ele>474.94</ele>
        <time>2021-07-27T13:19:53.787Z</time>
      </trkpt>
      <trkpt lat="50.2365517616272" lon="5.621126806363463">
        <ele>473.69</ele>
        <time>2021-07-27T13:19:58.002Z</time>
      </trkpt>
      <trkpt lat="50.23686281405389" lon="5.6207191105932">
        <ele>472.45</ele>
        <time>2021-07-27T13:20:02.223Z</time>
      </trkpt>
      <trkpt lat="50.23746362887323" lon="5.620054006576538">
        <ele>470.7</ele>
        <time>2021-07-27T13:20:06.456Z</time>
      </trkpt>
      <trkpt lat="50.238107442855835" lon="5.619034683331847">
        <ele>469.17</ele>
        <time>2021-07-27T13:20:10.704Z</time>
      </trkpt>
      <trkpt lat="50.23811808787286" lon="5.6190024968236685">
        <ele>467.66</ele>
        <time>2021-07-27T13:20:14.952Z</time>
      </trkpt>
      <trkpt lat="50.238118171691895" lon="5.6190024968236685">
        <ele>466.03</ele>
        <time>2021-07-27T13:20:19.200Z</time>
      </trkpt>
      <trkpt lat="50.2385687828064" lon="5.618283748626709">
        <ele>464.4</ele>
        <time>2021-07-27T13:20:23.459Z</time>
      </trkpt>
      <trkpt lat="50.23895493708551" lon="5.617607748135924">
        <ele>462.59</ele>
        <time>2021-07-27T13:20:27.727Z</time>
      </trkpt>
      <trkpt lat="50.23912659846246" lon="5.6171785946935415">
        <ele>460.74</ele>
        <time>2021-07-27T13:20:32.000Z</time>
      </trkpt>
      <trkpt lat="50.23950210772455" lon="5.616116439923644">
        <ele>458.36</ele>
        <time>2021-07-27T13:20:36.285Z</time>
      </trkpt>
      <trkpt lat="50.2396737691015" lon="5.615783846005797">
        <ele>456.16</ele>
        <time>2021-07-27T13:20:40.575Z</time>
      </trkpt>
      <trkpt lat="50.24014592170715" lon="5.615022098645568">
        <ele>453.94</ele>
        <time>2021-07-27T13:20:44.876Z</time>
      </trkpt>
      <trkpt lat="50.24066090583801" lon="5.614099418744445">
        <ele>451.35</ele>
        <time>2021-07-27T13:20:49.189Z</time>
      </trkpt>
      <trkpt lat="50.240789568051696" lon="5.613809823989868">
        <ele>448.97</ele>
        <time>2021-07-27T13:20:53.506Z</time>
      </trkpt>
      <trkpt lat="50.24091831408441" lon="5.613359212875366">
        <ele>446.58</ele>
        <time>2021-07-27T13:20:57.828Z</time>
      </trkpt>
      <trkpt lat="50.241057788953185" lon="5.612769043073058">
        <ele>444.25</ele>
        <time>2021-07-27T13:21:02.156Z</time>
      </trkpt>
      <trkpt lat="50.241347551345825" lon="5.610827207565308">
        <ele>441.8</ele>
        <time>2021-07-27T13:21:06.505Z</time>
      </trkpt>
      <trkpt lat="50.24168006144464" lon="5.60850977897644">
        <ele>438.64</ele>
        <time>2021-07-27T13:21:10.878Z</time>
      </trkpt>
      <trkpt lat="50.24170160293579" lon="5.608059084042907">
        <ele>436.22</ele>
        <time>2021-07-27T13:21:15.256Z</time>
      </trkpt>
      <trkpt lat="50.24168006144464" lon="5.6074904557317495">
        <ele>433.88</ele>
        <time>2021-07-27T13:21:19.640Z</time>
      </trkpt>
      <trkpt lat="50.241583585739136" lon="5.606996929273009">
        <ele>431.5</ele>
        <time>2021-07-27T13:21:24.029Z</time>
      </trkpt>
      <trkpt lat="50.24149783886969" lon="5.6066858768463135">
        <ele>429.2</ele>
        <time>2021-07-27T13:21:28.422Z</time>
      </trkpt>
      <trkpt lat="50.24135819636285" lon="5.606374656781554">
        <ele>426.95</ele>
        <time>2021-07-27T13:21:32.819Z</time>
      </trkpt>
      <trkpt lat="50.24116507731378" lon="5.6060850620269775">
        <ele>424.85</ele>
        <time>2021-07-27T13:21:37.220Z</time>
      </trkpt>
      <trkpt lat="50.24099349975586" lon="5.605838298797607">
        <ele>422.68</ele>
        <time>2021-07-27T13:21:41.625Z</time>
      </trkpt>
      <trkpt lat="50.23993134498596" lon="5.604711687192321">
        <ele>420.33</ele>
        <time>2021-07-27T13:21:46.050Z</time>
      </trkpt>
      <trkpt lat="50.239877700805664" lon="5.6045615673065186">
        <ele>418.29</ele>
        <time>2021-07-27T13:21:50.477Z</time>
      </trkpt>
      <trkpt lat="50.23985615931451" lon="5.604411279782653">
        <ele>416.26</ele>
        <time>2021-07-27T13:21:54.905Z</time>
      </trkpt>
      <trkpt lat="50.239866971969604" lon="5.604346990585327">
        <ele>414.25</ele>
        <time>2021-07-27T13:21:59.334Z</time>
      </trkpt>
      <trkpt lat="50.23990980349481" lon="5.604218160733581">
        <ele>412.27</ele>
        <time>2021-07-27T13:22:03.765Z</time>
      </trkpt>
      <trkpt lat="50.23996353149414" lon="5.604175329208374">
        <ele>410.25</ele>
        <time>2021-07-27T13:22:08.197Z</time>
      </trkpt>
      <trkpt lat="50.24000644683838" lon="5.604143058881164">
        <ele>408.24</ele>
        <time>2021-07-27T13:22:12.629Z</time>
      </trkpt>
      <trkpt lat="50.240081464871764" lon="5.604143058881164">
        <ele>406.16</ele>
        <time>2021-07-27T13:22:17.063Z</time>
      </trkpt>
      <trkpt lat="50.24095050059259" lon="5.604422092437744">
        <ele>403.83</ele>
        <time>2021-07-27T13:22:21.511Z</time>
      </trkpt>
      <trkpt lat="50.24227023124695" lon="5.605140840634704">
        <ele>401.37</ele>
        <time>2021-07-27T13:22:25.981Z</time>
      </trkpt>
      <trkpt lat="50.24250618182123" lon="5.605248128995299">
        <ele>399.25</ele>
        <time>2021-07-27T13:22:30.455Z</time>
      </trkpt>
      <trkpt lat="50.24295687675476" lon="5.605398416519165">
        <ele>396.93</ele>
        <time>2021-07-27T13:22:34.936Z</time>
      </trkpt>
      <trkpt lat="50.24337521754205" lon="5.6054948922246695">
        <ele>394.43</ele>
        <time>2021-07-27T13:22:39.424Z</time>
      </trkpt>
      <trkpt lat="50.24393320083618" lon="5.605655824765563">
        <ele>392.14</ele>
        <time>2021-07-27T13:22:43.921Z</time>
      </trkpt>
      <trkpt lat="50.24414777755737" lon="5.605688011273742">
        <ele>390.02</ele>
        <time>2021-07-27T13:22:48.422Z</time>
      </trkpt>
      <trkpt lat="50.24438372813165" lon="5.605612909421325">
        <ele>387.89</ele>
        <time>2021-07-27T13:22:52.927Z</time>
      </trkpt>
      <trkpt lat="50.24451247416437" lon="5.6055378913879395">
        <ele>385.73</ele>
        <time>2021-07-27T13:22:57.434Z</time>
      </trkpt>
      <trkpt lat="50.24463049136102" lon="5.605409145355225">
        <ele>383.61</ele>
        <time>2021-07-27T13:23:01.943Z</time>
      </trkpt>
      <trkpt lat="50.24475923739374" lon="5.6052374839782715">
        <ele>381.51</ele>
        <time>2021-07-27T13:23:06.455Z</time>
      </trkpt>
      <trkpt lat="50.244877338409424" lon="5.604990720748901">
        <ele>379.44</ele>
        <time>2021-07-27T13:23:10.970Z</time>
      </trkpt>
      <trkpt lat="50.245563983917236" lon="5.603199005126953">
        <ele>377.21</ele>
        <time>2021-07-27T13:23:15.506Z</time>
      </trkpt>
      <trkpt lat="50.24577856063843" lon="5.602716123685241">
        <ele>375.24</ele>
        <time>2021-07-27T13:23:20.049Z</time>
      </trkpt>
      <trkpt lat="50.24599313735962" lon="5.602297782897949">
        <ele>373.23</ele>
        <time>2021-07-27T13:23:24.597Z</time>
      </trkpt>
      <trkpt lat="50.24734488688409" lon="5.6005488988012075">
        <ele>370.82</ele>
        <time>2021-07-27T13:23:29.173Z</time>
      </trkpt>
      <trkpt lat="50.247581005096436" lon="5.600312948226929">
        <ele>368.87</ele>
        <time>2021-07-27T13:23:33.754Z</time>
      </trkpt>
      <trkpt lat="50.24796715937555" lon="5.6000017281621695">
        <ele>366.89</ele>
        <time>2021-07-27T13:23:38.342Z</time>
      </trkpt>
      <trkpt lat="50.24796724319458" lon="5.6000017281621695">
        <ele>365.05</ele>
        <time>2021-07-27T13:23:42.930Z</time>
      </trkpt>
      <trkpt lat="50.24814787320793" lon="5.599832497537136">
        <ele>364.14</ele>
        <time>2021-07-27T13:23:47.521Z</time>
      </trkpt>
      <trkpt lat="50.2481491304934" lon="5.599831407889724">
        <ele>363.25</ele>
        <time>2021-07-27T13:23:52.112Z</time>
      </trkpt>
      <trkpt lat="50.24815156124532" lon="5.599829228594899">
        <ele>361.49</ele>
        <time>2021-07-27T13:23:56.703Z</time>
      </trkpt>
      <trkpt lat="50.248151645064354" lon="5.599829228594899">
        <ele>359.76</ele>
        <time>2021-07-27T13:24:01.294Z</time>
      </trkpt>
      <trkpt lat="50.24846068583429" lon="5.599540388211608">
        <ele>357.99</ele>
        <time>2021-07-27T13:24:05.891Z</time>
      </trkpt>
      <trkpt lat="50.2488899230957" lon="5.599207794293761">
        <ele>356.15</ele>
        <time>2021-07-27T13:24:10.496Z</time>
      </trkpt>
      <trkpt lat="50.2500057220459" lon="5.598016893491149">
        <ele>354.42</ele>
        <time>2021-07-27T13:24:15.122Z</time>
      </trkpt>
      <trkpt lat="50.25176525115967" lon="5.596815263852477">
        <ele>352.54</ele>
        <time>2021-07-27T13:24:19.779Z</time>
      </trkpt>
      <trkpt lat="50.2519154548645" lon="5.5967724323272705">
        <ele>351.06</ele>
        <time>2021-07-27T13:24:24.438Z</time>
      </trkpt>
      <trkpt lat="50.252355337142944" lon="5.5964720249176025">
        <ele>349.58</ele>
        <time>2021-07-27T13:24:29.105Z</time>
      </trkpt>
      <trkpt lat="50.25246254168451" lon="5.596407568082213">
        <ele>348.22</ele>
        <time>2021-07-27T13:24:33.774Z</time>
      </trkpt>
      <trkpt lat="50.25290242396295" lon="5.596214449033141">
        <ele>347.04</ele>
        <time>2021-07-27T13:24:38.450Z</time>
      </trkpt>
      <trkpt lat="50.25361052714288" lon="5.595967685803771">
        <ele>345.91</ele>
        <time>2021-07-27T13:24:43.138Z</time>
      </trkpt>
      <trkpt lat="50.25388956069946" lon="5.5959248542785645">
        <ele>344.6</ele>
        <time>2021-07-27T13:24:47.830Z</time>
      </trkpt>
      <trkpt lat="50.2546404954046" lon="5.595978498458862">
        <ele>343.45</ele>
        <time>2021-07-27T13:24:52.534Z</time>
      </trkpt>
      <trkpt lat="50.25543451309204" lon="5.59598914347589">
        <ele>342.0</ele>
        <time>2021-07-27T13:24:57.251Z</time>
      </trkpt>
      <trkpt lat="50.256110429763794" lon="5.59599987231195">
        <ele>340.9</ele>
        <time>2021-07-27T13:25:01.979Z</time>
      </trkpt>
      <trkpt lat="50.256282007321715" lon="5.595914041623473">
        <ele>340.11</ele>
        <time>2021-07-27T13:25:06.710Z</time>
      </trkpt>
      <trkpt lat="50.25646439753473" lon="5.595742464065552">
        <ele>339.45</ele>
        <time>2021-07-27T13:25:11.444Z</time>
      </trkpt>
      <trkpt lat="50.25658241473138" lon="5.595538532361388">
        <ele>338.85</ele>
        <time>2021-07-27T13:25:16.181Z</time>
      </trkpt>
      <trkpt lat="50.25666832923889" lon="5.595302581787109">
        <ele>338.29</ele>
        <time>2021-07-27T13:25:20.921Z</time>
      </trkpt>
      <trkpt lat="50.25670051574707" lon="5.59499136172235">
        <ele>337.79</ele>
        <time>2021-07-27T13:25:25.664Z</time>
      </trkpt>
      <trkpt lat="50.25672197341919" lon="5.594122326001525">
        <ele>337.43</ele>
        <time>2021-07-27T13:25:30.416Z</time>
      </trkpt>
      <trkpt lat="50.25663605891168" lon="5.59199801646173">
        <ele>336.74</ele>
        <time>2021-07-27T13:25:35.190Z</time>
      </trkpt>
      <trkpt lat="50.2566575165838" lon="5.59175125323236">
        <ele>336.29</ele>
        <time>2021-07-27T13:25:39.966Z</time>
      </trkpt>
      <trkpt lat="50.2567111607641" lon="5.59154748916626">
        <ele>335.9</ele>
        <time>2021-07-27T13:25:44.745Z</time>
      </trkpt>
      <trkpt lat="50.25671124458313" lon="5.59154748916626">
        <ele>335.48</ele>
        <time>2021-07-27T13:25:49.524Z</time>
      </trkpt>
      <trkpt lat="50.25674334727228" lon="5.591450845822692">
        <ele>335.07</ele>
        <time>2021-07-27T13:25:54.304Z</time>
      </trkpt>
      <trkpt lat="50.25716185569763" lon="5.590667724609375">
        <ele>334.6</ele>
        <time>2021-07-27T13:25:59.094Z</time>
      </trkpt>
      <trkpt lat="50.25723687373102" lon="5.590485334396362">
        <ele>334.13</ele>
        <time>2021-07-27T13:26:03.886Z</time>
      </trkpt>
      <trkpt lat="50.25733343325555" lon="5.590238571166992">
        <ele>333.63</ele>
        <time>2021-07-27T13:26:08.681Z</time>
      </trkpt>
      <trkpt lat="50.25749444961548" lon="5.589573299512267">
        <ele>333.02</ele>
        <time>2021-07-27T13:26:13.484Z</time>
      </trkpt>
      <trkpt lat="50.25788060389459" lon="5.587266683578491">
        <ele>332.18</ele>
        <time>2021-07-27T13:26:18.311Z</time>
      </trkpt>
      <trkpt lat="50.258063077926636" lon="5.585614442825317">
        <ele>331.66</ele>
        <time>2021-07-27T13:26:23.155Z</time>
      </trkpt>
      <trkpt lat="50.25814890861511" lon="5.585120916366577">
        <ele>331.15</ele>
        <time>2021-07-27T13:26:28.005Z</time>
      </trkpt>
      <trkpt lat="50.2584171295166" lon="5.584047948941588">
        <ele>330.44</ele>
        <time>2021-07-27T13:26:32.867Z</time>
      </trkpt>
      <trkpt lat="50.25903940200806" lon="5.58179497718811">
        <ele>330.21</ele>
        <time>2021-07-27T13:26:37.754Z</time>
      </trkpt>
      <trkpt lat="50.25918952189386" lon="5.581419467926025">
        <ele>329.58</ele>
        <time>2021-07-27T13:26:42.645Z</time>
      </trkpt>
      <trkpt lat="50.259318351745605" lon="5.581151163205504">
        <ele>328.88</ele>
        <time>2021-07-27T13:26:47.540Z</time>
      </trkpt>
      <trkpt lat="50.259565031155944" lon="5.580722009763122">
        <ele>328.02</ele>
        <time>2021-07-27T13:26:52.441Z</time>
      </trkpt>
      <trkpt lat="50.26050925254822" lon="5.579284345731139">
        <ele>326.68</ele>
        <time>2021-07-27T13:26:57.363Z</time>
      </trkpt>
      <trkpt lat="50.26068091392517" lon="5.5789517518132925">
        <ele>325.69</ele>
        <time>2021-07-27T13:27:02.289Z</time>
      </trkpt>
      <trkpt lat="50.26088467799127" lon="5.578415393829346">
        <ele>324.62</ele>
        <time>2021-07-27T13:27:07.222Z</time>
      </trkpt>
      <trkpt lat="50.26097059249878" lon="5.578243648633361">
        <ele>323.61</ele>
        <time>2021-07-27T13:27:12.157Z</time>
      </trkpt>
      <trkpt lat="50.261045610532165" lon="5.578125715255737">
        <ele>322.6</ele>
        <time>2021-07-27T13:27:17.093Z</time>
      </trkpt>
      <trkpt lat="50.26118516921997" lon="5.577986240386963">
        <ele>321.59</ele>
        <time>2021-07-27T13:27:22.032Z</time>
      </trkpt>
      <trkpt lat="50.261281644925475" lon="5.577911054715514">
        <ele>320.57</ele>
        <time>2021-07-27T13:27:26.973Z</time>
      </trkpt>
      <trkpt lat="50.26167869567871" lon="5.5777286645025015">
        <ele>319.5</ele>
        <time>2021-07-27T13:27:31.921Z</time>
      </trkpt>
      <trkpt lat="50.261775171384215" lon="5.577632188796997">
        <ele>318.38</ele>
        <time>2021-07-27T13:27:36.870Z</time>
      </trkpt>
      <trkpt lat="50.26186100207269" lon="5.5775033589452505">
        <ele>317.23</ele>
        <time>2021-07-27T13:27:41.821Z</time>
      </trkpt>
      <trkpt lat="50.26225805282593" lon="5.576559221372008">
        <ele>316.24</ele>
        <time>2021-07-27T13:27:46.784Z</time>
      </trkpt>
      <trkpt lat="50.26248327456415" lon="5.575990676879883">
        <ele>315.07</ele>
        <time>2021-07-27T13:27:51.754Z</time>
      </trkpt>
      <trkpt lat="50.263277208432555" lon="5.572900688275695">
        <ele>313.67</ele>
        <time>2021-07-27T13:27:56.758Z</time>
      </trkpt>
      <trkpt lat="50.26395320892334" lon="5.570175647735596">
        <ele>312.13</ele>
        <time>2021-07-27T13:28:01.792Z</time>
      </trkpt>
      <trkpt lat="50.264060497283936" lon="5.569767951965332">
        <ele>310.91</ele>
        <time>2021-07-27T13:28:06.830Z</time>
      </trkpt>
      <trkpt lat="50.26433936320245" lon="5.568662798032165">
        <ele>309.6</ele>
        <time>2021-07-27T13:28:11.881Z</time>
      </trkpt>
      <trkpt lat="50.26443600654602" lon="5.568362390622497">
        <ele>308.35</ele>
        <time>2021-07-27T13:28:16.935Z</time>
      </trkpt>
      <trkpt lat="50.264543294906616" lon="5.568083440884948">
        <ele>307.1</ele>
        <time>2021-07-27T13:28:21.992Z</time>
      </trkpt>
      <trkpt lat="50.26477932929993" lon="5.567622100934386">
        <ele>305.81</ele>
        <time>2021-07-27T13:28:27.055Z</time>
      </trkpt>
      <trkpt lat="50.265015279874206" lon="5.56726804934442">
        <ele>304.62</ele>
        <time>2021-07-27T13:28:32.124Z</time>
      </trkpt>
      <trkpt lat="50.26527285575867" lon="5.566849708557129">
        <ele>303.38</ele>
        <time>2021-07-27T13:28:37.199Z</time>
      </trkpt>
      <trkpt lat="50.26538014411926" lon="5.566559946164489">
        <ele>302.25</ele>
        <time>2021-07-27T13:28:42.277Z</time>
      </trkpt>
      <trkpt lat="50.26543378829956" lon="5.566377555951476">
        <ele>301.26</ele>
        <time>2021-07-27T13:28:47.357Z</time>
      </trkpt>
      <trkpt lat="50.26545524597168" lon="5.566238081082702">
        <ele>300.35</ele>
        <time>2021-07-27T13:28:52.439Z</time>
      </trkpt>
      <trkpt lat="50.26571273803711" lon="5.564993619918823">
        <ele>299.32</ele>
        <time>2021-07-27T13:28:57.534Z</time>
      </trkpt>
      <trkpt lat="50.26571282185614" lon="5.564993619918823">
        <ele>298.56</ele>
        <time>2021-07-27T13:29:02.629Z</time>
      </trkpt>
      <trkpt lat="50.265873670578" lon="5.564188873395324">
        <ele>297.75</ele>
        <time>2021-07-27T13:29:07.733Z</time>
      </trkpt>
      <trkpt lat="50.26590585708618" lon="5.563952839002013">
        <ele>297.15</ele>
        <time>2021-07-27T13:29:12.839Z</time>
      </trkpt>
      <trkpt lat="50.266088247299194" lon="5.561925172805786">
        <ele>296.76</ele>
        <time>2021-07-27T13:29:17.966Z</time>
      </trkpt>
      <trkpt lat="50.26614189147949" lon="5.561753511428833">
        <ele>296.3</ele>
        <time>2021-07-27T13:29:23.095Z</time>
      </trkpt>
      <trkpt lat="50.26623845100403" lon="5.561635410413146">
        <ele>295.88</ele>
        <time>2021-07-27T13:29:28.226Z</time>
      </trkpt>
      <trkpt lat="50.266581773757935" lon="5.561560392379761">
        <ele>295.51</ele>
        <time>2021-07-27T13:29:33.363Z</time>
      </trkpt>
      <trkpt lat="50.26666760444641" lon="5.561538934707642">
        <ele>295.27</ele>
        <time>2021-07-27T13:29:38.501Z</time>
      </trkpt>
      <trkpt lat="50.26673189364374" lon="5.561495935544372">
        <ele>295.11</ele>
        <time>2021-07-27T13:29:43.640Z</time>
      </trkpt>
      <trkpt lat="50.266828536987305" lon="5.561356460675597">
        <ele>295.0</ele>
        <time>2021-07-27T13:29:48.781Z</time>
      </trkpt>
      <trkpt lat="50.26694647036493" lon="5.561099052429199">
        <ele>294.96</ele>
        <time>2021-07-27T13:29:53.926Z</time>
      </trkpt>
      <trkpt lat="50.26713967323303" lon="5.560412323102355">
        <ele>295.01</ele>
        <time>2021-07-27T13:29:59.078Z</time>
      </trkpt>
      <trkpt lat="50.267300521954894" lon="5.559886610135436">
        <ele>295.12</ele>
        <time>2021-07-27T13:30:04.236Z</time>
      </trkpt>
      <trkpt lat="50.267375791445374" lon="5.559736490249634">
        <ele>295.21</ele>
        <time>2021-07-27T13:30:09.396Z</time>
      </trkpt>
      <trkpt lat="50.26774048805237" lon="5.55904976092279">
        <ele>295.38</ele>
        <time>2021-07-27T13:30:14.565Z</time>
      </trkpt>
      <trkpt lat="50.26777275837958" lon="5.558985471725464">
        <ele>295.52</ele>
        <time>2021-07-27T13:30:19.735Z</time>
      </trkpt>
      <trkpt lat="50.26791214942932" lon="5.558738708496094">
        <ele>295.78</ele>
        <time>2021-07-27T13:30:24.909Z</time>
      </trkpt>
      <trkpt lat="50.26811591349542" lon="5.558395301923156">
        <ele>295.99</ele>
        <time>2021-07-27T13:30:30.087Z</time>
      </trkpt>
      <trkpt lat="50.26842704974115" lon="5.557976961135864">
        <ele>296.03</ele>
        <time>2021-07-27T13:30:35.272Z</time>
      </trkpt>
      <trkpt lat="50.26842721737921" lon="5.557976961135864">
        <ele>296.12</ele>
        <time>2021-07-27T13:30:40.457Z</time>
      </trkpt>
      <trkpt lat="50.26864162646234" lon="5.557676553726196">
        <ele>296.17</ele>
        <time>2021-07-27T13:30:45.647Z</time>
      </trkpt>
      <trkpt lat="50.268995678052306" lon="5.5570971965789795">
        <ele>296.03</ele>
        <time>2021-07-27T13:30:50.845Z</time>
      </trkpt>
      <trkpt lat="50.269242441281676" lon="5.556464111432433">
        <ele>296.08</ele>
        <time>2021-07-27T13:30:56.050Z</time>
      </trkpt>
      <trkpt lat="50.26934972964227" lon="5.55630317889154">
        <ele>295.96</ele>
        <time>2021-07-27T13:31:01.258Z</time>
      </trkpt>
      <trkpt lat="50.26958576403558" lon="5.555959939956665">
        <ele>295.81</ele>
        <time>2021-07-27T13:31:06.471Z</time>
      </trkpt>
      <trkpt lat="50.270036458969116" lon="5.555219650268555">
        <ele>295.69</ele>
        <time>2021-07-27T13:31:11.694Z</time>
      </trkpt>
      <trkpt lat="50.27012228965759" lon="5.555101549252868">
        <ele>295.51</ele>
        <time>2021-07-27T13:31:16.919Z</time>
      </trkpt>
      <trkpt lat="50.27048707008362" lon="5.5547261238098145">
        <ele>295.38</ele>
        <time>2021-07-27T13:31:22.151Z</time>
      </trkpt>
      <trkpt lat="50.27118444442749" lon="5.553771173581481">
        <ele>295.08</ele>
        <time>2021-07-27T13:31:27.398Z</time>
      </trkpt>
      <trkpt lat="50.27184954844415" lon="5.5528271198272705">
        <ele>294.31</ele>
        <time>2021-07-27T13:31:32.660Z</time>
      </trkpt>
      <trkpt lat="50.27224659919739" lon="5.552076017484069">
        <ele>293.86</ele>
        <time>2021-07-27T13:31:37.932Z</time>
      </trkpt>
      <trkpt lat="50.27243971824646" lon="5.5516040325164795">
        <ele>293.28</ele>
        <time>2021-07-27T13:31:43.209Z</time>
      </trkpt>
      <trkpt lat="50.27274012565613" lon="5.551239168271422">
        <ele>292.5</ele>
        <time>2021-07-27T13:31:48.492Z</time>
      </trkpt>
      <trkpt lat="50.27274020947516" lon="5.551239168271422">
        <ele>291.9</ele>
        <time>2021-07-27T13:31:53.775Z</time>
      </trkpt>
      <trkpt lat="50.272836768999696" lon="5.551131963729858">
        <ele>291.22</ele>
        <time>2021-07-27T13:31:59.060Z</time>
      </trkpt>
      <trkpt lat="50.27395240031183" lon="5.549822961911559">
        <ele>290.64</ele>
        <time>2021-07-27T13:32:04.368Z</time>
      </trkpt>
      <trkpt lat="50.274585485458374" lon="5.549157774075866">
        <ele>289.96</ele>
        <time>2021-07-27T13:32:09.688Z</time>
      </trkpt>
      <trkpt lat="50.27492872439325" lon="5.548728620633483">
        <ele>289.19</ele>
        <time>2021-07-27T13:32:15.015Z</time>
      </trkpt>
      <trkpt lat="50.27561536990106" lon="5.548063516616821">
        <ele>288.28</ele>
        <time>2021-07-27T13:32:20.355Z</time>
      </trkpt>
      <trkpt lat="50.27645221911371" lon="5.547194480895996">
        <ele>287.41</ele>
        <time>2021-07-27T13:32:25.711Z</time>
      </trkpt>
      <trkpt lat="50.2767204400152" lon="5.54704419337213">
        <ele>286.59</ele>
        <time>2021-07-27T13:32:31.072Z</time>
      </trkpt>
      <trkpt lat="50.27683845721185" lon="5.547012006863952">
        <ele>285.67</ele>
        <time>2021-07-27T13:32:36.434Z</time>
      </trkpt>
      <trkpt lat="50.276838624849916" lon="5.547012006863952">
        <ele>284.79</ele>
        <time>2021-07-27T13:32:41.796Z</time>
      </trkpt>
      <trkpt lat="50.27705303393304" lon="5.546947717666626">
        <ele>283.9</ele>
        <time>2021-07-27T13:32:47.162Z</time>
      </trkpt>
      <trkpt lat="50.27791142463684" lon="5.5465614795684814">
        <ele>282.89</ele>
        <time>2021-07-27T13:32:52.542Z</time>
      </trkpt>
      <trkpt lat="50.278297578915954" lon="5.546432733535767">
        <ele>281.84</ele>
        <time>2021-07-27T13:32:57.929Z</time>
      </trkpt>
      <trkpt lat="50.27893058024347" lon="5.546411192044616">
        <ele>280.7</ele>
        <time>2021-07-27T13:33:03.326Z</time>
      </trkpt>
      <trkpt lat="50.27935973368585" lon="5.546475565060973">
        <ele>279.77</ele>
        <time>2021-07-27T13:33:08.730Z</time>
      </trkpt>
      <trkpt lat="50.27959585189819" lon="5.546411192044616">
        <ele>278.87</ele>
        <time>2021-07-27T13:33:14.137Z</time>
      </trkpt>
      <trkpt lat="50.27990698814392" lon="5.546271717175841">
        <ele>278.04</ele>
        <time>2021-07-27T13:33:19.550Z</time>
      </trkpt>
      <trkpt lat="50.281119430437684" lon="5.545724630355835">
        <ele>277.54</ele>
        <time>2021-07-27T13:33:24.983Z</time>
      </trkpt>
      <trkpt lat="50.28122663497925" lon="5.5456602573394775">
        <ele>276.71</ele>
        <time>2021-07-27T13:33:30.418Z</time>
      </trkpt>
      <trkpt lat="50.281269466504455" lon="5.5456602573394775">
        <ele>275.89</ele>
        <time>2021-07-27T13:33:35.853Z</time>
      </trkpt>
      <trkpt lat="50.28137675486505" lon="5.545692443847656">
        <ele>275.05</ele>
        <time>2021-07-27T13:33:41.290Z</time>
      </trkpt>
      <trkpt lat="50.28167716227472" lon="5.5458855628967285">
        <ele>274.13</ele>
        <time>2021-07-27T13:33:46.732Z</time>
      </trkpt>
      <trkpt lat="50.28220287524164" lon="5.546025037765503">
        <ele>273.2</ele>
        <time>2021-07-27T13:33:52.183Z</time>
      </trkpt>
      <trkpt lat="50.28259984217584" lon="5.546046495437622">
        <ele>272.44</ele>
        <time>2021-07-27T13:33:57.640Z</time>
      </trkpt>
      <trkpt lat="50.28375864028931" lon="5.546046495437622">
        <ele>271.83</ele>
        <time>2021-07-27T13:34:03.116Z</time>
      </trkpt>
      <trkpt lat="50.285046100616455" lon="5.546067953109741">
        <ele>271.91</ele>
        <time>2021-07-27T13:34:08.612Z</time>
      </trkpt>
      <trkpt lat="50.28595796786249" lon="5.546540021896362">
        <ele>271.63</ele>
        <time>2021-07-27T13:34:14.124Z</time>
      </trkpt>
      <trkpt lat="50.28637647628784" lon="5.546647310256958">
        <ele>271.33</ele>
        <time>2021-07-27T13:34:19.643Z</time>
      </trkpt>
      <trkpt lat="50.288769006729126" lon="5.5471837520599365">
        <ele>269.95</ele>
        <time>2021-07-27T13:34:25.200Z</time>
      </trkpt>
      <trkpt lat="50.28886548243463" lon="5.547269582748413">
        <ele>269.62</ele>
        <time>2021-07-27T13:34:30.759Z</time>
      </trkpt>
      <trkpt lat="50.28896220959723" lon="5.547376871109009">
        <ele>269.38</ele>
        <time>2021-07-27T13:34:36.320Z</time>
      </trkpt>
      <trkpt lat="50.288972770795226" lon="5.547451889142394">
        <ele>269.28</ele>
        <time>2021-07-27T13:34:41.882Z</time>
      </trkpt>
      <trkpt lat="50.289015769958496" lon="5.547537803649902">
        <ele>269.3</ele>
        <time>2021-07-27T13:34:47.445Z</time>
      </trkpt>
      <trkpt lat="50.289047956466675" lon="5.547698652371764">
        <ele>269.43</ele>
        <time>2021-07-27T13:34:53.010Z</time>
      </trkpt>
      <trkpt lat="50.289047956466675" lon="5.547977685928345">
        <ele>269.72</ele>
        <time>2021-07-27T13:34:58.577Z</time>
      </trkpt>
      <trkpt lat="50.28900504112244" lon="5.548202991485596">
        <ele>270.19</ele>
        <time>2021-07-27T13:35:04.147Z</time>
      </trkpt>
      <trkpt lat="50.28895131312311" lon="5.548492670059204">
        <ele>270.83</ele>
        <time>2021-07-27T13:35:09.720Z</time>
      </trkpt>
      <trkpt lat="50.28884402476251" lon="5.549082672223449">
        <ele>271.61</ele>
        <time>2021-07-27T13:35:15.299Z</time>
      </trkpt>
      <trkpt lat="50.288769006729126" lon="5.549576198682189">
        <ele>272.62</ele>
        <time>2021-07-27T13:35:20.884Z</time>
      </trkpt>
      <trkpt lat="50.288801277056336" lon="5.549844419583678">
        <ele>273.76</ele>
        <time>2021-07-27T13:35:26.471Z</time>
      </trkpt>
      <trkpt lat="50.28889766894281" lon="5.5501126404851675">
        <ele>275.07</ele>
        <time>2021-07-27T13:35:32.061Z</time>
      </trkpt>
      <trkpt lat="50.289026414975524" lon="5.550252115353942">
        <ele>276.41</ele>
        <time>2021-07-27T13:35:37.654Z</time>
      </trkpt>
      <trkpt lat="50.28971306048334" lon="5.550445234403014">
        <ele>277.9</ele>
        <time>2021-07-27T13:35:43.258Z</time>
      </trkpt>
      <trkpt lat="50.29046416282654" lon="5.550820743665099">
        <ele>279.49</ele>
        <time>2021-07-27T13:35:48.875Z</time>
      </trkpt>
      <trkpt lat="50.290753757581115" lon="5.550906574353576">
        <ele>281.03</ele>
        <time>2021-07-27T13:35:54.497Z</time>
      </trkpt>
      <trkpt lat="50.29124736785889" lon="5.550949573516846">
        <ele>282.84</ele>
        <time>2021-07-27T13:36:00.126Z</time>
      </trkpt>
      <trkpt lat="50.291461860761046" lon="5.550992405042052">
        <ele>284.45</ele>
        <time>2021-07-27T13:36:05.759Z</time>
      </trkpt>
      <trkpt lat="50.29165506362915" lon="5.551099693402648">
        <ele>286.03</ele>
        <time>2021-07-27T13:36:11.395Z</time>
      </trkpt>
      <trkpt lat="50.29180518351495" lon="5.5513787269592285">
        <ele>287.67</ele>
        <time>2021-07-27T13:36:17.035Z</time>
      </trkpt>
      <trkpt lat="50.29190182685852" lon="5.551668321713805">
        <ele>289.37</ele>
        <time>2021-07-27T13:36:22.678Z</time>
      </trkpt>
      <trkpt lat="50.29192320071161" lon="5.551968729123473">
        <ele>291.04</ele>
        <time>2021-07-27T13:36:28.324Z</time>
      </trkpt>
      <trkpt lat="50.29189797118306" lon="5.5521889217197895">
        <ele>292.02</ele>
        <time>2021-07-27T13:36:33.973Z</time>
      </trkpt>
      <trkpt lat="50.291897803545" lon="5.5521906819194555">
        <ele>292.79</ele>
        <time>2021-07-27T13:36:39.622Z</time>
      </trkpt>
      <trkpt lat="50.29189738444984" lon="5.552194872871041">
        <ele>294.49</ele>
        <time>2021-07-27T13:36:45.271Z</time>
      </trkpt>
      <trkpt lat="50.29189738444984" lon="5.552195208147168">
        <ele>296.21</ele>
        <time>2021-07-27T13:36:50.920Z</time>
      </trkpt>
      <trkpt lat="50.29183737002313" lon="5.552719831466675">
        <ele>298.02</ele>
        <time>2021-07-27T13:36:56.574Z</time>
      </trkpt>
      <trkpt lat="50.291805267333984" lon="5.552912950515747">
        <ele>299.79</ele>
        <time>2021-07-27T13:37:02.230Z</time>
      </trkpt>
      <trkpt lat="50.29167643748224" lon="5.553846275433898">
        <ele>301.69</ele>
        <time>2021-07-27T13:37:07.896Z</time>
      </trkpt>
      <trkpt lat="50.29165506362915" lon="5.554114496335387">
        <ele>303.43</ele>
        <time>2021-07-27T13:37:13.565Z</time>
      </trkpt>
      <trkpt lat="50.29168725013733" lon="5.554511547088623">
        <ele>305.18</ele>
        <time>2021-07-27T13:37:19.238Z</time>
      </trkpt>
      <trkpt lat="50.29181591235101" lon="5.554919242858887">
        <ele>306.95</ele>
        <time>2021-07-27T13:37:24.916Z</time>
      </trkpt>
      <trkpt lat="50.2919340133667" lon="5.555112361907959">
        <ele>308.7</ele>
        <time>2021-07-27T13:37:30.596Z</time>
      </trkpt>
      <trkpt lat="50.29209494590759" lon="5.55528393946588">
        <ele>310.43</ele>
        <time>2021-07-27T13:37:36.279Z</time>
      </trkpt>
      <trkpt lat="50.29229870997369" lon="5.555423414334655">
        <ele>312.1</ele>
        <time>2021-07-27T13:37:41.966Z</time>
      </trkpt>
      <trkpt lat="50.292298793792725" lon="5.555423414334655">
        <ele>313.72</ele>
        <time>2021-07-27T13:37:47.653Z</time>
      </trkpt>
      <trkpt lat="50.29286884702742" lon="5.555835301056504">
        <ele>314.59</ele>
        <time>2021-07-27T13:37:53.350Z</time>
      </trkpt>
      <trkpt lat="50.29286993667483" lon="5.55583605542779">
        <ele>315.46</ele>
        <time>2021-07-27T13:37:59.047Z</time>
      </trkpt>
      <trkpt lat="50.29287261888385" lon="5.555837983265519">
        <ele>317.02</ele>
        <time>2021-07-27T13:38:04.744Z</time>
      </trkpt>
      <trkpt lat="50.29287270270288" lon="5.555837983265519">
        <ele>318.55</ele>
        <time>2021-07-27T13:38:10.441Z</time>
      </trkpt>
      <trkpt lat="50.29345750808716" lon="5.556260347366333">
        <ele>320.29</ele>
        <time>2021-07-27T13:38:16.148Z</time>
      </trkpt>
      <trkpt lat="50.293768560513854" lon="5.556550025939941">
        <ele>321.82</ele>
        <time>2021-07-27T13:38:21.861Z</time>
      </trkpt>
      <trkpt lat="50.29409042559564" lon="5.556893264874816">
        <ele>323.41</ele>
        <time>2021-07-27T13:38:27.581Z</time>
      </trkpt>
      <trkpt lat="50.29409050941467" lon="5.556893264874816">
        <ele>324.74</ele>
        <time>2021-07-27T13:38:33.301Z</time>
      </trkpt>
      <trkpt lat="50.29412269592285" lon="5.556936264038086">
        <ele>326.02</ele>
        <time>2021-07-27T13:38:39.021Z</time>
      </trkpt>
      <trkpt lat="50.29439083300531" lon="5.5572795029729605">
        <ele>327.29</ele>
        <time>2021-07-27T13:38:44.747Z</time>
      </trkpt>
      <trkpt lat="50.29448747634888" lon="5.557483434677124">
        <ele>328.47</ele>
        <time>2021-07-27T13:38:50.475Z</time>
      </trkpt>
      <trkpt lat="50.294508850201964" lon="5.557558536529541">
        <ele>329.54</ele>
        <time>2021-07-27T13:38:56.204Z</time>
      </trkpt>
      <trkpt lat="50.294508850201964" lon="5.557708656415343">
        <ele>330.53</ele>
        <time>2021-07-27T13:39:01.935Z</time>
      </trkpt>
      <trkpt lat="50.294476663693786" lon="5.557848131284118">
        <ele>331.46</ele>
        <time>2021-07-27T13:39:07.667Z</time>
      </trkpt>
      <trkpt lat="50.29441237449646" lon="5.557976961135864">
        <ele>332.32</ele>
        <time>2021-07-27T13:39:13.401Z</time>
      </trkpt>
      <trkpt lat="50.29433718882501" lon="5.558062708005309">
        <ele>333.07</ele>
        <time>2021-07-27T13:39:19.136Z</time>
      </trkpt>
      <trkpt lat="50.29411196708679" lon="5.558116352185607">
        <ele>333.7</ele>
        <time>2021-07-27T13:39:24.875Z</time>
      </trkpt>
      <trkpt lat="50.29332867823541" lon="5.558052062988281">
        <ele>334.45</ele>
        <time>2021-07-27T13:39:30.627Z</time>
      </trkpt>
      <trkpt lat="50.29332876205444" lon="5.558052062988281">
        <ele>334.88</ele>
        <time>2021-07-27T13:39:36.379Z</time>
      </trkpt>
      <trkpt lat="50.29293171130121" lon="5.558019792661071">
        <ele>335.24</ele>
        <time>2021-07-27T13:39:42.137Z</time>
      </trkpt>
      <trkpt lat="50.292922742664814" lon="5.558020630851388">
        <ele>335.48</ele>
        <time>2021-07-27T13:39:47.895Z</time>
      </trkpt>
      <trkpt lat="50.29292115010321" lon="5.558020798489451">
        <ele>335.47</ele>
        <time>2021-07-27T13:39:53.653Z</time>
      </trkpt>
      <trkpt lat="50.29291779734194" lon="5.55802121758461">
        <ele>335.61</ele>
        <time>2021-07-27T13:39:59.411Z</time>
      </trkpt>
      <trkpt lat="50.29291771352291" lon="5.55802121758461">
        <ele>335.65</ele>
        <time>2021-07-27T13:40:05.169Z</time>
      </trkpt>
      <trkpt lat="50.29270640574396" lon="5.55804125033319">
        <ele>335.6</ele>
        <time>2021-07-27T13:40:10.931Z</time>
      </trkpt>
      <trkpt lat="50.29247045516968" lon="5.558180725201964">
        <ele>335.45</ele>
        <time>2021-07-27T13:40:16.697Z</time>
      </trkpt>
      <trkpt lat="50.292259231209755" lon="5.558391781523824">
        <ele>335.31</ele>
        <time>2021-07-27T13:40:22.467Z</time>
      </trkpt>
      <trkpt lat="50.29225805774331" lon="5.5583930388092995">
        <ele>335.15</ele>
        <time>2021-07-27T13:40:28.237Z</time>
      </trkpt>
      <trkpt lat="50.29202998615801" lon="5.558599987998605">
        <ele>334.79</ele>
        <time>2021-07-27T13:40:34.011Z</time>
      </trkpt>
      <trkpt lat="50.2919099573046" lon="5.558669976890087">
        <ele>334.39</ele>
        <time>2021-07-27T13:40:39.787Z</time>
      </trkpt>
      <trkpt lat="50.291819935664535" lon="5.558709958568215">
        <ele>333.92</ele>
        <time>2021-07-27T13:40:45.564Z</time>
      </trkpt>
      <trkpt lat="50.29161994345486" lon="5.558749940246344">
        <ele>333.39</ele>
        <time>2021-07-27T13:40:51.345Z</time>
      </trkpt>
      <trkpt lat="50.291306963190436" lon="5.558799728751183">
        <ele>332.78</ele>
        <time>2021-07-27T13:40:57.131Z</time>
      </trkpt>
      <trkpt lat="50.29099389910698" lon="5.55884943343699">
        <ele>332.1</ele>
        <time>2021-07-27T13:41:02.922Z</time>
      </trkpt>
      <trkpt lat="50.29068083502352" lon="5.558899138122797">
        <ele>331.4</ele>
        <time>2021-07-27T13:41:08.718Z</time>
      </trkpt>
      <trkpt lat="50.290549993515015" lon="5.558919925242662">
        <ele>330.66</ele>
        <time>2021-07-27T13:41:14.516Z</time>
      </trkpt>
      <trkpt lat="50.29024044983089" lon="5.559008354321122">
        <ele>329.84</ele>
        <time>2021-07-27T13:41:20.319Z</time>
      </trkpt>
      <trkpt lat="50.29019996523857" lon="5.559019921347499">
        <ele>329.05</ele>
        <time>2021-07-27T13:41:26.123Z</time>
      </trkpt>
      <trkpt lat="50.2899999730289" lon="5.559259979054332">
        <ele>328.2</ele>
        <time>2021-07-27T13:41:31.931Z</time>
      </trkpt>
      <trkpt lat="50.28989997692406" lon="5.559519985690713">
        <ele>327.36</ele>
        <time>2021-07-27T13:41:37.742Z</time>
      </trkpt>
      <trkpt lat="50.289819929748774" lon="5.559799941256642">
        <ele>326.52</ele>
        <time>2021-07-27T13:41:43.556Z</time>
      </trkpt>
      <trkpt lat="50.2897599991411" lon="5.560279972851276">
        <ele>325.6</ele>
        <time>2021-07-27T13:41:49.375Z</time>
      </trkpt>
      <trkpt lat="50.289719849824905" lon="5.5607670452445745">
        <ele>324.73</ele>
        <time>2021-07-27T13:41:55.199Z</time>
      </trkpt>
      <trkpt lat="50.289679700508714" lon="5.561254201456904">
        <ele>323.82</ele>
        <time>2021-07-27T13:42:01.028Z</time>
      </trkpt>
      <trkpt lat="50.289639635011554" lon="5.561741357669234">
        <ele>322.82</ele>
        <time>2021-07-27T13:42:06.862Z</time>
      </trkpt>
      <trkpt lat="50.2896199375391" lon="5.561979990452528">
        <ele>321.88</ele>
        <time>2021-07-27T13:42:12.699Z</time>
      </trkpt>
      <trkpt lat="50.289580542594194" lon="5.56246723048389">
        <ele>321.02</ele>
        <time>2021-07-27T13:42:18.541Z</time>
      </trkpt>
      <trkpt lat="50.28954123146832" lon="5.562954470515251">
        <ele>320.2</ele>
        <time>2021-07-27T13:42:24.388Z</time>
      </trkpt>
      <trkpt lat="50.289539974182844" lon="5.5629699770361185">
        <ele>319.36</ele>
        <time>2021-07-27T13:42:30.235Z</time>
      </trkpt>
      <trkpt lat="50.28952999971807" lon="5.56335998699069">
        <ele>318.53</ele>
        <time>2021-07-27T13:42:36.086Z</time>
      </trkpt>
      <trkpt lat="50.28954994864762" lon="5.5638099275529385">
        <ele>317.73</ele>
        <time>2021-07-27T13:42:41.941Z</time>
      </trkpt>
      <trkpt lat="50.28958993032575" lon="5.564149981364608">
        <ele>316.88</ele>
        <time>2021-07-27T13:42:47.800Z</time>
      </trkpt>
      <trkpt lat="50.289665535092354" lon="5.564626744017005">
        <ele>316.09</ele>
        <time>2021-07-27T13:42:53.664Z</time>
      </trkpt>
      <trkpt lat="50.28974113985896" lon="5.565103506669402">
        <ele>315.23</ele>
        <time>2021-07-27T13:42:59.533Z</time>
      </trkpt>
      <trkpt lat="50.28981666080654" lon="5.565580185502768">
        <ele>314.32</ele>
        <time>2021-07-27T13:43:05.407Z</time>
      </trkpt>
      <trkpt lat="50.289892265573144" lon="5.566056948155165">
        <ele>313.52</ele>
        <time>2021-07-27T13:43:11.286Z</time>
      </trkpt>
      <trkpt lat="50.28996787033975" lon="5.566533710807562">
        <ele>312.78</ele>
        <time>2021-07-27T13:43:17.170Z</time>
      </trkpt>
      <trkpt lat="50.29004347510636" lon="5.567010473459959">
        <ele>311.99</ele>
        <time>2021-07-27T13:43:23.059Z</time>
      </trkpt>
      <trkpt lat="50.29010994359851" lon="5.567429987713695">
        <ele>311.17</ele>
        <time>2021-07-27T13:43:28.953Z</time>
      </trkpt>
      <trkpt lat="50.29018362052739" lon="5.5679074209183455">
        <ele>310.34</ele>
        <time>2021-07-27T13:43:34.852Z</time>
      </trkpt>
      <trkpt lat="50.290257297456264" lon="5.568384937942028">
        <ele>309.51</ele>
        <time>2021-07-27T13:43:40.756Z</time>
      </trkpt>
      <trkpt lat="50.29033097438514" lon="5.568862371146679">
        <ele>308.69</ele>
        <time>2021-07-27T13:43:46.665Z</time>
      </trkpt>
      <trkpt lat="50.290359975770116" lon="5.569049958139658">
        <ele>307.89</ele>
        <time>2021-07-27T13:43:52.576Z</time>
      </trkpt>
      <trkpt lat="50.29040993191302" lon="5.569409960880876">
        <ele>307.07</ele>
        <time>2021-07-27T13:43:58.491Z</time>
      </trkpt>
      <trkpt lat="50.29040993191302" lon="5.569879934191704">
        <ele>306.28</ele>
        <time>2021-07-27T13:44:04.410Z</time>
      </trkpt>
      <trkpt lat="50.290349666029215" lon="5.570361977443099">
        <ele>305.54</ele>
        <time>2021-07-27T13:44:10.334Z</time>
      </trkpt>
      <trkpt lat="50.290339943021536" lon="5.570439929142594">
        <ele>304.86</ele>
        <time>2021-07-27T13:44:16.259Z</time>
      </trkpt>
      <trkpt lat="50.29031999409199" lon="5.5705199763178825">
        <ele>304.24</ele>
        <time>2021-07-27T13:44:22.185Z</time>
      </trkpt>
      <trkpt lat="50.29028998687863" lon="5.570629946887493">
        <ele>303.66</ele>
        <time>2021-07-27T13:44:28.112Z</time>
      </trkpt>
      <trkpt lat="50.29017993248999" lon="5.570849971845746">
        <ele>303.05</ele>
        <time>2021-07-27T13:44:34.042Z</time>
      </trkpt>
      <trkpt lat="50.29002998024225" lon="5.571139985695481">
        <ele>302.51</ele>
        <time>2021-07-27T13:44:39.976Z</time>
      </trkpt>
      <trkpt lat="50.2899999730289" lon="5.571209974586964">
        <ele>302.07</ele>
        <time>2021-07-27T13:44:45.911Z</time>
      </trkpt>
      <trkpt lat="50.28979838825762" lon="5.571587076410651">
        <ele>301.61</ele>
        <time>2021-07-27T13:44:51.851Z</time>
      </trkpt>
      <trkpt lat="50.28959680348635" lon="5.571964178234339">
        <ele>301.23</ele>
        <time>2021-07-27T13:44:57.796Z</time>
      </trkpt>
      <trkpt lat="50.28939521871507" lon="5.572341363877058">
        <ele>301.04</ele>
        <time>2021-07-27T13:45:03.746Z</time>
      </trkpt>
      <trkpt lat="50.28919371776283" lon="5.572718465700746">
        <ele>300.83</ele>
        <time>2021-07-27T13:45:09.701Z</time>
      </trkpt>
      <trkpt lat="50.289069917052984" lon="5.5729499738663435">
        <ele>300.67</ele>
        <time>2021-07-27T13:45:15.659Z</time>
      </trkpt>
      <trkpt lat="50.28892993927002" lon="5.573349958285689">
        <ele>300.56</ele>
        <time>2021-07-27T13:45:21.622Z</time>
      </trkpt>
      <trkpt lat="50.28884997591376" lon="5.573699986562133">
        <ele>300.6</ele>
        <time>2021-07-27T13:45:27.589Z</time>
      </trkpt>
      <trkpt lat="50.288789961487055" lon="5.574119919911027">
        <ele>300.71</ele>
        <time>2021-07-27T13:45:33.560Z</time>
      </trkpt>
      <trkpt lat="50.28879448771477" lon="5.574611015617847">
        <ele>300.82</ele>
        <time>2021-07-27T13:45:39.536Z</time>
      </trkpt>
      <trkpt lat="50.28879901394248" lon="5.575102111324668">
        <ele>301.07</ele>
        <time>2021-07-27T13:45:45.517Z</time>
      </trkpt>
      <trkpt lat="50.28879993595183" lon="5.57519992813468">
        <ele>301.4</ele>
        <time>2021-07-27T13:45:51.499Z</time>
      </trkpt>
      <trkpt lat="50.28881317935884" lon="5.575690604746342">
        <ele>301.85</ele>
        <time>2021-07-27T13:45:57.486Z</time>
      </trkpt>
      <trkpt lat="50.28881996870041" lon="5.575939966365695">
        <ele>302.33</ele>
        <time>2021-07-27T13:46:03.476Z</time>
      </trkpt>
      <trkpt lat="50.28883111663163" lon="5.57643081061542">
        <ele>303.02</ele>
        <time>2021-07-27T13:46:09.471Z</time>
      </trkpt>
      <trkpt lat="50.28883991762996" lon="5.576819982379675">
        <ele>303.57</ele>
        <time>2021-07-27T13:46:15.470Z</time>
      </trkpt>
      <trkpt lat="50.28884578496218" lon="5.577310994267464">
        <ele>304.02</ele>
        <time>2021-07-27T13:46:21.474Z</time>
      </trkpt>
      <trkpt lat="50.288851568475366" lon="5.5778020061552525">
        <ele>304.54</ele>
        <time>2021-07-27T13:46:27.483Z</time>
      </trkpt>
      <trkpt lat="50.288857435807586" lon="5.578293101862073">
        <ele>305.14</ele>
        <time>2021-07-27T13:46:33.497Z</time>
      </trkpt>
      <trkpt lat="50.288863219320774" lon="5.578784113749862">
        <ele>305.7</ele>
        <time>2021-07-27T13:46:39.516Z</time>
      </trkpt>
      <trkpt lat="50.288869086652994" lon="5.5792751256376505">
        <ele>306.27</ele>
        <time>2021-07-27T13:46:45.540Z</time>
      </trkpt>
      <trkpt lat="50.28886992484331" lon="5.579349976032972">
        <ele>306.76</ele>
        <time>2021-07-27T13:46:51.565Z</time>
      </trkpt>
      <trkpt lat="50.288885766640306" lon="5.579840485006571">
        <ele>307.23</ele>
        <time>2021-07-27T13:46:57.595Z</time>
      </trkpt>
      <trkpt lat="50.288899932056665" lon="5.580279948189855">
        <ele>307.7</ele>
        <time>2021-07-27T13:47:03.629Z</time>
      </trkpt>
      <trkpt lat="50.28890999034047" lon="5.580759979784489">
        <ele>308.18</ele>
        <time>2021-07-27T13:47:09.668Z</time>
      </trkpt>
      <trkpt lat="50.28894360177219" lon="5.581248225644231">
        <ele>308.59</ele>
        <time>2021-07-27T13:47:15.712Z</time>
      </trkpt>
      <trkpt lat="50.2889499720186" lon="5.5813399236649275">
        <ele>308.89</ele>
        <time>2021-07-27T13:47:21.757Z</time>
      </trkpt>
      <trkpt lat="50.2889999281615" lon="5.5816099885851145">
        <ele>309.12</ele>
        <time>2021-07-27T13:47:27.805Z</time>
      </trkpt>
      <trkpt lat="50.289121298119426" lon="5.582063114270568">
        <ele>309.31</ele>
        <time>2021-07-27T13:47:33.858Z</time>
      </trkpt>
      <trkpt lat="50.28914996422827" lon="5.582169983536005">
        <ele>309.47</ele>
        <time>2021-07-27T13:47:39.912Z</time>
      </trkpt>
      <trkpt lat="50.28929891064763" lon="5.582602573558688">
        <ele>309.55</ele>
        <time>2021-07-27T13:47:45.971Z</time>
      </trkpt>
      <trkpt lat="50.28944794088602" lon="5.583035163581371">
        <ele>309.47</ele>
        <time>2021-07-27T13:47:52.035Z</time>
      </trkpt>
      <trkpt lat="50.28959688730538" lon="5.5834677536040545">
        <ele>309.41</ele>
        <time>2021-07-27T13:47:58.104Z</time>
      </trkpt>
      <trkpt lat="50.28974591754377" lon="5.583900343626738">
        <ele>309.37</ele>
        <time>2021-07-27T13:48:04.178Z</time>
      </trkpt>
      <trkpt lat="50.28989486396313" lon="5.584332933649421">
        <ele>309.23</ele>
        <time>2021-07-27T13:48:10.257Z</time>
      </trkpt>
      <trkpt lat="50.28997994028032" lon="5.584579948335886">
        <ele>309.12</ele>
        <time>2021-07-27T13:48:16.339Z</time>
      </trkpt>
      <trkpt lat="50.29012997634709" lon="5.585011700168252">
        <ele>309.02</ele>
        <time>2021-07-27T13:48:22.426Z</time>
      </trkpt>
      <trkpt lat="50.29028001241386" lon="5.585443368181586">
        <ele>308.76</ele>
        <time>2021-07-27T13:48:28.518Z</time>
      </trkpt>
      <trkpt lat="50.29043004848063" lon="5.585875120013952">
        <ele>308.43</ele>
        <time>2021-07-27T13:48:34.615Z</time>
      </trkpt>
      <trkpt lat="50.2905800845474" lon="5.5863067880272865">
        <ele>308.16</ele>
        <time>2021-07-27T13:48:40.718Z</time>
      </trkpt>
      <trkpt lat="50.29073012061417" lon="5.5867385398596525">
        <ele>307.92</ele>
        <time>2021-07-27T13:48:46.826Z</time>
      </trkpt>
      <trkpt lat="50.29088015668094" lon="5.587170207872987">
        <ele>307.65</ele>
        <time>2021-07-27T13:48:52.939Z</time>
      </trkpt>
      <trkpt lat="50.29103019274771" lon="5.587601875886321">
        <ele>307.39</ele>
        <time>2021-07-27T13:48:59.057Z</time>
      </trkpt>
      <trkpt lat="50.29103999957442" lon="5.587629955261946">
        <ele>307.15</ele>
        <time>2021-07-27T13:49:05.175Z</time>
      </trkpt>
      <trkpt lat="50.29119313694537" lon="5.588058941066265">
        <ele>306.9</ele>
        <time>2021-07-27T13:49:11.298Z</time>
      </trkpt>
      <trkpt lat="50.29134635813534" lon="5.5884879268705845">
        <ele>306.71</ele>
        <time>2021-07-27T13:49:17.426Z</time>
      </trkpt>
      <trkpt lat="50.291389944031835" lon="5.588609967380762">
        <ele>306.52</ele>
        <time>2021-07-27T13:49:23.555Z</time>
      </trkpt>
      <trkpt lat="50.29154215939343" lon="5.589039791375399">
        <ele>306.36</ele>
        <time>2021-07-27T13:49:29.690Z</time>
      </trkpt>
      <trkpt lat="50.29169445857406" lon="5.589469615370035">
        <ele>306.27</ele>
        <time>2021-07-27T13:49:35.830Z</time>
      </trkpt>
      <trkpt lat="50.29184667393565" lon="5.589899523183703">
        <ele>306.25</ele>
        <time>2021-07-27T13:49:41.975Z</time>
      </trkpt>
      <trkpt lat="50.29199888929725" lon="5.59032934717834">
        <ele>306.39</ele>
        <time>2021-07-27T13:49:48.125Z</time>
      </trkpt>
      <trkpt lat="50.29215110465884" lon="5.5907591711729765">
        <ele>306.64</ele>
        <time>2021-07-27T13:49:54.280Z</time>
      </trkpt>
      <trkpt lat="50.29223995283246" lon="5.591009957715869">
        <ele>306.91</ele>
        <time>2021-07-27T13:50:00.438Z</time>
      </trkpt>
      <trkpt lat="50.29239141382277" lon="5.591440452262759">
        <ele>307.25</ele>
        <time>2021-07-27T13:50:06.601Z</time>
      </trkpt>
      <trkpt lat="50.29254287481308" lon="5.5918709468096495">
        <ele>307.65</ele>
        <time>2021-07-27T13:50:12.769Z</time>
      </trkpt>
      <trkpt lat="50.29269433580339" lon="5.59230144135654">
        <ele>308.22</ele>
        <time>2021-07-27T13:50:18.942Z</time>
      </trkpt>
      <trkpt lat="50.292809922248125" lon="5.592629928141832">
        <ele>308.8</ele>
        <time>2021-07-27T13:50:25.119Z</time>
      </trkpt>
      <trkpt lat="50.29295685701072" lon="5.593064362183213">
        <ele>309.46</ele>
        <time>2021-07-27T13:50:31.301Z</time>
      </trkpt>
      <trkpt lat="50.29310370795429" lon="5.593498712405562">
        <ele>310.2</ele>
        <time>2021-07-27T13:50:37.488Z</time>
      </trkpt>
      <trkpt lat="50.29325055889785" lon="5.593933062627912">
        <ele>311.02</ele>
        <time>2021-07-27T13:50:43.680Z</time>
      </trkpt>
      <trkpt lat="50.293279979377985" lon="5.5940199829638">
        <ele>311.95</ele>
        <time>2021-07-27T13:50:49.873Z</time>
      </trkpt>
      <trkpt lat="50.29343227855861" lon="5.594449723139405">
        <ele>312.99</ele>
        <time>2021-07-27T13:50:56.071Z</time>
      </trkpt>
      <trkpt lat="50.29358457773924" lon="5.594879547134042">
        <ele>314.11</ele>
        <time>2021-07-27T13:51:02.274Z</time>
      </trkpt>
      <trkpt lat="50.2937369607389" lon="5.595309287309647">
        <ele>315.33</ele>
        <time>2021-07-27T13:51:08.482Z</time>
      </trkpt>
      <trkpt lat="50.293839974328876" lon="5.595599971711636">
        <ele>316.62</ele>
        <time>2021-07-27T13:51:14.693Z</time>
      </trkpt>
      <trkpt lat="50.2939957100898" lon="5.596026694402099">
        <ele>318.17</ele>
        <time>2021-07-27T13:51:20.909Z</time>
      </trkpt>
      <trkpt lat="50.2940699737519" lon="5.5962299555540085">
        <ele>319.69</ele>
        <time>2021-07-27T13:51:27.128Z</time>
      </trkpt>
      <trkpt lat="50.294119929894805" lon="5.596319977194071">
        <ele>321.24</ele>
        <time>2021-07-27T13:51:33.348Z</time>
      </trkpt>
      <trkpt lat="50.29420995153487" lon="5.596559951081872">
        <ele>322.89</ele>
        <time>2021-07-27T13:51:39.571Z</time>
      </trkpt>
      <trkpt lat="50.29435713775456" lon="5.596994133666158">
        <ele>324.63</ele>
        <time>2021-07-27T13:51:45.799Z</time>
      </trkpt>
      <trkpt lat="50.29440994374454" lon="5.597149953246117">
        <ele>326.38</ele>
        <time>2021-07-27T13:51:52.029Z</time>
      </trkpt>
      <trkpt lat="50.294549921527505" lon="5.597559995949268">
        <ele>328.43</ele>
        <time>2021-07-27T13:51:58.263Z</time>
      </trkpt>
      <trkpt lat="50.2946899831295" lon="5.597959980368614">
        <ele>330.34</ele>
        <time>2021-07-27T13:52:04.502Z</time>
      </trkpt>
      <trkpt lat="50.29483708553016" lon="5.598394079133868">
        <ele>332.48</ele>
        <time>2021-07-27T13:52:10.746Z</time>
      </trkpt>
      <trkpt lat="50.294889975339174" lon="5.598549982532859">
        <ele>334.45</ele>
        <time>2021-07-27T13:52:16.992Z</time>
      </trkpt>
      <trkpt lat="50.29495996423066" lon="5.5989099852740765">
        <ele>336.45</ele>
        <time>2021-07-27T13:52:23.242Z</time>
      </trkpt>
      <trkpt lat="50.294999945908785" lon="5.599079970270395">
        <ele>338.32</ele>
        <time>2021-07-27T13:52:29.494Z</time>
      </trkpt>
      <trkpt lat="50.295051326975226" lon="5.599564528092742">
        <ele>340.07</ele>
        <time>2021-07-27T13:52:35.751Z</time>
      </trkpt>
      <trkpt lat="50.29506993480027" lon="5.599739961326122">
        <ele>341.9</ele>
        <time>2021-07-27T13:52:42.009Z</time>
      </trkpt>
      <trkpt lat="50.295096170157194" lon="5.60022946447134">
        <ele>343.66</ele>
        <time>2021-07-27T13:52:48.273Z</time>
      </trkpt>
      <trkpt lat="50.29509994201362" lon="5.600299956277013">
        <ele>345.43</ele>
        <time>2021-07-27T13:52:54.537Z</time>
      </trkpt>
      <trkpt lat="50.29509994201362" lon="5.600579995661974">
        <ele>347.22</ele>
        <time>2021-07-27T13:53:00.804Z</time>
      </trkpt>
      <trkpt lat="50.29508996754885" lon="5.60095994733274">
        <ele>349.06</ele>
        <time>2021-07-27T13:53:07.075Z</time>
      </trkpt>
      <trkpt lat="50.29502995312214" lon="5.60140997171402">
        <ele>350.77</ele>
        <time>2021-07-27T13:53:13.351Z</time>
      </trkpt>
      <trkpt lat="50.29496750794351" lon="5.601891344413161">
        <ele>352.55</ele>
        <time>2021-07-27T13:53:19.632Z</time>
      </trkpt>
      <trkpt lat="50.29495996423066" lon="5.60194993391633">
        <ele>354.23</ele>
        <time>2021-07-27T13:53:25.913Z</time>
      </trkpt>
      <trkpt lat="50.29494998976588" lon="5.60224992223084">
        <ele>355.96</ele>
        <time>2021-07-27T13:53:32.197Z</time>
      </trkpt>
      <trkpt lat="50.294932471588254" lon="5.6027403473854065">
        <ele>357.86</ele>
        <time>2021-07-27T13:53:38.487Z</time>
      </trkpt>
      <trkpt lat="50.29491998255253" lon="5.603089956566691">
        <ele>359.48</ele>
        <time>2021-07-27T13:53:44.780Z</time>
      </trkpt>
      <trkpt lat="50.29491998255253" lon="5.603581136092544">
        <ele>361.09</ele>
        <time>2021-07-27T13:53:51.078Z</time>
      </trkpt>
      <trkpt lat="50.29491998255253" lon="5.603929990902543">
        <ele>362.65</ele>
        <time>2021-07-27T13:53:57.380Z</time>
      </trkpt>
      <trkpt lat="50.29493993148208" lon="5.6042099464684725">
        <ele>364.2</ele>
        <time>2021-07-27T13:54:03.685Z</time>
      </trkpt>
      <trkpt lat="50.29496993869543" lon="5.604649996384978">
        <ele>365.77</ele>
        <time>2021-07-27T13:54:09.994Z</time>
      </trkpt>
      <trkpt lat="50.29503992758691" lon="5.605039922520518">
        <ele>367.32</ele>
        <time>2021-07-27T13:54:16.307Z</time>
      </trkpt>
      <trkpt lat="50.29508996754885" lon="5.605309987440705">
        <ele>368.76</ele>
        <time>2021-07-27T13:54:22.623Z</time>
      </trkpt>
      <trkpt lat="50.29524888843298" lon="5.60573386028409">
        <ele>370.32</ele>
        <time>2021-07-27T13:54:28.944Z</time>
      </trkpt>
      <trkpt lat="50.29526992700994" lon="5.605789935216308">
        <ele>371.71</ele>
        <time>2021-07-27T13:54:35.266Z</time>
      </trkpt>
      <trkpt lat="50.29542960226536" lon="5.606213305145502">
        <ele>373.3</ele>
        <time>2021-07-27T13:54:41.593Z</time>
      </trkpt>
      <trkpt lat="50.295589193701744" lon="5.606636591255665">
        <ele>374.76</ele>
        <time>2021-07-27T13:54:47.925Z</time>
      </trkpt>
      <trkpt lat="50.295729925855994" lon="5.607009921222925">
        <ele>376.08</ele>
        <time>2021-07-27T13:54:54.261Z</time>
      </trkpt>
      <trkpt lat="50.295890271663666" lon="5.607432620599866">
        <ele>377.43</ele>
        <time>2021-07-27T13:55:00.602Z</time>
      </trkpt>
      <trkpt lat="50.29605061747134" lon="5.607855236157775">
        <ele>378.8</ele>
        <time>2021-07-27T13:55:06.949Z</time>
      </trkpt>
      <trkpt lat="50.29605992138386" lon="5.607879962772131">
        <ele>379.97</ele>
        <time>2021-07-27T13:55:13.296Z</time>
      </trkpt>
      <trkpt lat="50.296139968559146" lon="5.608289921656251">
        <ele>381.2</ele>
        <time>2021-07-27T13:55:19.647Z</time>
      </trkpt>
      <trkpt lat="50.296139968559146" lon="5.608781185001135">
        <ele>382.25</ele>
        <time>2021-07-27T13:55:26.003Z</time>
      </trkpt>
      <trkpt lat="50.296139968559146" lon="5.608829967677593">
        <ele>383.28</ele>
        <time>2021-07-27T13:55:32.360Z</time>
      </trkpt>
      <trkpt lat="50.29614994302392" lon="5.609129955992103">
        <ele>384.28</ele>
        <time>2021-07-27T13:55:38.720Z</time>
      </trkpt>
      <trkpt lat="50.29620995745063" lon="5.6095099914819">
        <ele>385.25</ele>
        <time>2021-07-27T13:55:45.084Z</time>
      </trkpt>
      <trkpt lat="50.29630375094712" lon="5.609978875145316">
        <ele>386.22</ele>
        <time>2021-07-27T13:55:51.453Z</time>
      </trkpt>
      <trkpt lat="50.296309953555465" lon="5.6100099720060825">
        <ele>387.14</ele>
        <time>2021-07-27T13:55:57.822Z</time>
      </trkpt>
      <trkpt lat="50.29643811285496" lon="5.610458571463823">
        <ele>388.07</ele>
        <time>2021-07-27T13:56:04.196Z</time>
      </trkpt>
      <trkpt lat="50.29644993133843" lon="5.610499978065491">
        <ele>388.97</ele>
        <time>2021-07-27T13:56:10.571Z</time>
      </trkpt>
      <trkpt lat="50.29645035043359" lon="5.6105012353509665">
        <ele>389.25</ele>
        <time>2021-07-27T13:56:16.946Z</time>
      </trkpt>
      <trkpt lat="50.296591836959124" lon="5.610938435420394">
        <ele>389.84</ele>
        <time>2021-07-27T13:56:23.326Z</time>
      </trkpt>
      <trkpt lat="50.29666995629668" lon="5.611179918050766">
        <ele>390.79</ele>
        <time>2021-07-27T13:56:29.709Z</time>
      </trkpt>
      <trkpt lat="50.296815214678645" lon="5.611615693196654">
        <ele>391.95</ele>
        <time>2021-07-27T13:56:36.097Z</time>
      </trkpt>
      <trkpt lat="50.29681999236345" lon="5.611629942432046">
        <ele>392.84</ele>
        <time>2021-07-27T13:56:42.485Z</time>
      </trkpt>
      <trkpt lat="50.29691546224058" lon="5.612097987905145">
        <ele>393.57</ele>
        <time>2021-07-27T13:56:48.878Z</time>
      </trkpt>
      <trkpt lat="50.29701101593673" lon="5.6125660333782434">
        <ele>394.54</ele>
        <time>2021-07-27T13:56:55.276Z</time>
      </trkpt>
      <trkpt lat="50.297019984573126" lon="5.612609954550862">
        <ele>395.46</ele>
        <time>2021-07-27T13:57:01.674Z</time>
      </trkpt>
      <trkpt lat="50.29699735343456" lon="5.613099876791239">
        <ele>396.39</ele>
        <time>2021-07-27T13:57:08.077Z</time>
      </trkpt>
      <trkpt lat="50.29698997735977" lon="5.613259971141815">
        <ele>397.3</ele>
        <time>2021-07-27T13:57:14.482Z</time>
      </trkpt>
      <trkpt lat="50.29700992628932" lon="5.613709995523095">
        <ele>398.29</ele>
        <time>2021-07-27T13:57:20.892Z</time>
      </trkpt>
      <trkpt lat="50.297096176072955" lon="5.614182399585843">
        <ele>399.38</ele>
        <time>2021-07-27T13:57:27.307Z</time>
      </trkpt>
      <trkpt lat="50.29718242585659" lon="5.614654803648591">
        <ele>400.34</ele>
        <time>2021-07-27T13:57:33.727Z</time>
      </trkpt>
      <trkpt lat="50.29723992571235" lon="5.614969963207841">
        <ele>401.4</ele>
        <time>2021-07-27T13:57:40.150Z</time>
      </trkpt>
      <trkpt lat="50.297319972887635" lon="5.615379922091961">
        <ele>402.47</ele>
        <time>2021-07-27T13:57:46.577Z</time>
      </trkpt>
      <trkpt lat="50.29742927290499" lon="5.615840591490269">
        <ele>403.46</ele>
        <time>2021-07-27T13:57:53.009Z</time>
      </trkpt>
      <trkpt lat="50.29753857292235" lon="5.616301177069545">
        <ele>404.51</ele>
        <time>2021-07-27T13:57:59.447Z</time>
      </trkpt>
      <trkpt lat="50.297599928453565" lon="5.61655992642045">
        <ele>405.56</ele>
        <time>2021-07-27T13:58:05.887Z</time>
      </trkpt>
      <trkpt lat="50.29766086488962" lon="5.617041885852814">
        <ele>406.68</ele>
        <time>2021-07-27T13:58:12.332Z</time>
      </trkpt>
      <trkpt lat="50.29771995730698" lon="5.6175099313259125">
        <ele>407.77</ele>
        <time>2021-07-27T13:58:18.782Z</time>
      </trkpt>
      <trkpt lat="50.29777184128761" lon="5.6179944053292274">
        <ele>408.97</ele>
        <time>2021-07-27T13:58:25.237Z</time>
      </trkpt>
      <trkpt lat="50.29777997173369" lon="5.618069926276803">
        <ele>409.99</ele>
        <time>2021-07-27T13:58:31.693Z</time>
      </trkpt>
      <trkpt lat="50.29782774858177" lon="5.61855548992753">
        <ele>411.09</ele>
        <time>2021-07-27T13:58:38.154Z</time>
      </trkpt>
      <trkpt lat="50.2978399861604" lon="5.618679961189628">
        <ele>412.06</ele>
        <time>2021-07-27T13:58:44.616Z</time>
      </trkpt>
      <trkpt lat="50.29781995341182" lon="5.618919935077429">
        <ele>412.96</ele>
        <time>2021-07-27T13:58:51.081Z</time>
      </trkpt>
      <trkpt lat="50.297749964520335" lon="5.619159992784262">
        <ele>413.83</ele>
        <time>2021-07-27T13:58:57.549Z</time>
      </trkpt>
      <trkpt lat="50.29754050076008" lon="5.619526533409953">
        <ele>414.65</ele>
        <time>2021-07-27T13:59:04.022Z</time>
      </trkpt>
      <trkpt lat="50.297509990632534" lon="5.619579926133156">
        <ele>415.6</ele>
        <time>2021-07-27T13:59:10.495Z</time>
      </trkpt>
      <trkpt lat="50.29741996899247" lon="5.619819983839989">
        <ele>416.58</ele>
        <time>2021-07-27T13:59:16.971Z</time>
      </trkpt>
      <trkpt lat="50.297288624569774" lon="5.620266320183873">
        <ele>417.72</ele>
        <time>2021-07-27T13:59:23.452Z</time>
      </trkpt>
      <trkpt lat="50.2972699329257" lon="5.620329938828945">
        <ele>418.72</ele>
        <time>2021-07-27T13:59:29.934Z</time>
      </trkpt>
      <trkpt lat="50.29720991849899" lon="5.620609978213906">
        <ele>419.84</ele>
        <time>2021-07-27T13:59:36.419Z</time>
      </trkpt>
      <trkpt lat="50.297189969569445" lon="5.620879959315062">
        <ele>420.97</ele>
        <time>2021-07-27T13:59:42.907Z</time>
      </trkpt>
      <trkpt lat="50.297189969569445" lon="5.621159998700023">
        <ele>422.16</ele>
        <time>2021-07-27T13:59:49.398Z</time>
      </trkpt>
      <trkpt lat="50.29719994403422" lon="5.621449928730726">
        <ele>423.28</ele>
        <time>2021-07-27T13:59:55.892Z</time>
      </trkpt>
      <trkpt lat="50.297169936820865" lon="5.621649920940399">
        <ele>424.42</ele>
        <time>2021-07-27T14:00:02.388Z</time>
      </trkpt>
      <trkpt lat="50.29710992239416" lon="5.621899953112006">
        <ele>425.64</ele>
        <time>2021-07-27T14:00:08.887Z</time>
      </trkpt>
      <trkpt lat="50.29698997735977" lon="5.622069938108325">
        <ele>426.79</ele>
        <time>2021-07-27T14:00:15.388Z</time>
      </trkpt>
      <trkpt lat="50.296869948506355" lon="5.622219974175096">
        <ele>427.94</ele>
        <time>2021-07-27T14:00:21.892Z</time>
      </trkpt>
      <trkpt lat="50.29667993076146" lon="5.6223999336361885">
        <ele>429.14</ele>
        <time>2021-07-27T14:00:28.399Z</time>
      </trkpt>
      <trkpt lat="50.296403244137764" lon="5.622633621096611">
        <ele>430.29</ele>
        <time>2021-07-27T14:00:34.911Z</time>
      </trkpt>
      <trkpt lat="50.29622999019921" lon="5.622779969125986">
        <ele>431.52</ele>
        <time>2021-07-27T14:00:41.426Z</time>
      </trkpt>
      <trkpt lat="50.29603997245431" lon="5.623029917478561">
        <ele>432.8</ele>
        <time>2021-07-27T14:00:47.945Z</time>
      </trkpt>
      <trkpt lat="50.295849200338125" lon="5.623420597985387">
        <ele>434.11</ele>
        <time>2021-07-27T14:00:54.469Z</time>
      </trkpt>
      <trkpt lat="50.29582992196083" lon="5.623459992930293">
        <ele>435.39</ele>
        <time>2021-07-27T14:01:00.994Z</time>
      </trkpt>
      <trkpt lat="50.29575993306935" lon="5.62366995960474">
        <ele>436.72</ele>
        <time>2021-07-27T14:01:07.521Z</time>
      </trkpt>
      <trkpt lat="50.295682065188885" lon="5.62414588406682">
        <ele>438.17</ele>
        <time>2021-07-27T14:01:14.053Z</time>
      </trkpt>
      <trkpt lat="50.29566999524832" lon="5.6242199800908566">
        <ele>439.57</ele>
        <time>2021-07-27T14:01:20.586Z</time>
      </trkpt>
      <trkpt lat="50.29565247707069" lon="5.624710405245423">
        <ele>441.2</ele>
        <time>2021-07-27T14:01:27.124Z</time>
      </trkpt>
      <trkpt lat="50.29564996249974" lon="5.624779975041747">
        <ele>442.65</ele>
        <time>2021-07-27T14:01:33.663Z</time>
      </trkpt>
      <trkpt lat="50.29568566940725" lon="5.625267969444394">
        <ele>444.27</ele>
        <time>2021-07-27T14:01:40.207Z</time>
      </trkpt>
      <trkpt lat="50.295709976926446" lon="5.625599976629019">
        <ele>445.81</ele>
        <time>2021-07-27T14:01:46.754Z</time>
      </trkpt>
      <trkpt lat="50.29573084786534" lon="5.626090066507459">
        <ele>447.36</ele>
        <time>2021-07-27T14:01:53.306Z</time>
      </trkpt>
      <trkpt lat="50.295749958604574" lon="5.626539923250675">
        <ele>448.82</ele>
        <time>2021-07-27T14:01:59.863Z</time>
      </trkpt>
      <trkpt lat="50.295793376863" lon="5.627026408910751">
        <ele>450.33</ele>
        <time>2021-07-27T14:02:06.425Z</time>
      </trkpt>
      <trkpt lat="50.29579999856651" lon="5.627099918201566">
        <ele>451.85</ele>
        <time>2021-07-27T14:02:12.988Z</time>
      </trkpt>
      <trkpt lat="50.29589530080557" lon="5.627568047493696">
        <ele>453.53</ele>
        <time>2021-07-27T14:02:19.556Z</time>
      </trkpt>
      <trkpt lat="50.29590996913612" lon="5.627639964222908">
        <ele>455.06</ele>
        <time>2021-07-27T14:02:26.125Z</time>
      </trkpt>
      <trkpt lat="50.29596998356283" lon="5.627899970859289">
        <ele>456.67</ele>
        <time>2021-07-27T14:02:32.696Z</time>
      </trkpt>
      <trkpt lat="50.296049946919084" lon="5.628189984709024">
        <ele>458.28</ele>
        <time>2021-07-27T14:02:39.271Z</time>
      </trkpt>
      <trkpt lat="50.296199982985854" lon="5.628619976341724">
        <ele>459.94</ele>
        <time>2021-07-27T14:02:45.851Z</time>
      </trkpt>
      <trkpt lat="50.29638203792274" lon="5.629020547494292">
        <ele>461.58</ele>
        <time>2021-07-27T14:02:52.436Z</time>
      </trkpt>
      <trkpt lat="50.296564092859626" lon="5.62942111864686">
        <ele>463.24</ele>
        <time>2021-07-27T14:02:59.026Z</time>
      </trkpt>
      <trkpt lat="50.2966499235481" lon="5.629609962925315">
        <ele>464.69</ele>
        <time>2021-07-27T14:03:05.618Z</time>
      </trkpt>
      <trkpt lat="50.296739945188165" lon="5.629829987883568">
        <ele>466.08</ele>
        <time>2021-07-27T14:03:12.213Z</time>
      </trkpt>
      <trkpt lat="50.29677992686629" lon="5.630069961771369">
        <ele>467.35</ele>
        <time>2021-07-27T14:03:18.810Z</time>
      </trkpt>
      <trkpt lat="50.29679995961487" lon="5.630349917337298">
        <ele>468.52</ele>
        <time>2021-07-27T14:03:25.410Z</time>
      </trkpt>
      <trkpt lat="50.29677992686629" lon="5.630569942295551">
        <ele>469.64</ele>
        <time>2021-07-27T14:03:32.013Z</time>
      </trkpt>
      <trkpt lat="50.29670993797481" lon="5.630859956145287">
        <ele>470.62</ele>
        <time>2021-07-27T14:03:38.619Z</time>
      </trkpt>
      <trkpt lat="50.29661991633475" lon="5.631139995530248">
        <ele>471.5</ele>
        <time>2021-07-27T14:03:45.228Z</time>
      </trkpt>
      <trkpt lat="50.29645881615579" lon="5.631561856716871">
        <ele>472.37</ele>
        <time>2021-07-27T14:03:51.842Z</time>
      </trkpt>
      <trkpt lat="50.2964099496603" lon="5.631689932197332">
        <ele>473.17</ele>
        <time>2021-07-27T14:03:58.458Z</time>
      </trkpt>
      <trkpt lat="50.29631992802024" lon="5.632129982113838">
        <ele>473.94</ele>
        <time>2021-07-27T14:04:05.078Z</time>
      </trkpt>
      <trkpt lat="50.29625756666064" lon="5.632611438632011">
        <ele>474.68</ele>
        <time>2021-07-27T14:04:11.703Z</time>
      </trkpt>
      <trkpt lat="50.29624993912876" lon="5.632669944316149">
        <ele>475.28</ele>
        <time>2021-07-27T14:04:18.329Z</time>
      </trkpt>
      <trkpt lat="50.29623996466398" lon="5.632989965379238">
        <ele>475.83</ele>
        <time>2021-07-27T14:04:24.958Z</time>
      </trkpt>
      <trkpt lat="50.29622999019921" lon="5.633209990337491">
        <ele>476.3</ele>
        <time>2021-07-27T14:04:31.590Z</time>
      </trkpt>
      <trkpt lat="50.2961699757725" lon="5.633529927581549">
        <ele>476.71</ele>
        <time>2021-07-27T14:04:38.225Z</time>
      </trkpt>
      <trkpt lat="50.296119935810566" lon="5.633689938113093">
        <ele>477.13</ele>
        <time>2021-07-27T14:04:44.862Z</time>
      </trkpt>
      <trkpt lat="50.29600233770907" lon="5.634145578369498">
        <ele>477.46</ele>
        <time>2021-07-27T14:04:51.504Z</time>
      </trkpt>
      <trkpt lat="50.29595992527902" lon="5.634309947490692">
        <ele>477.81</ele>
        <time>2021-07-27T14:04:58.148Z</time>
      </trkpt>
      <trkpt lat="50.29591994360089" lon="5.634589986875653">
        <ele>478.06</ele>
        <time>2021-07-27T14:05:04.795Z</time>
      </trkpt>
      <trkpt lat="50.29590996913612" lon="5.634769946336746">
        <ele>478.28</ele>
        <time>2021-07-27T14:05:11.443Z</time>
      </trkpt>
      <trkpt lat="50.29593997634947" lon="5.635199937969446">
        <ele>478.37</ele>
        <time>2021-07-27T14:05:18.096Z</time>
      </trkpt>
      <trkpt lat="50.296014323830605" lon="5.635677203536034">
        <ele>478.53</ele>
        <time>2021-07-27T14:05:24.754Z</time>
      </trkpt>
      <trkpt lat="50.29605992138386" lon="5.6359699834138155">
        <ele>478.78</ele>
        <time>2021-07-27T14:05:31.415Z</time>
      </trkpt>
      <trkpt lat="50.29617014341056" lon="5.636430066078901">
        <ele>479.14</ele>
        <time>2021-07-27T14:05:38.081Z</time>
      </trkpt>
      <trkpt lat="50.29628036543727" lon="5.636890064924955">
        <ele>479.5</ele>
        <time>2021-07-27T14:05:44.752Z</time>
      </trkpt>
      <trkpt lat="50.296289920806885" lon="5.636929962784052">
        <ele>479.62</ele>
        <time>2021-07-27T14:05:51.423Z</time>
      </trkpt>
      <trkpt lat="50.296329986304045" lon="5.637129954993725">
        <ele>479.75</ele>
        <time>2021-07-27T14:05:58.097Z</time>
      </trkpt>
      <trkpt lat="50.29636996798217" lon="5.637579979375005">
        <ele>479.85</ele>
        <time>2021-07-27T14:06:04.775Z</time>
      </trkpt>
      <trkpt lat="50.29641673900187" lon="5.6380657106637955">
        <ele>479.92</ele>
        <time>2021-07-27T14:06:11.458Z</time>
      </trkpt>
      <trkpt lat="50.29644993133843" lon="5.638409955427051">
        <ele>479.91</ele>
        <time>2021-07-27T14:06:18.145Z</time>
      </trkpt>
      <trkpt lat="50.296479938551784" lon="5.638689994812012">
        <ele>479.88</ele>
        <time>2021-07-27T14:06:24.835Z</time>
      </trkpt>
      <trkpt lat="50.29656736180186" lon="5.639161812141538">
        <ele>479.78</ele>
        <time>2021-07-27T14:06:31.530Z</time>
      </trkpt>
      <trkpt lat="50.29657993465662" lon="5.639229957014322">
        <ele>479.66</ele>
        <time>2021-07-27T14:06:38.226Z</time>
      </trkpt>
      <trkpt lat="50.29668998904526" lon="5.639649974182248">
        <ele>479.52</ele>
        <time>2021-07-27T14:06:44.926Z</time>
      </trkpt>
      <trkpt lat="50.29676995240152" lon="5.639909980818629">
        <ele>479.34</ele>
        <time>2021-07-27T14:06:51.629Z</time>
      </trkpt>
      <trkpt lat="50.29692996293306" lon="5.640289932489395">
        <ele>479.02</ele>
        <time>2021-07-27T14:06:58.337Z</time>
      </trkpt>
      <trkpt lat="50.297138588503" lon="5.640657646581531">
        <ele>478.62</ele>
        <time>2021-07-27T14:07:05.050Z</time>
      </trkpt>
      <trkpt lat="50.29713992960751" lon="5.640659993514419">
        <ele>478.45</ele>
        <time>2021-07-27T14:07:11.763Z</time>
      </trkpt>
      <trkpt lat="50.29725995846093" lon="5.6408599857240915">
        <ele>478.19</ele>
        <time>2021-07-27T14:07:18.479Z</time>
      </trkpt>
      <trkpt lat="50.29749968089163" lon="5.641178162768483">
        <ele>478.01</ele>
        <time>2021-07-27T14:07:25.200Z</time>
      </trkpt>
      <trkpt lat="50.29773940332234" lon="5.641496339812875">
        <ele>477.91</ele>
        <time>2021-07-27T14:07:31.926Z</time>
      </trkpt>
      <trkpt lat="50.29780997894704" lon="5.641589965671301">
        <ele>477.8</ele>
        <time>2021-07-27T14:07:38.653Z</time>
      </trkpt>
      <trkpt lat="50.297899916768074" lon="5.641729943454266">
        <ele>477.71</ele>
        <time>2021-07-27T14:07:45.382Z</time>
      </trkpt>
      <trkpt lat="50.298009971156716" lon="5.642049964517355">
        <ele>477.68</ele>
        <time>2021-07-27T14:07:52.115Z</time>
      </trkpt>
      <trkpt lat="50.298069985583425" lon="5.642279963940382">
        <ele>477.66</ele>
        <time>2021-07-27T14:07:58.851Z</time>
      </trkpt>
      <trkpt lat="50.29810359701514" lon="5.642768377438188">
        <ele>477.68</ele>
        <time>2021-07-27T14:08:05.592Z</time>
      </trkpt>
      <trkpt lat="50.29810996726155" lon="5.6428599916398525">
        <ele>477.74</ele>
        <time>2021-07-27T14:08:12.334Z</time>
      </trkpt>
      <trkpt lat="50.29809278436005" lon="5.643350416794419">
        <ele>477.89</ele>
        <time>2021-07-27T14:08:19.081Z</time>
      </trkpt>
      <trkpt lat="50.29808993451297" lon="5.643429961055517">
        <ele>478.01</ele>
        <time>2021-07-27T14:08:25.828Z</time>
      </trkpt>
      <trkpt lat="50.29803360812366" lon="5.643913261592388">
        <ele>478.11</ele>
        <time>2021-07-27T14:08:32.581Z</time>
      </trkpt>
      <trkpt lat="50.29801994562149" lon="5.644029937684536">
        <ele>478.25</ele>
        <time>2021-07-27T14:08:39.335Z</time>
      </trkpt>
      <trkpt lat="50.29792363755405" lon="5.644497647881508">
        <ele>478.36</ele>
        <time>2021-07-27T14:08:46.094Z</time>
      </trkpt>
      <trkpt lat="50.297879967838526" lon="5.644709961488843">
        <ele>478.56</ele>
        <time>2021-07-27T14:08:52.855Z</time>
      </trkpt>
      <trkpt lat="50.297749964520335" lon="5.6450199242681265">
        <ele>478.77</ele>
        <time>2021-07-27T14:08:59.620Z</time>
      </trkpt>
      <trkpt lat="50.29762993566692" lon="5.645219916477799">
        <ele>479.02</ele>
        <time>2021-07-27T14:09:06.388Z</time>
      </trkpt>
      <trkpt lat="50.29737252742052" lon="5.645502302795649">
        <ele>479.24</ele>
        <time>2021-07-27T14:09:13.161Z</time>
      </trkpt>
      <trkpt lat="50.297319972887635" lon="5.645559970289469">
        <ele>479.43</ele>
        <time>2021-07-27T14:09:19.935Z</time>
      </trkpt>
      <trkpt lat="50.29702786356211" lon="5.645742528140545">
        <ele>479.67</ele>
        <time>2021-07-27T14:09:26.714Z</time>
      </trkpt>
      <trkpt lat="50.296999951824546" lon="5.645759962499142">
        <ele>479.81</ele>
        <time>2021-07-27T14:09:33.493Z</time>
      </trkpt>
      <trkpt lat="50.296839941293" lon="5.645879991352558">
        <ele>480.02</ele>
        <time>2021-07-27T14:09:40.275Z</time>
      </trkpt>
      <trkpt lat="50.29657758772373" lon="5.646151062101126">
        <ele>480.28</ele>
        <time>2021-07-27T14:09:47.062Z</time>
      </trkpt>
      <trkpt lat="50.29653995297849" lon="5.646189954131842">
        <ele>480.28</ele>
        <time>2021-07-27T14:09:53.850Z</time>
      </trkpt>
      <trkpt lat="50.296439956873655" lon="5.646329931914806">
        <ele>480.23</ele>
        <time>2021-07-27T14:10:00.640Z</time>
      </trkpt>
      <trkpt lat="50.29629997909069" lon="5.646539982408285">
        <ele>480.02</ele>
        <time>2021-07-27T14:10:07.433Z</time>
      </trkpt>
      <trkpt lat="50.29609135352075" lon="5.646907696500421">
        <ele>479.67</ele>
        <time>2021-07-27T14:10:14.231Z</time>
      </trkpt>
      <trkpt lat="50.29591994360089" lon="5.647209947928786">
        <ele>479.2</ele>
        <time>2021-07-27T14:10:21.033Z</time>
      </trkpt>
      <trkpt lat="50.29570771381259" lon="5.647572549059987">
        <ele>478.62</ele>
        <time>2021-07-27T14:10:27.840Z</time>
      </trkpt>
      <trkpt lat="50.29567996971309" lon="5.647619990631938">
        <ele>478.01</ele>
        <time>2021-07-27T14:10:34.648Z</time>
      </trkpt>
      <trkpt lat="50.29542725533247" lon="5.647912602871656">
        <ele>477.21</ele>
        <time>2021-07-27T14:10:41.461Z</time>
      </trkpt>
      <trkpt lat="50.295299934223294" lon="5.648059956729412">
        <ele>476.32</ele>
        <time>2021-07-27T14:10:48.277Z</time>
      </trkpt>
      <trkpt lat="50.295028779655695" lon="5.648309150710702">
        <ele>475.33</ele>
        <time>2021-07-27T14:10:55.098Z</time>
      </trkpt>
      <trkpt lat="50.2949299570173" lon="5.64839992672205">
        <ele>474.35</ele>
        <time>2021-07-27T14:11:01.920Z</time>
      </trkpt>
      <trkpt lat="50.294644720852375" lon="5.648607378825545">
        <ele>473.24</ele>
        <time>2021-07-27T14:11:08.748Z</time>
      </trkpt>
      <trkpt lat="50.29459996148944" lon="5.648639984428883">
        <ele>472.1</ele>
        <time>2021-07-27T14:11:15.576Z</time>
      </trkpt>
      <trkpt lat="50.294329980388284" lon="5.648809969425201">
        <ele>470.79</ele>
        <time>2021-07-27T14:11:22.409Z</time>
      </trkpt>
      <trkpt lat="50.29405471868813" lon="5.649048015475273">
        <ele>469.37</ele>
        <time>2021-07-27T14:11:29.247Z</time>
      </trkpt>
      <trkpt lat="50.29395991936326" lon="5.649129990488291">
        <ele>468.03</ele>
        <time>2021-07-27T14:11:36.087Z</time>
      </trkpt>
      <trkpt lat="50.293709971010685" lon="5.649369964376092">
        <ele>466.58</ele>
        <time>2021-07-27T14:11:42.931Z</time>
      </trkpt>
      <trkpt lat="50.293461782857776" lon="5.649671796709299">
        <ele>465.13</ele>
        <time>2021-07-27T14:11:49.780Z</time>
      </trkpt>
      <trkpt lat="50.29333999380469" lon="5.649819988757372">
        <ele>463.77</ele>
        <time>2021-07-27T14:11:56.632Z</time>
      </trkpt>
      <trkpt lat="50.29309784062207" lon="5.650133639574051">
        <ele>462.33</ele>
        <time>2021-07-27T14:12:03.489Z</time>
      </trkpt>
      <trkpt lat="50.29289994388819" lon="5.650389958173037">
        <ele>460.84</ele>
        <time>2021-07-27T14:12:10.350Z</time>
      </trkpt>
      <trkpt lat="50.292673045769334" lon="5.650730263441801">
        <ele>459.4</ele>
        <time>2021-07-27T14:12:17.216Z</time>
      </trkpt>
      <trkpt lat="50.29255997389555" lon="5.650899996981025">
        <ele>458.05</ele>
        <time>2021-07-27T14:12:24.085Z</time>
      </trkpt>
      <trkpt lat="50.292347157374024" lon="5.651261759921908">
        <ele>456.71</ele>
        <time>2021-07-27T14:12:30.959Z</time>
      </trkpt>
      <trkpt lat="50.2921343408525" lon="5.651623522862792">
        <ele>455.31</ele>
        <time>2021-07-27T14:12:37.838Z</time>
      </trkpt>
      <trkpt lat="50.29205999337137" lon="5.651749921962619">
        <ele>454.0</ele>
        <time>2021-07-27T14:12:44.719Z</time>
      </trkpt>
      <trkpt lat="50.292059406638145" lon="5.651751095429063">
        <ele>453.16</ele>
        <time>2021-07-27T14:12:51.600Z</time>
      </trkpt>
      <trkpt lat="50.29187198728323" lon="5.6521437875926495">
        <ele>452.65</ele>
        <time>2021-07-27T14:12:58.486Z</time>
      </trkpt>
      <trkpt lat="50.29168398119509" lon="5.65253765322268">
        <ele>451.37</ele>
        <time>2021-07-27T14:13:05.377Z</time>
      </trkpt>
      <trkpt lat="50.29163997620344" lon="5.652629937976599">
        <ele>450.21</ele>
        <time>2021-07-27T14:13:12.269Z</time>
      </trkpt>
      <trkpt lat="50.29147082939744" lon="5.6530440878123045">
        <ele>449.03</ele>
        <time>2021-07-27T14:13:19.166Z</time>
      </trkpt>
      <trkpt lat="50.291349962353706" lon="5.65333996899426">
        <ele>447.92</ele>
        <time>2021-07-27T14:13:26.066Z</time>
      </trkpt>
      <trkpt lat="50.291216522455215" lon="5.653784712776542">
        <ele>446.85</ele>
        <time>2021-07-27T14:13:32.971Z</time>
      </trkpt>
      <trkpt lat="50.291083082556725" lon="5.654229540377855">
        <ele>445.83</ele>
        <time>2021-07-27T14:13:39.881Z</time>
      </trkpt>
      <trkpt lat="50.29107998125255" lon="5.654239933937788">
        <ele>444.9</ele>
        <time>2021-07-27T14:13:46.792Z</time>
      </trkpt>
      <trkpt lat="50.290979985147715" lon="5.654599936679006">
        <ele>444.03</ele>
        <time>2021-07-27T14:13:53.707Z</time>
      </trkpt>
      <trkpt lat="50.29088359326124" lon="5.655067479237914">
        <ele>443.22</ele>
        <time>2021-07-27T14:14:00.627Z</time>
      </trkpt>
      <trkpt lat="50.29078720137477" lon="5.6555350217968225">
        <ele>442.38</ele>
        <time>2021-07-27T14:14:07.552Z</time>
      </trkpt>
      <trkpt lat="50.29077999293804" lon="5.655569974333048">
        <ele>441.61</ele>
        <time>2021-07-27T14:14:14.477Z</time>
      </trkpt>
      <trkpt lat="50.2906992752105" lon="5.656044641509652">
        <ele>440.8</ele>
        <time>2021-07-27T14:14:21.407Z</time>
      </trkpt>
      <trkpt lat="50.29061864130199" lon="5.656519392505288">
        <ele>439.99</ele>
        <time>2021-07-27T14:14:28.342Z</time>
      </trkpt>
      <trkpt lat="50.29053792357445" lon="5.656994143500924">
        <ele>439.26</ele>
        <time>2021-07-27T14:14:35.282Z</time>
      </trkpt>
      <trkpt lat="50.29051998630166" lon="5.657099923118949">
        <ele>438.59</ele>
        <time>2021-07-27T14:14:42.223Z</time>
      </trkpt>
      <trkpt lat="50.290489979088306" lon="5.657529998570681">
        <ele>437.94</ele>
        <time>2021-07-27T14:14:49.169Z</time>
      </trkpt>
      <trkpt lat="50.29047874733806" lon="5.658020759001374">
        <ele>437.34</ele>
        <time>2021-07-27T14:14:56.120Z</time>
      </trkpt>
      <trkpt lat="50.290467431768775" lon="5.6585116032511">
        <ele>436.73</ele>
        <time>2021-07-27T14:15:03.076Z</time>
      </trkpt>
      <trkpt lat="50.29045997187495" lon="5.658839922398329">
        <ele>436.04</ele>
        <time>2021-07-27T14:15:10.035Z</time>
      </trkpt>
      <trkpt lat="50.29048930853605" lon="5.659328922629356">
        <ele>435.29</ele>
        <time>2021-07-27T14:15:16.999Z</time>
      </trkpt>
      <trkpt lat="50.290489979088306" lon="5.659339986741543">
        <ele>434.67</ele>
        <time>2021-07-27T14:15:23.963Z</time>
      </trkpt>
      <trkpt lat="50.29046994633973" lon="5.659449957311153">
        <ele>434.02</ele>
        <time>2021-07-27T14:15:30.929Z</time>
      </trkpt>
      <trkpt lat="50.29044999741018" lon="5.6597299966961145">
        <ele>433.37</ele>
        <time>2021-07-27T14:15:37.897Z</time>
      </trkpt>
      <trkpt lat="50.29044999741018" lon="5.659739971160889">
        <ele>432.75</ele>
        <time>2021-07-27T14:15:44.866Z</time>
      </trkpt>
      <trkpt lat="50.29043993912637" lon="5.659759920090437">
        <ele>432.14</ele>
        <time>2021-07-27T14:15:51.835Z</time>
      </trkpt>
      <trkpt lat="50.29043993912637" lon="5.659779952839017">
        <ele>431.53</ele>
        <time>2021-07-27T14:15:58.804Z</time>
      </trkpt>
      <trkpt lat="50.2904299646616" lon="5.659819934517145">
        <ele>430.91</ele>
        <time>2021-07-27T14:16:05.773Z</time>
      </trkpt>
      <trkpt lat="50.29043993912637" lon="5.659859916195273">
        <ele>430.29</ele>
        <time>2021-07-27T14:16:12.743Z</time>
      </trkpt>
      <trkpt lat="50.29045997187495" lon="5.6599299889057875">
        <ele>429.65</ele>
        <time>2021-07-27T14:16:19.714Z</time>
      </trkpt>
      <trkpt lat="50.29051998630166" lon="5.659959996119142">
        <ele>429.02</ele>
        <time>2021-07-27T14:16:26.686Z</time>
      </trkpt>
      <trkpt lat="50.290586622431874" lon="5.660439943894744">
        <ele>428.34</ele>
        <time>2021-07-27T14:16:33.663Z</time>
      </trkpt>
      <trkpt lat="50.29065325856209" lon="5.660919975489378">
        <ele>427.73</ele>
        <time>2021-07-27T14:16:40.645Z</time>
      </trkpt>
      <trkpt lat="50.2906699385494" lon="5.661039920523763">
        <ele>427.15</ele>
        <time>2021-07-27T14:16:47.628Z</time>
      </trkpt>
      <trkpt lat="50.2907302044332" lon="5.66152204759419">
        <ele>426.53</ele>
        <time>2021-07-27T14:16:54.616Z</time>
      </trkpt>
      <trkpt lat="50.290790470317006" lon="5.662004090845585">
        <ele>425.94</ele>
        <time>2021-07-27T14:17:01.609Z</time>
      </trkpt>
      <trkpt lat="50.290829949080944" lon="5.6623199209570885">
        <ele>425.38</ele>
        <time>2021-07-27T14:17:08.605Z</time>
      </trkpt>
      <trkpt lat="50.290888119488955" lon="5.662802634760737">
        <ele>424.77</ele>
        <time>2021-07-27T14:17:15.606Z</time>
      </trkpt>
      <trkpt lat="50.290946289896965" lon="5.663285348564386">
        <ele>424.27</ele>
        <time>2021-07-27T14:17:22.612Z</time>
      </trkpt>
      <trkpt lat="50.291004376485944" lon="5.663767978549004">
        <ele>423.82</ele>
        <time>2021-07-27T14:17:29.624Z</time>
      </trkpt>
      <trkpt lat="50.29102994129062" lon="5.663979956880212">
        <ele>423.48</ele>
        <time>2021-07-27T14:17:36.638Z</time>
      </trkpt>
      <trkpt lat="50.29107118025422" lon="5.6644668616354465">
        <ele>423.24</ele>
        <time>2021-07-27T14:17:43.657Z</time>
      </trkpt>
      <trkpt lat="50.29107998125255" lon="5.6645699590444565">
        <ele>423.07</ele>
        <time>2021-07-27T14:17:50.677Z</time>
      </trkpt>
      <trkpt lat="50.291142174974084" lon="5.66505141556263">
        <ele>422.99</ele>
        <time>2021-07-27T14:17:57.702Z</time>
      </trkpt>
      <trkpt lat="50.29120445251465" lon="5.665532872080803">
        <ele>422.95</ele>
        <time>2021-07-27T14:18:04.732Z</time>
      </trkpt>
      <trkpt lat="50.29122993350029" lon="5.665729930624366">
        <ele>422.98</ele>
        <time>2021-07-27T14:18:11.764Z</time>
      </trkpt>
      <trkpt lat="50.291281482204795" lon="5.6662144884467125">
        <ele>423.13</ele>
        <time>2021-07-27T14:18:18.801Z</time>
      </trkpt>
      <trkpt lat="50.291329929605126" lon="5.666669961065054">
        <ele>423.35</ele>
        <time>2021-07-27T14:18:25.843Z</time>
      </trkpt>
      <trkpt lat="50.291386004537344" lon="5.667153261601925">
        <ele>423.69</ele>
        <time>2021-07-27T14:18:32.890Z</time>
      </trkpt>
      <trkpt lat="50.29144199565053" lon="5.667636562138796">
        <ele>424.02</ele>
        <time>2021-07-27T14:18:39.942Z</time>
      </trkpt>
      <trkpt lat="50.29149807058275" lon="5.668119862675667">
        <ele>424.42</ele>
        <time>2021-07-27T14:18:46.999Z</time>
      </trkpt>
      <trkpt lat="50.29155406169593" lon="5.668603163212538">
        <ele>424.87</ele>
        <time>2021-07-27T14:18:54.061Z</time>
      </trkpt>
      <trkpt lat="50.29156998731196" lon="5.668739955872297">
        <ele>425.4</ele>
        <time>2021-07-27T14:19:01.124Z</time>
      </trkpt>
      <trkpt lat="50.29162631370127" lon="5.6692231725901365">
        <ele>425.99</ele>
        <time>2021-07-27T14:19:08.192Z</time>
      </trkpt>
      <trkpt lat="50.291682640090585" lon="5.669706389307976">
        <ele>426.64</ele>
        <time>2021-07-27T14:19:15.265Z</time>
      </trkpt>
      <trkpt lat="50.2917389664799" lon="5.670189606025815">
        <ele>427.3</ele>
        <time>2021-07-27T14:19:22.343Z</time>
      </trkpt>
      <trkpt lat="50.29179529286921" lon="5.670672822743654">
        <ele>428.06</ele>
        <time>2021-07-27T14:19:29.427Z</time>
      </trkpt>
      <trkpt lat="50.29185161925852" lon="5.6711560394614935">
        <ele>428.88</ele>
        <time>2021-07-27T14:19:36.516Z</time>
      </trkpt>
      <trkpt lat="50.291907945647836" lon="5.671639256179333">
        <ele>429.73</ele>
        <time>2021-07-27T14:19:43.610Z</time>
      </trkpt>
      <trkpt lat="50.29196435585618" lon="5.672122472897172">
        <ele>430.58</ele>
        <time>2021-07-27T14:19:50.709Z</time>
      </trkpt>
      <trkpt lat="50.29202068224549" lon="5.672605689615011">
        <ele>431.43</ele>
        <time>2021-07-27T14:19:57.813Z</time>
      </trkpt>
      <trkpt lat="50.292077008634806" lon="5.6730889063328505">
        <ele>432.33</ele>
        <time>2021-07-27T14:20:04.922Z</time>
      </trkpt>
      <trkpt lat="50.29213341884315" lon="5.67357212305069">
        <ele>433.27</ele>
        <time>2021-07-27T14:20:12.036Z</time>
      </trkpt>
      <trkpt lat="50.292159989476204" lon="5.673799943178892">
        <ele>434.14</ele>
        <time>2021-07-27T14:20:19.152Z</time>
      </trkpt>
      <trkpt lat="50.29219997115433" lon="5.67415994592011">
        <ele>435.02</ele>
        <time>2021-07-27T14:20:26.272Z</time>
      </trkpt>
      <trkpt lat="50.29225520789623" lon="5.674643497914076">
        <ele>435.89</ele>
        <time>2021-07-27T14:20:33.397Z</time>
      </trkpt>
      <trkpt lat="50.29231044463813" lon="5.67512696608901">
        <ele>436.66</ele>
        <time>2021-07-27T14:20:40.527Z</time>
      </trkpt>
      <trkpt lat="50.29231991618872" lon="5.6752099469304085">
        <ele>437.45</ele>
        <time>2021-07-27T14:20:47.658Z</time>
      </trkpt>
      <trkpt lat="50.292379930615425" lon="5.675529967993498">
        <ele>438.22</ele>
        <time>2021-07-27T14:20:54.792Z</time>
      </trkpt>
      <trkpt lat="50.2923399489373" lon="5.675559975206852">
        <ele>439.01</ele>
        <time>2021-07-27T14:21:01.927Z</time>
      </trkpt>
      <trkpt lat="50.29233919456601" lon="5.675560561940074">
        <ele>439.66</ele>
        <time>2021-07-27T14:21:09.062Z</time>
      </trkpt>
      <trkpt lat="50.292065693065524" lon="5.67580078728497">
        <ele>439.77</ele>
        <time>2021-07-27T14:21:16.202Z</time>
      </trkpt>
      <trkpt lat="50.29179152101278" lon="5.676041599363089">
        <ele>440.54</ele>
        <time>2021-07-27T14:21:23.347Z</time>
      </trkpt>
      <trkpt lat="50.29151726514101" lon="5.676282411441207">
        <ele>441.38</ele>
        <time>2021-07-27T14:21:30.497Z</time>
      </trkpt>
      <trkpt lat="50.29124300926924" lon="5.676523223519325">
        <ele>442.24</ele>
        <time>2021-07-27T14:21:37.652Z</time>
      </trkpt>
      <trkpt lat="50.290968753397465" lon="5.676764035597444">
        <ele>443.14</ele>
        <time>2021-07-27T14:21:44.812Z</time>
      </trkpt>
      <trkpt lat="50.290694581344724" lon="5.677004847675562">
        <ele>444.04</ele>
        <time>2021-07-27T14:21:51.977Z</time>
      </trkpt>
      <trkpt lat="50.29042032547295" lon="5.67724565975368">
        <ele>444.92</ele>
        <time>2021-07-27T14:21:59.147Z</time>
      </trkpt>
      <trkpt lat="50.29014606960118" lon="5.6774864718317986">
        <ele>445.86</ele>
        <time>2021-07-27T14:22:06.322Z</time>
      </trkpt>
      <trkpt lat="50.28995999135077" lon="5.677649918943644">
        <ele>446.77</ele>
        <time>2021-07-27T14:22:13.501Z</time>
      </trkpt>
      <trkpt lat="50.289686154574156" lon="5.677892072126269">
        <ele>447.81</ele>
        <time>2021-07-27T14:22:20.685Z</time>
      </trkpt>
      <trkpt lat="50.28941240161657" lon="5.678134141489863">
        <ele>448.89</ele>
        <time>2021-07-27T14:22:27.874Z</time>
      </trkpt>
      <trkpt lat="50.28913864865899" lon="5.6783762108534575">
        <ele>449.91</ele>
        <time>2021-07-27T14:22:35.068Z</time>
      </trkpt>
      <trkpt lat="50.28900998644531" lon="5.678489953279495">
        <ele>450.94</ele>
        <time>2021-07-27T14:22:42.264Z</time>
      </trkpt>
      <trkpt lat="50.288735227659345" lon="5.678729340434074">
        <ele>452.01</ele>
        <time>2021-07-27T14:22:49.465Z</time>
      </trkpt>
      <trkpt lat="50.28846046887338" lon="5.678968811407685">
        <ele>453.13</ele>
        <time>2021-07-27T14:22:56.671Z</time>
      </trkpt>
      <trkpt lat="50.28830992989242" lon="5.67909998819232">
        <ele>454.3</ele>
        <time>2021-07-27T14:23:03.880Z</time>
      </trkpt>
      <trkpt lat="50.28803609311581" lon="5.679341806098819">
        <ele>455.69</ele>
        <time>2021-07-27T14:23:11.094Z</time>
      </trkpt>
      <trkpt lat="50.28776225633919" lon="5.679583624005318">
        <ele>457.01</ele>
        <time>2021-07-27T14:23:18.313Z</time>
      </trkpt>
      <trkpt lat="50.28748841956258" lon="5.679825525730848">
        <ele>458.33</ele>
        <time>2021-07-27T14:23:25.537Z</time>
      </trkpt>
      <trkpt lat="50.28721449896693" lon="5.680067343637347">
        <ele>459.62</ele>
        <time>2021-07-27T14:23:32.766Z</time>
      </trkpt>
      <trkpt lat="50.28694066219032" lon="5.680309161543846">
        <ele>460.85</ele>
        <time>2021-07-27T14:23:40.000Z</time>
      </trkpt>
      <trkpt lat="50.286769922822714" lon="5.680459951981902">
        <ele>462.09</ele>
        <time>2021-07-27T14:23:47.237Z</time>
      </trkpt>
      <trkpt lat="50.286497762426734" lon="5.680706212297082">
        <ele>463.42</ele>
        <time>2021-07-27T14:23:54.479Z</time>
      </trkpt>
      <trkpt lat="50.28634998947382" lon="5.6808399874717">
        <ele>464.69</ele>
        <time>2021-07-27T14:24:01.724Z</time>
      </trkpt>
      <trkpt lat="50.286189978942275" lon="5.681029921397567">
        <ele>465.97</ele>
        <time>2021-07-27T14:24:08.972Z</time>
      </trkpt>
      <trkpt lat="50.28606995008886" lon="5.681199990212917">
        <ele>467.19</ele>
        <time>2021-07-27T14:24:16.223Z</time>
      </trkpt>
      <trkpt lat="50.28606944717467" lon="5.6812008284032345">
        <ele>467.81</ele>
        <time>2021-07-27T14:24:23.474Z</time>
      </trkpt>
      <trkpt lat="50.2859899867326" lon="5.681339967995882">
        <ele>468.39</ele>
        <time>2021-07-27T14:24:30.727Z</time>
      </trkpt>
      <trkpt lat="50.285849925130606" lon="5.681409956887364">
        <ele>469.69</ele>
        <time>2021-07-27T14:24:37.982Z</time>
      </trkpt>
      <trkpt lat="50.285739954560995" lon="5.681479945778847">
        <ele>470.97</ele>
        <time>2021-07-27T14:24:45.239Z</time>
      </trkpt>
      <trkpt lat="50.28564993292093" lon="5.681609949097037">
        <ele>472.21</ele>
        <time>2021-07-27T14:24:52.498Z</time>
      </trkpt>
      <trkpt lat="50.285589918494225" lon="5.681729977950454">
        <ele>473.47</ele>
        <time>2021-07-27T14:24:59.759Z</time>
      </trkpt>
      <trkpt lat="50.28552998788655" lon="5.681979926303029">
        <ele>474.77</ele>
        <time>2021-07-27T14:25:07.022Z</time>
      </trkpt>
      <trkpt lat="50.28550995513797" lon="5.6820799224078655">
        <ele>476.06</ele>
        <time>2021-07-27T14:25:14.286Z</time>
      </trkpt>
      <trkpt lat="50.28548992238939" lon="5.682359961792827">
        <ele>477.4</ele>
        <time>2021-07-27T14:25:21.553Z</time>
      </trkpt>
      <trkpt lat="50.28548992238939" lon="5.6825299467891455">
        <ele>478.76</ele>
        <time>2021-07-27T14:25:28.822Z</time>
      </trkpt>
      <trkpt lat="50.28551992960274" lon="5.682699931785464">
        <ele>480.12</ele>
        <time>2021-07-27T14:25:36.093Z</time>
      </trkpt>
      <trkpt lat="50.285549936816096" lon="5.682789953425527">
        <ele>481.47</ele>
        <time>2021-07-27T14:25:43.365Z</time>
      </trkpt>
      <trkpt lat="50.285549936816096" lon="5.682899923995137">
        <ele>482.85</ele>
        <time>2021-07-27T14:25:50.638Z</time>
      </trkpt>
      <trkpt lat="50.28553996235132" lon="5.683149956166744">
        <ele>484.28</ele>
        <time>2021-07-27T14:25:57.914Z</time>
      </trkpt>
      <trkpt lat="50.28556569479406" lon="5.68363937549293">
        <ele>485.74</ele>
        <time>2021-07-27T14:26:05.195Z</time>
      </trkpt>
      <trkpt lat="50.28557994402945" lon="5.683909943327308">
        <ele>487.17</ele>
        <time>2021-07-27T14:26:12.479Z</time>
      </trkpt>
      <trkpt lat="50.28562260791659" lon="5.684396512806416">
        <ele>488.76</ele>
        <time>2021-07-27T14:26:19.768Z</time>
      </trkpt>
      <trkpt lat="50.28566527180374" lon="5.684883082285523">
        <ele>490.41</ele>
        <time>2021-07-27T14:26:27.062Z</time>
      </trkpt>
      <trkpt lat="50.28570793569088" lon="5.685369651764631">
        <ele>492.15</ele>
        <time>2021-07-27T14:26:34.361Z</time>
      </trkpt>
      <trkpt lat="50.28575059957802" lon="5.685856221243739">
        <ele>493.79</ele>
        <time>2021-07-27T14:26:41.665Z</time>
      </trkpt>
      <trkpt lat="50.285793263465166" lon="5.686342706903815">
        <ele>495.28</ele>
        <time>2021-07-27T14:26:48.974Z</time>
      </trkpt>
      <trkpt lat="50.28583592735231" lon="5.686829276382923">
        <ele>496.69</ele>
        <time>2021-07-27T14:26:56.288Z</time>
      </trkpt>
      <trkpt lat="50.28587859123945" lon="5.687315845862031">
        <ele>498.05</ele>
        <time>2021-07-27T14:27:03.607Z</time>
      </trkpt>
      <trkpt lat="50.285921255126595" lon="5.687802415341139">
        <ele>499.3</ele>
        <time>2021-07-27T14:27:10.931Z</time>
      </trkpt>
      <trkpt lat="50.28596391901374" lon="5.688288984820247">
        <ele>500.78</ele>
        <time>2021-07-27T14:27:18.260Z</time>
      </trkpt>
      <trkpt lat="50.28600658290088" lon="5.6887755542993546">
        <ele>502.23</ele>
        <time>2021-07-27T14:27:25.594Z</time>
      </trkpt>
      <trkpt lat="50.286049246788025" lon="5.689262039959431">
        <ele>503.48</ele>
        <time>2021-07-27T14:27:32.933Z</time>
      </trkpt>
      <trkpt lat="50.28609191067517" lon="5.6897486094385386">
        <ele>504.58</ele>
        <time>2021-07-27T14:27:40.277Z</time>
      </trkpt>
      <trkpt lat="50.28609995730221" lon="5.689839972183108">
        <ele>505.72</ele>
        <time>2021-07-27T14:27:47.622Z</time>
      </trkpt>
      <trkpt lat="50.28610875830054" lon="5.690330900251865">
        <ele>506.79</ele>
        <time>2021-07-27T14:27:54.972Z</time>
      </trkpt>
      <trkpt lat="50.28610993176699" lon="5.690399967133999">
        <ele>507.87</ele>
        <time>2021-07-27T14:28:02.323Z</time>
      </trkpt>
      <trkpt lat="50.28609995730221" lon="5.690879998728633">
        <ele>508.91</ele>
        <time>2021-07-27T14:28:09.679Z</time>
      </trkpt>
      <trkpt lat="50.28605402447283" lon="5.691365813836455">
        <ele>509.97</ele>
        <time>2021-07-27T14:28:17.040Z</time>
      </trkpt>
      <trkpt lat="50.28600809164345" lon="5.691851628944278">
        <ele>510.96</ele>
        <time>2021-07-27T14:28:24.406Z</time>
      </trkpt>
      <trkpt lat="50.28596215881407" lon="5.6923374440521">
        <ele>511.98</ele>
        <time>2021-07-27T14:28:31.777Z</time>
      </trkpt>
      <trkpt lat="50.28591622598469" lon="5.692823259159923">
        <ele>512.97</ele>
        <time>2021-07-27T14:28:39.153Z</time>
      </trkpt>
      <trkpt lat="50.28587029315531" lon="5.693309158086777">
        <ele>513.88</ele>
        <time>2021-07-27T14:28:46.534Z</time>
      </trkpt>
      <trkpt lat="50.28583995066583" lon="5.6936299335211515">
        <ele>514.8</ele>
        <time>2021-07-27T14:28:53.918Z</time>
      </trkpt>
      <trkpt lat="50.285786893218756" lon="5.694113988429308">
        <ele>515.73</ele>
        <time>2021-07-27T14:29:01.307Z</time>
      </trkpt>
      <trkpt lat="50.285759987309575" lon="5.694359997287393">
        <ele>516.61</ele>
        <time>2021-07-27T14:29:08.699Z</time>
      </trkpt>
      <trkpt lat="50.28568999841809" lon="5.694829970598221">
        <ele>517.46</ele>
        <time>2021-07-27T14:29:16.096Z</time>
      </trkpt>
      <trkpt lat="50.28564993292093" lon="5.69497992284596">
        <ele>518.23</ele>
        <time>2021-07-27T14:29:23.494Z</time>
      </trkpt>
      <trkpt lat="50.28551992960274" lon="5.695369932800531">
        <ele>518.98</ele>
        <time>2021-07-27T14:29:30.897Z</time>
      </trkpt>
      <trkpt lat="50.28531792573631" lon="5.695746447890997">
        <ele>519.81</ele>
        <time>2021-07-27T14:29:38.305Z</time>
      </trkpt>
      <trkpt lat="50.28529998846352" lon="5.695779975503683">
        <ele>520.44</ele>
        <time>2021-07-27T14:29:45.713Z</time>
      </trkpt>
      <trkpt lat="50.28505506925285" lon="5.696088345721364">
        <ele>521.16</ele>
        <time>2021-07-27T14:29:53.126Z</time>
      </trkpt>
      <trkpt lat="50.285029923543334" lon="5.696119945496321">
        <ele>521.68</ele>
        <time>2021-07-27T14:30:00.540Z</time>
      </trkpt>
      <trkpt lat="50.2849299274385" lon="5.696209967136383">
        <ele>522.17</ele>
        <time>2021-07-27T14:30:07.956Z</time>
      </trkpt>
      <trkpt lat="50.28471996076405" lon="5.696349944919348">
        <ele>522.58</ele>
        <time>2021-07-27T14:30:15.375Z</time>
      </trkpt>
      <trkpt lat="50.28454997576773" lon="5.696409959346056">
        <ele>522.92</ele>
        <time>2021-07-27T14:30:22.797Z</time>
      </trkpt>
      <trkpt lat="50.2843099180609" lon="5.69645999930799">
        <ele>523.16</ele>
        <time>2021-07-27T14:30:30.223Z</time>
      </trkpt>
      <trkpt lat="50.283999955281615" lon="5.69641993381083">
        <ele>523.47</ele>
        <time>2021-07-27T14:30:37.654Z</time>
      </trkpt>
      <trkpt lat="50.28369393199682" lon="5.6963058561086655">
        <ele>523.79</ele>
        <time>2021-07-27T14:30:45.090Z</time>
      </trkpt>
      <trkpt lat="50.28340995311737" lon="5.696199992671609">
        <ele>524.14</ele>
        <time>2021-07-27T14:30:52.531Z</time>
      </trkpt>
      <trkpt lat="50.28310661204159" lon="5.6960696540772915">
        <ele>524.45</ele>
        <time>2021-07-27T14:30:59.977Z</time>
      </trkpt>
      <trkpt lat="50.28280318714678" lon="5.695939399302006">
        <ele>524.73</ele>
        <time>2021-07-27T14:31:07.428Z</time>
      </trkpt>
      <trkpt lat="50.282499846071005" lon="5.695809060707688">
        <ele>525.05</ele>
        <time>2021-07-27T14:31:14.884Z</time>
      </trkpt>
      <trkpt lat="50.28219650499523" lon="5.695678805932403">
        <ele>525.42</ele>
        <time>2021-07-27T14:31:22.345Z</time>
      </trkpt>
      <trkpt lat="50.28189308010042" lon="5.695548467338085">
        <ele>525.77</ele>
        <time>2021-07-27T14:31:29.811Z</time>
      </trkpt>
      <trkpt lat="50.281849997118115" lon="5.695529943332076">
        <ele>526.08</ele>
        <time>2021-07-27T14:31:37.278Z</time>
      </trkpt>
      <trkpt lat="50.28154548257589" lon="5.695406226441264">
        <ele>526.4</ele>
        <time>2021-07-27T14:31:44.750Z</time>
      </trkpt>
      <trkpt lat="50.28124096803367" lon="5.695282509550452">
        <ele>526.74</ele>
        <time>2021-07-27T14:31:52.227Z</time>
      </trkpt>
      <trkpt lat="50.28120995499194" lon="5.695269936695695">
        <ele>527.04</ele>
        <time>2021-07-27T14:31:59.704Z</time>
      </trkpt>
      <trkpt lat="50.28120920062065" lon="5.695269601419568">
        <ele>526.99</ele>
        <time>2021-07-27T14:32:07.181Z</time>
      </trkpt>
      <trkpt lat="50.28090577572584" lon="5.69514412432909">
        <ele>527.38</ele>
        <time>2021-07-27T14:32:14.663Z</time>
      </trkpt>
      <trkpt lat="50.28060168027878" lon="5.695018311962485">
        <ele>527.7</ele>
        <time>2021-07-27T14:32:22.150Z</time>
      </trkpt>
      <trkpt lat="50.28029750101268" lon="5.6948924995958805">
        <ele>528.01</ele>
        <time>2021-07-27T14:32:29.642Z</time>
      </trkpt>
      <trkpt lat="50.27999340556562" lon="5.694766771048307">
        <ele>528.3</ele>
        <time>2021-07-27T14:32:37.139Z</time>
      </trkpt>
      <trkpt lat="50.279689226299524" lon="5.694640958681703">
        <ele>528.58</ele>
        <time>2021-07-27T14:32:44.642Z</time>
      </trkpt>
      <trkpt lat="50.27938504703343" lon="5.694515146315098">
        <ele>528.84</ele>
        <time>2021-07-27T14:32:52.150Z</time>
      </trkpt>
      <trkpt lat="50.279080951586366" lon="5.694389333948493">
        <ele>528.96</ele>
        <time>2021-07-27T14:32:59.663Z</time>
      </trkpt>
      <trkpt lat="50.2790099568665" lon="5.694359997287393">
        <ele>529.09</ele>
        <time>2021-07-27T14:33:07.177Z</time>
      </trkpt>
      <trkpt lat="50.27870594523847" lon="5.694233262911439">
        <ele>529.28</ele>
        <time>2021-07-27T14:33:14.696Z</time>
      </trkpt>
      <trkpt lat="50.27840193361044" lon="5.694106612354517">
        <ele>529.48</ele>
        <time>2021-07-27T14:33:22.220Z</time>
      </trkpt>
      <trkpt lat="50.27809792198241" lon="5.693979961797595">
        <ele>529.47</ele>
        <time>2021-07-27T14:33:29.749Z</time>
      </trkpt>
      <trkpt lat="50.27779399417341" lon="5.693853311240673">
        <ele>529.27</ele>
        <time>2021-07-27T14:33:37.283Z</time>
      </trkpt>
      <trkpt lat="50.277489982545376" lon="5.693726660683751">
        <ele>529.02</ele>
        <time>2021-07-27T14:33:44.822Z</time>
      </trkpt>
      <trkpt lat="50.27732997201383" lon="5.693659940734506">
        <ele>528.84</ele>
        <time>2021-07-27T14:33:52.364Z</time>
      </trkpt>
      <trkpt lat="50.27702654711902" lon="5.69352968595922">
        <ele>528.68</ele>
        <time>2021-07-27T14:33:59.911Z</time>
      </trkpt>
      <trkpt lat="50.27672320604324" lon="5.693399431183934">
        <ele>528.38</ele>
        <time>2021-07-27T14:34:07.463Z</time>
      </trkpt>
      <trkpt lat="50.276419864967465" lon="5.6932691764086485">
        <ele>528.02</ele>
        <time>2021-07-27T14:34:15.020Z</time>
      </trkpt>
      <trkpt lat="50.276116440072656" lon="5.693138921633363">
        <ele>527.53</ele>
        <time>2021-07-27T14:34:22.582Z</time>
      </trkpt>
      <trkpt lat="50.27581309899688" lon="5.693008666858077">
        <ele>527.1</ele>
        <time>2021-07-27T14:34:30.149Z</time>
      </trkpt>
      <trkpt lat="50.2755599655211" lon="5.692899953573942">
        <ele>526.64</ele>
        <time>2021-07-27T14:34:37.720Z</time>
      </trkpt>
      <trkpt lat="50.27525704354048" lon="5.692767100408673">
        <ele>526.24</ele>
        <time>2021-07-27T14:34:45.296Z</time>
      </trkpt>
      <trkpt lat="50.27498999610543" lon="5.692649921402335">
        <ele>525.83</ele>
        <time>2021-07-27T14:34:52.877Z</time>
      </trkpt>
      <trkpt lat="50.27468145824969" lon="5.6925535295158625">
        <ele>525.33</ele>
        <time>2021-07-27T14:35:00.463Z</time>
      </trkpt>
      <trkpt lat="50.2745099645108" lon="5.692499969154596">
        <ele>524.86</ele>
        <time>2021-07-27T14:35:08.051Z</time>
      </trkpt>
      <trkpt lat="50.27419681660831" lon="5.69245177321136">
        <ele>524.4</ele>
        <time>2021-07-27T14:35:15.644Z</time>
      </trkpt>
      <trkpt lat="50.27411995455623" lon="5.692439954727888">
        <ele>523.94</ele>
        <time>2021-07-27T14:35:23.239Z</time>
      </trkpt>
      <trkpt lat="50.2738053817302" lon="5.692431656643748">
        <ele>523.56</ele>
        <time>2021-07-27T14:35:30.839Z</time>
      </trkpt>
      <trkpt lat="50.27373991906643" lon="5.692429980263114">
        <ele>523.13</ele>
        <time>2021-07-27T14:35:38.440Z</time>
      </trkpt>
      <trkpt lat="50.27342576533556" lon="5.692456886172295">
        <ele>522.65</ele>
        <time>2021-07-27T14:35:46.046Z</time>
      </trkpt>
      <trkpt lat="50.27338997460902" lon="5.692459987476468">
        <ele>522.24</ele>
        <time>2021-07-27T14:35:53.652Z</time>
      </trkpt>
      <trkpt lat="50.27315997518599" lon="5.692489994689822">
        <ele>521.79</ele>
        <time>2021-07-27T14:36:01.262Z</time>
      </trkpt>
      <trkpt lat="50.2728486713022" lon="5.692561827600002">
        <ele>521.36</ele>
        <time>2021-07-27T14:36:08.877Z</time>
      </trkpt>
      <trkpt lat="50.27276996523142" lon="5.692579932510853">
        <ele>521.06</ele>
        <time>2021-07-27T14:36:16.493Z</time>
      </trkpt>
      <trkpt lat="50.27245933189988" lon="5.692658554762602">
        <ele>520.83</ele>
        <time>2021-07-27T14:36:24.114Z</time>
      </trkpt>
      <trkpt lat="50.272148782387376" lon="5.692737093195319">
        <ele>520.7</ele>
        <time>2021-07-27T14:36:31.740Z</time>
      </trkpt>
      <trkpt lat="50.27183814905584" lon="5.692815715447068">
        <ele>520.54</ele>
        <time>2021-07-27T14:36:39.371Z</time>
      </trkpt>
      <trkpt lat="50.27152759954333" lon="5.6928942538797855">
        <ele>520.4</ele>
        <time>2021-07-27T14:36:47.007Z</time>
      </trkpt>
      <trkpt lat="50.271216966211796" lon="5.692972876131535">
        <ele>520.47</ele>
        <time>2021-07-27T14:36:54.649Z</time>
      </trkpt>
      <trkpt lat="50.271109929308295" lon="5.692999949678779">
        <ele>520.58</ele>
        <time>2021-07-27T14:37:02.292Z</time>
      </trkpt>
      <trkpt lat="50.27079929597676" lon="5.693078236654401">
        <ele>520.76</ele>
        <time>2021-07-27T14:37:09.940Z</time>
      </trkpt>
      <trkpt lat="50.27048866264522" lon="5.693156439810991">
        <ele>520.97</ele>
        <time>2021-07-27T14:37:17.593Z</time>
      </trkpt>
      <trkpt lat="50.270178113132715" lon="5.6932347267866135">
        <ele>521.36</ele>
        <time>2021-07-27T14:37:25.251Z</time>
      </trkpt>
      <trkpt lat="50.26986747980118" lon="5.693312929943204">
        <ele>521.89</ele>
        <time>2021-07-27T14:37:32.914Z</time>
      </trkpt>
      <trkpt lat="50.269799921661615" lon="5.693329945206642">
        <ele>522.46</ele>
        <time>2021-07-27T14:37:40.579Z</time>
      </trkpt>
      <trkpt lat="50.269490629434586" lon="5.693419799208641">
        <ele>523.17</ele>
        <time>2021-07-27T14:37:48.249Z</time>
      </trkpt>
      <trkpt lat="50.26948995888233" lon="5.6934199668467045">
        <ele>523.91</ele>
        <time>2021-07-27T14:37:55.919Z</time>
      </trkpt>
      <trkpt lat="50.26933992281556" lon="5.693489955738187">
        <ele>524.74</ele>
        <time>2021-07-27T14:38:03.591Z</time>
      </trkpt>
      <trkpt lat="50.26915996335447" lon="5.693579977378249">
        <ele>525.66</ele>
        <time>2021-07-27T14:38:11.266Z</time>
      </trkpt>
      <trkpt lat="50.26887992396951" lon="5.693759936839342">
        <ele>526.72</ele>
        <time>2021-07-27T14:38:18.946Z</time>
      </trkpt>
      <trkpt lat="50.26861120015383" lon="5.694015249609947">
        <ele>527.9</ele>
        <time>2021-07-27T14:38:26.631Z</time>
      </trkpt>
      <trkpt lat="50.26847993955016" lon="5.69413997232914">
        <ele>529.16</ele>
        <time>2021-07-27T14:38:34.318Z</time>
      </trkpt>
      <trkpt lat="50.26823996566236" lon="5.694449935108423">
        <ele>530.71</ele>
        <time>2021-07-27T14:38:42.010Z</time>
      </trkpt>
      <trkpt lat="50.26802882552147" lon="5.694813961163163">
        <ele>532.33</ele>
        <time>2021-07-27T14:38:49.707Z</time>
      </trkpt>
      <trkpt lat="50.267949951812625" lon="5.694949999451637">
        <ele>533.88</ele>
        <time>2021-07-27T14:38:57.406Z</time>
      </trkpt>
      <trkpt lat="50.26776270009577" lon="5.69534445181489">
        <ele>535.65</ele>
        <time>2021-07-27T14:39:05.110Z</time>
      </trkpt>
      <trkpt lat="50.267669996246696" lon="5.69553991779685">
        <ele>537.33</ele>
        <time>2021-07-27T14:39:12.817Z</time>
      </trkpt>
      <trkpt lat="50.267483750358224" lon="5.695935627445579">
        <ele>539.09</ele>
        <time>2021-07-27T14:39:20.529Z</time>
      </trkpt>
      <trkpt lat="50.26729750446975" lon="5.696331337094307">
        <ele>540.95</ele>
        <time>2021-07-27T14:39:28.246Z</time>
      </trkpt>
      <trkpt lat="50.26711125858128" lon="5.696727046743035">
        <ele>542.94</ele>
        <time>2021-07-27T14:39:35.968Z</time>
      </trkpt>
      <trkpt lat="50.26692509651184" lon="5.697122756391764">
        <ele>545.04</ele>
        <time>2021-07-27T14:39:43.695Z</time>
      </trkpt>
      <trkpt lat="50.26673885062337" lon="5.697518466040492">
        <ele>547.22</ele>
        <time>2021-07-27T14:39:51.427Z</time>
      </trkpt>
      <trkpt lat="50.26655268855393" lon="5.69791417568922">
        <ele>549.3</ele>
        <time>2021-07-27T14:39:59.164Z</time>
      </trkpt>
      <trkpt lat="50.26636644266546" lon="5.698309801518917">
        <ele>551.41</ele>
        <time>2021-07-27T14:40:06.906Z</time>
      </trkpt>
      <trkpt lat="50.266180196776986" lon="5.6987055111676455">
        <ele>553.51</ele>
        <time>2021-07-27T14:40:14.653Z</time>
      </trkpt>
      <trkpt lat="50.265994034707546" lon="5.699101220816374">
        <ele>555.5</ele>
        <time>2021-07-27T14:40:22.405Z</time>
      </trkpt>
      <trkpt lat="50.265807788819075" lon="5.699496930465102">
        <ele>557.59</ele>
        <time>2021-07-27T14:40:30.162Z</time>
      </trkpt>
      <trkpt lat="50.265621626749635" lon="5.699892640113831">
        <ele>559.84</ele>
        <time>2021-07-27T14:40:37.924Z</time>
      </trkpt>
      <trkpt lat="50.26543538086116" lon="5.700288349762559">
        <ele>562.17</ele>
        <time>2021-07-27T14:40:45.691Z</time>
      </trkpt>
      <trkpt lat="50.26524921879172" lon="5.700684059411287">
        <ele>564.51</ele>
        <time>2021-07-27T14:40:53.463Z</time>
      </trkpt>
      <trkpt lat="50.26506297290325" lon="5.701079769060016">
        <ele>566.83</ele>
        <time>2021-07-27T14:41:01.240Z</time>
      </trkpt>
      <trkpt lat="50.26487681083381" lon="5.701475394889712">
        <ele>569.23</ele>
        <time>2021-07-27T14:41:09.023Z</time>
      </trkpt>
      <trkpt lat="50.264789974316955" lon="5.70165996439755">
        <ele>571.55</ele>
        <time>2021-07-27T14:41:16.808Z</time>
      </trkpt>
      <trkpt lat="50.264603309333324" lon="5.702055087313056">
        <ele>573.92</ele>
        <time>2021-07-27T14:41:24.598Z</time>
      </trkpt>
      <trkpt lat="50.264416644349694" lon="5.702450294047594">
        <ele>576.25</ele>
        <time>2021-07-27T14:41:32.393Z</time>
      </trkpt>
      <trkpt lat="50.264229979366064" lon="5.7028454169631">
        <ele>578.5</ele>
        <time>2021-07-27T14:41:40.193Z</time>
      </trkpt>
      <trkpt lat="50.264043314382434" lon="5.7032406236976385">
        <ele>580.78</ele>
        <time>2021-07-27T14:41:47.998Z</time>
      </trkpt>
      <trkpt lat="50.263856649398804" lon="5.703635746613145">
        <ele>583.07</ele>
        <time>2021-07-27T14:41:55.808Z</time>
      </trkpt>
      <trkpt lat="50.26366998441517" lon="5.704030953347683">
        <ele>585.29</ele>
        <time>2021-07-27T14:42:03.623Z</time>
      </trkpt>
      <trkpt lat="50.26348331943154" lon="5.704426076263189">
        <ele>587.57</ele>
        <time>2021-07-27T14:42:11.443Z</time>
      </trkpt>
      <trkpt lat="50.26329665444791" lon="5.704821199178696">
        <ele>589.79</ele>
        <time>2021-07-27T14:42:19.268Z</time>
      </trkpt>
      <trkpt lat="50.26310998946428" lon="5.705216405913234">
        <ele>591.88</ele>
        <time>2021-07-27T14:42:27.098Z</time>
      </trkpt>
      <trkpt lat="50.26307998225093" lon="5.705279940739274">
        <ele>593.75</ele>
        <time>2021-07-27T14:42:34.929Z</time>
      </trkpt>
      <trkpt lat="50.26289323344827" lon="5.70567506365478">
        <ele>595.65</ele>
        <time>2021-07-27T14:42:42.765Z</time>
      </trkpt>
      <trkpt lat="50.26270656846464" lon="5.706070186570287">
        <ele>597.38</ele>
        <time>2021-07-27T14:42:50.606Z</time>
      </trkpt>
      <trkpt lat="50.262519819661975" lon="5.706465309485793">
        <ele>599.01</ele>
        <time>2021-07-27T14:42:58.452Z</time>
      </trkpt>
      <trkpt lat="50.262333154678345" lon="5.706860348582268">
        <ele>600.54</ele>
        <time>2021-07-27T14:43:06.303Z</time>
      </trkpt>
      <trkpt lat="50.26221999898553" lon="5.707099987193942">
        <ele>601.91</ele>
        <time>2021-07-27T14:43:14.157Z</time>
      </trkpt>
      <trkpt lat="50.26204749941826" lon="5.707510532811284">
        <ele>603.17</ele>
        <time>2021-07-27T14:43:22.016Z</time>
      </trkpt>
      <trkpt lat="50.26200994849205" lon="5.707599967718124">
        <ele>604.22</ele>
        <time>2021-07-27T14:43:29.876Z</time>
      </trkpt>
      <trkpt lat="50.26185999624431" lon="5.70797991938889">
        <ele>605.13</ele>
        <time>2021-07-27T14:43:37.741Z</time>
      </trkpt>
      <trkpt lat="50.26185957714915" lon="5.707980925217271">
        <ele>606.12</ele>
        <time>2021-07-27T14:43:45.606Z</time>
      </trkpt>
      <trkpt lat="50.26170124299824" lon="5.708403792232275">
        <ele>605.95</ele>
        <time>2021-07-27T14:43:53.476Z</time>
      </trkpt>
      <trkpt lat="50.261542573571205" lon="5.708827581256628">
        <ele>606.65</ele>
        <time>2021-07-27T14:44:01.351Z</time>
      </trkpt>
      <trkpt lat="50.261383820325136" lon="5.709251454100013">
        <ele>607.27</ele>
        <time>2021-07-27T14:44:09.231Z</time>
      </trkpt>
      <trkpt lat="50.2612251508981" lon="5.709675243124366">
        <ele>607.73</ele>
        <time>2021-07-27T14:44:17.116Z</time>
      </trkpt>
      <trkpt lat="50.26106639765203" lon="5.7100991159677505">
        <ele>608.1</ele>
        <time>2021-07-27T14:44:25.006Z</time>
      </trkpt>
      <trkpt lat="50.26090772822499" lon="5.710522904992104">
        <ele>608.48</ele>
        <time>2021-07-27T14:44:32.901Z</time>
      </trkpt>
      <trkpt lat="50.260748974978924" lon="5.710946777835488">
        <ele>608.88</ele>
        <time>2021-07-27T14:44:40.801Z</time>
      </trkpt>
      <trkpt lat="50.26059030555189" lon="5.711370566859841">
        <ele>609.19</ele>
        <time>2021-07-27T14:44:48.706Z</time>
      </trkpt>
      <trkpt lat="50.26043163612485" lon="5.711794439703226">
        <ele>609.32</ele>
        <time>2021-07-27T14:44:56.616Z</time>
      </trkpt>
      <trkpt lat="50.26027288287878" lon="5.712218228727579">
        <ele>609.44</ele>
        <time>2021-07-27T14:45:04.531Z</time>
      </trkpt>
      <trkpt lat="50.26011421345174" lon="5.712642101570964">
        <ele>609.69</ele>
        <time>2021-07-27T14:45:12.451Z</time>
      </trkpt>
      <trkpt lat="50.259955544024706" lon="5.713065890595317">
        <ele>610.04</ele>
        <time>2021-07-27T14:45:20.376Z</time>
      </trkpt>
      <trkpt lat="50.25979679077864" lon="5.713489763438702">
        <ele>610.43</ele>
        <time>2021-07-27T14:45:28.306Z</time>
      </trkpt>
      <trkpt lat="50.2596381213516" lon="5.713913552463055">
        <ele>610.8</ele>
        <time>2021-07-27T14:45:36.242Z</time>
      </trkpt>
      <trkpt lat="50.25947945192456" lon="5.714337425306439">
        <ele>611.13</ele>
        <time>2021-07-27T14:45:44.183Z</time>
      </trkpt>
      <trkpt lat="50.25933997705579" lon="5.714709917083383">
        <ele>611.51</ele>
        <time>2021-07-27T14:45:52.128Z</time>
      </trkpt>
      <trkpt lat="50.25918122380972" lon="5.715133789926767">
        <ele>611.89</ele>
        <time>2021-07-27T14:46:00.078Z</time>
      </trkpt>
      <trkpt lat="50.25902255438268" lon="5.71555757895112">
        <ele>612.33</ele>
        <time>2021-07-27T14:46:08.033Z</time>
      </trkpt>
      <trkpt lat="50.258863884955645" lon="5.715981451794505">
        <ele>612.92</ele>
        <time>2021-07-27T14:46:15.993Z</time>
      </trkpt>
      <trkpt lat="50.25870521552861" lon="5.716405240818858">
        <ele>613.47</ele>
        <time>2021-07-27T14:46:23.958Z</time>
      </trkpt>
      <trkpt lat="50.25854646228254" lon="5.716829029843211">
        <ele>613.95</ele>
        <time>2021-07-27T14:46:31.928Z</time>
      </trkpt>
      <trkpt lat="50.258519975468516" lon="5.716899940744042">
        <ele>614.49</ele>
        <time>2021-07-27T14:46:39.899Z</time>
      </trkpt>
      <trkpt lat="50.25836247950792" lon="5.717324903234839">
        <ele>615.12</ele>
        <time>2021-07-27T14:46:47.875Z</time>
      </trkpt>
      <trkpt lat="50.25820498354733" lon="5.717749781906605">
        <ele>615.76</ele>
        <time>2021-07-27T14:46:55.856Z</time>
      </trkpt>
      <trkpt lat="50.25804748758674" lon="5.71817466057837">
        <ele>616.4</ele>
        <time>2021-07-27T14:47:03.842Z</time>
      </trkpt>
      <trkpt lat="50.25798998773098" lon="5.718329977244139">
        <ele>617.04</ele>
        <time>2021-07-27T14:47:11.830Z</time>
      </trkpt>
      <trkpt lat="50.25783902965486" lon="5.718760639429092">
        <ele>617.79</ele>
        <time>2021-07-27T14:47:19.823Z</time>
      </trkpt>
      <trkpt lat="50.25768815539777" lon="5.719191301614046">
        <ele>618.6</ele>
        <time>2021-07-27T14:47:27.821Z</time>
      </trkpt>
      <trkpt lat="50.257537281140685" lon="5.719621963799">
        <ele>619.47</ele>
        <time>2021-07-27T14:47:35.824Z</time>
      </trkpt>
      <trkpt lat="50.257509956136346" lon="5.719699999317527">
        <ele>620.27</ele>
        <time>2021-07-27T14:47:43.828Z</time>
      </trkpt>
      <trkpt lat="50.25737006217241" lon="5.720139630138874">
        <ele>621.17</ele>
        <time>2021-07-27T14:47:51.837Z</time>
      </trkpt>
      <trkpt lat="50.25723016820848" lon="5.720579260960221">
        <ele>622.09</ele>
        <time>2021-07-27T14:47:59.851Z</time>
      </trkpt>
      <trkpt lat="50.2571599278599" lon="5.720799956470728">
        <ele>623.0</ele>
        <time>2021-07-27T14:48:07.868Z</time>
      </trkpt>
      <trkpt lat="50.25703486986458" lon="5.721250316128135">
        <ele>624.08</ele>
        <time>2021-07-27T14:48:15.890Z</time>
      </trkpt>
      <trkpt lat="50.25690972805023" lon="5.7217006757855415">
        <ele>625.09</ele>
        <time>2021-07-27T14:48:23.917Z</time>
      </trkpt>
      <trkpt lat="50.25685993954539" lon="5.721879964694381">
        <ele>626.07</ele>
        <time>2021-07-27T14:48:31.946Z</time>
      </trkpt>
      <trkpt lat="50.25673798285425" lon="5.7223324198275805">
        <ele>627.09</ele>
        <time>2021-07-27T14:48:39.980Z</time>
      </trkpt>
      <trkpt lat="50.25661610998213" lon="5.72278487496078">
        <ele>628.04</ele>
        <time>2021-07-27T14:48:48.019Z</time>
      </trkpt>
      <trkpt lat="50.25649415329099" lon="5.723237246274948">
        <ele>629.06</ele>
        <time>2021-07-27T14:48:56.063Z</time>
      </trkpt>
      <trkpt lat="50.25647998787463" lon="5.723289968445897">
        <ele>630.02</ele>
        <time>2021-07-27T14:49:04.107Z</time>
      </trkpt>
      <trkpt lat="50.25634688325226" lon="5.723734712228179">
        <ele>630.96</ele>
        <time>2021-07-27T14:49:12.156Z</time>
      </trkpt>
      <trkpt lat="50.2562137786299" lon="5.724179372191429">
        <ele>631.99</ele>
        <time>2021-07-27T14:49:20.211Z</time>
      </trkpt>
      <trkpt lat="50.256080674007535" lon="5.724624115973711">
        <ele>632.88</ele>
        <time>2021-07-27T14:49:28.271Z</time>
      </trkpt>
      <trkpt lat="50.256069945171475" lon="5.724659990519285">
        <ele>633.8</ele>
        <time>2021-07-27T14:49:36.331Z</time>
      </trkpt>
      <trkpt lat="50.25592946447432" lon="5.725099118426442">
        <ele>634.78</ele>
        <time>2021-07-27T14:49:44.396Z</time>
      </trkpt>
      <trkpt lat="50.255829971283674" lon="5.725409919396043">
        <ele>635.7</ele>
        <time>2021-07-27T14:49:52.465Z</time>
      </trkpt>
      <trkpt lat="50.25567532517016" lon="5.725837396457791">
        <ele>636.72</ele>
        <time>2021-07-27T14:50:00.539Z</time>
      </trkpt>
      <trkpt lat="50.255520679056644" lon="5.726264789700508">
        <ele>637.69</ele>
        <time>2021-07-27T14:50:08.618Z</time>
      </trkpt>
      <trkpt lat="50.25536603294313" lon="5.726692182943225">
        <ele>638.59</ele>
        <time>2021-07-27T14:50:16.702Z</time>
      </trkpt>
      <trkpt lat="50.25527995079756" lon="5.7269299775362015">
        <ele>639.4</ele>
        <time>2021-07-27T14:50:24.789Z</time>
      </trkpt>
      <trkpt lat="50.255109714344144" lon="5.727342702448368">
        <ele>640.18</ele>
        <time>2021-07-27T14:50:32.881Z</time>
      </trkpt>
      <trkpt lat="50.254949955269694" lon="5.727729946374893">
        <ele>640.89</ele>
        <time>2021-07-27T14:50:40.977Z</time>
      </trkpt>
      <trkpt lat="50.254772594198585" lon="5.7281353790313005">
        <ele>641.55</ele>
        <time>2021-07-27T14:50:49.078Z</time>
      </trkpt>
      <trkpt lat="50.254595233127475" lon="5.728540727868676">
        <ele>642.24</ele>
        <time>2021-07-27T14:50:57.184Z</time>
      </trkpt>
      <trkpt lat="50.254417872056365" lon="5.728946076706052">
        <ele>642.94</ele>
        <time>2021-07-27T14:51:05.295Z</time>
      </trkpt>
      <trkpt lat="50.25431997142732" lon="5.729169957339764">
        <ele>643.55</ele>
        <time>2021-07-27T14:51:13.409Z</time>
      </trkpt>
      <trkpt lat="50.25413146242499" lon="5.729562984779477">
        <ele>644.11</ele>
        <time>2021-07-27T14:51:21.528Z</time>
      </trkpt>
      <trkpt lat="50.2539430372417" lon="5.729955928400159">
        <ele>644.59</ele>
        <time>2021-07-27T14:51:29.652Z</time>
      </trkpt>
      <trkpt lat="50.2537546120584" lon="5.730348955839872">
        <ele>645.03</ele>
        <time>2021-07-27T14:51:37.781Z</time>
      </trkpt>
      <trkpt lat="50.25356610305607" lon="5.730741983279586">
        <ele>645.48</ele>
        <time>2021-07-27T14:51:45.915Z</time>
      </trkpt>
      <trkpt lat="50.25349996984005" lon="5.730879949405789">
        <ele>645.83</ele>
        <time>2021-07-27T14:51:54.051Z</time>
      </trkpt>
      <trkpt lat="50.25334993377328" lon="5.7311599887907505">
        <ele>646.22</ele>
        <time>2021-07-27T14:52:02.191Z</time>
      </trkpt>
      <trkpt lat="50.25314457714558" lon="5.731531726196408">
        <ele>646.59</ele>
        <time>2021-07-27T14:52:10.336Z</time>
      </trkpt>
      <trkpt lat="50.25293913669884" lon="5.731903547421098">
        <ele>646.84</ele>
        <time>2021-07-27T14:52:18.486Z</time>
      </trkpt>
      <trkpt lat="50.25273378007114" lon="5.7322752848267555">
        <ele>647.0</ele>
        <time>2021-07-27T14:52:26.641Z</time>
      </trkpt>
      <trkpt lat="50.25255993939936" lon="5.732589941471815">
        <ele>647.15</ele>
        <time>2021-07-27T14:52:34.800Z</time>
      </trkpt>
      <trkpt lat="50.25234628468752" lon="5.73295027948916">
        <ele>647.16</ele>
        <time>2021-07-27T14:52:42.964Z</time>
      </trkpt>
      <trkpt lat="50.25213271379471" lon="5.733310533687472">
        <ele>647.13</ele>
        <time>2021-07-27T14:52:51.133Z</time>
      </trkpt>
      <trkpt lat="50.251919059082866" lon="5.733670871704817">
        <ele>647.12</ele>
        <time>2021-07-27T14:52:59.307Z</time>
      </trkpt>
      <trkpt lat="50.25188997387886" lon="5.733719989657402">
        <ele>647.01</ele>
        <time>2021-07-27T14:53:07.482Z</time>
      </trkpt>
      <trkpt lat="50.25167405605316" lon="5.734076974913478">
        <ele>646.92</ele>
        <time>2021-07-27T14:53:15.662Z</time>
      </trkpt>
      <trkpt lat="50.251458222046494" lon="5.7344340439885855">
        <ele>646.71</ele>
        <time>2021-07-27T14:53:23.847Z</time>
      </trkpt>
      <trkpt lat="50.251242304220796" lon="5.734791029244661">
        <ele>646.43</ele>
        <time>2021-07-27T14:53:32.037Z</time>
      </trkpt>
      <trkpt lat="50.25110995396972" lon="5.735009964555502">
        <ele>646.11</ele>
        <time>2021-07-27T14:53:40.230Z</time>
      </trkpt>
      <trkpt lat="50.25089361704886" lon="5.735366279259324">
        <ele>645.72</ele>
        <time>2021-07-27T14:53:48.428Z</time>
      </trkpt>
      <trkpt lat="50.250677280128" lon="5.735722593963146">
        <ele>645.33</ele>
        <time>2021-07-27T14:53:56.631Z</time>
      </trkpt>
      <trkpt lat="50.250460943207145" lon="5.736078908666968">
        <ele>644.91</ele>
        <time>2021-07-27T14:54:04.839Z</time>
      </trkpt>
      <trkpt lat="50.25024460628629" lon="5.736435307189822">
        <ele>644.53</ele>
        <time>2021-07-27T14:54:13.052Z</time>
      </trkpt>
      <trkpt lat="50.25008996017277" lon="5.736689949408174">
        <ele>644.21</ele>
        <time>2021-07-27T14:54:21.269Z</time>
      </trkpt>
      <trkpt lat="50.24987337179482" lon="5.7370460126549006">
        <ele>643.87</ele>
        <time>2021-07-27T14:54:29.491Z</time>
      </trkpt>
      <trkpt lat="50.2496568672359" lon="5.737401992082596">
        <ele>643.72</ele>
        <time>2021-07-27T14:54:37.718Z</time>
      </trkpt>
      <trkpt lat="50.24949995800853" lon="5.737659987062216">
        <ele>643.59</ele>
        <time>2021-07-27T14:54:45.949Z</time>
      </trkpt>
      <trkpt lat="50.249319998547435" lon="5.737729975953698">
        <ele>643.51</ele>
        <time>2021-07-27T14:54:54.183Z</time>
      </trkpt>
      <trkpt lat="50.249299965798855" lon="5.737709943205118">
        <ele>643.48</ele>
        <time>2021-07-27T14:55:02.417Z</time>
      </trkpt>
      <trkpt lat="50.24923995137215" lon="5.737699968740344">
        <ele>643.51</ele>
        <time>2021-07-27T14:55:10.652Z</time>
      </trkpt>
      <trkpt lat="50.24920994415879" lon="5.737699968740344">
        <ele>643.58</ele>
        <time>2021-07-27T14:55:18.888Z</time>
      </trkpt>
      <trkpt lat="50.249169962480664" lon="5.737459994852543">
        <ele>643.74</ele>
        <time>2021-07-27T14:55:27.126Z</time>
      </trkpt>
      <trkpt lat="50.24915998801589" lon="5.737069984897971">
        <ele>643.94</ele>
        <time>2021-07-27T14:55:35.368Z</time>
      </trkpt>
      <trkpt lat="50.249154875054955" lon="5.736579308286309">
        <ele>644.2</ele>
        <time>2021-07-27T14:55:43.615Z</time>
      </trkpt>
      <trkpt lat="50.249149929732084" lon="5.736099947243929">
        <ele>644.52</ele>
        <time>2021-07-27T14:55:51.867Z</time>
      </trkpt>
      <trkpt lat="50.24912277236581" lon="5.735611114650965">
        <ele>644.99</ele>
        <time>2021-07-27T14:56:00.124Z</time>
      </trkpt>
      <trkpt lat="50.249109948053956" lon="5.735379941761494">
        <ele>645.35</ele>
        <time>2021-07-27T14:56:08.383Z</time>
      </trkpt>
      <trkpt lat="50.24906326085329" lon="5.734894629567862">
        <ele>645.81</ele>
        <time>2021-07-27T14:56:16.648Z</time>
      </trkpt>
      <trkpt lat="50.249059991911054" lon="5.734859928488731">
        <ele>646.16</ele>
        <time>2021-07-27T14:56:24.913Z</time>
      </trkpt>
      <trkpt lat="50.24905982427299" lon="5.734858922660351">
        <ele>646.32</ele>
        <time>2021-07-27T14:56:33.178Z</time>
      </trkpt>
      <trkpt lat="50.24900550954044" lon="5.73437662795186">
        <ele>646.57</ele>
        <time>2021-07-27T14:56:41.448Z</time>
      </trkpt>
      <trkpt lat="50.248979944735765" lon="5.734149981290102">
        <ele>646.95</ele>
        <time>2021-07-27T14:56:49.720Z</time>
      </trkpt>
      <trkpt lat="50.24891020730138" lon="5.733671458438039">
        <ele>647.3</ele>
        <time>2021-07-27T14:56:57.997Z</time>
      </trkpt>
      <trkpt lat="50.24890995584428" lon="5.733669949695468">
        <ele>647.63</ele>
        <time>2021-07-27T14:57:06.274Z</time>
      </trkpt>
      <trkpt lat="50.2488399669528" lon="5.733379935845733">
        <ele>647.92</ele>
        <time>2021-07-27T14:57:14.555Z</time>
      </trkpt>
      <trkpt lat="50.24873938411474" lon="5.732914991676807">
        <ele>648.18</ele>
        <time>2021-07-27T14:57:22.841Z</time>
      </trkpt>
      <trkpt lat="50.248638885095716" lon="5.73244996368885">
        <ele>648.42</ele>
        <time>2021-07-27T14:57:31.132Z</time>
      </trkpt>
      <trkpt lat="50.248599993065" lon="5.732269920408726">
        <ele>648.64</ele>
        <time>2021-07-27T14:57:39.425Z</time>
      </trkpt>
      <trkpt lat="50.24847191758454" lon="5.7318217400461435">
        <ele>648.77</ele>
        <time>2021-07-27T14:57:47.723Z</time>
      </trkpt>
      <trkpt lat="50.248459931463" lon="5.731779998168349">
        <ele>648.92</ele>
        <time>2021-07-27T14:57:56.021Z</time>
      </trkpt>
      <trkpt lat="50.24835993535817" lon="5.73145997710526">
        <ele>649.03</ele>
        <time>2021-07-27T14:58:04.323Z</time>
      </trkpt>
      <trkpt lat="50.24822121486068" lon="5.7310195080935955">
        <ele>649.12</ele>
        <time>2021-07-27T14:58:12.630Z</time>
      </trkpt>
      <trkpt lat="50.24812993593514" lon="5.7307299971580505">
        <ele>649.19</ele>
        <time>2021-07-27T14:58:20.940Z</time>
      </trkpt>
      <trkpt lat="50.24795735254884" lon="5.730319619178772">
        <ele>649.19</ele>
        <time>2021-07-27T14:58:29.255Z</time>
      </trkpt>
      <trkpt lat="50.24778485298157" lon="5.729909325018525">
        <ele>649.13</ele>
        <time>2021-07-27T14:58:37.575Z</time>
      </trkpt>
      <trkpt lat="50.24767999537289" lon="5.729659963399172">
        <ele>649.03</ele>
        <time>2021-07-27T14:58:45.898Z</time>
      </trkpt>
      <trkpt lat="50.247539933770895" lon="5.729329967871308">
        <ele>648.9</ele>
        <time>2021-07-27T14:58:54.225Z</time>
      </trkpt>
      <trkpt lat="50.24733834899962" lon="5.728953201323748">
        <ele>648.67</ele>
        <time>2021-07-27T14:59:02.557Z</time>
      </trkpt>
      <trkpt lat="50.24715998210013" lon="5.728619936853647">
        <ele>648.48</ele>
        <time>2021-07-27T14:59:10.894Z</time>
      </trkpt>
      <trkpt lat="50.24709996767342" lon="5.728519940748811">
        <ele>648.27</ele>
        <time>2021-07-27T14:59:19.232Z</time>
      </trkpt>
      <trkpt lat="50.24709954857826" lon="5.728519270196557">
        <ele>648.28</ele>
        <time>2021-07-27T14:59:27.570Z</time>
      </trkpt>
      <trkpt lat="50.24688438512385" lon="5.728162536397576">
        <ele>648.09</ele>
        <time>2021-07-27T14:59:35.913Z</time>
      </trkpt>
      <trkpt lat="50.24666880257428" lon="5.727805132046342">
        <ele>647.81</ele>
        <time>2021-07-27T14:59:44.261Z</time>
      </trkpt>
      <trkpt lat="50.246453220024705" lon="5.727447643876076">
        <ele>647.39</ele>
        <time>2021-07-27T14:59:52.614Z</time>
      </trkpt>
      <trkpt lat="50.24623763747513" lon="5.727090239524841">
        <ele>646.91</ele>
        <time>2021-07-27T15:00:00.972Z</time>
      </trkpt>
      <trkpt lat="50.24602205492556" lon="5.726732835173607">
        <ele>646.41</ele>
        <time>2021-07-27T15:00:09.335Z</time>
      </trkpt>
      <trkpt lat="50.24580655619502" lon="5.726375347003341">
        <ele>645.9</ele>
        <time>2021-07-27T15:00:17.703Z</time>
      </trkpt>
      <trkpt lat="50.24559097364545" lon="5.726017942652106">
        <ele>645.31</ele>
        <time>2021-07-27T15:00:26.076Z</time>
      </trkpt>
      <trkpt lat="50.24554998613894" lon="5.725949965417385">
        <ele>644.72</ele>
        <time>2021-07-27T15:00:34.450Z</time>
      </trkpt>
      <trkpt lat="50.245334738865495" lon="5.72559205815196">
        <ele>644.07</ele>
        <time>2021-07-27T15:00:42.829Z</time>
      </trkpt>
      <trkpt lat="50.24511940777302" lon="5.725234150886536">
        <ele>643.27</ele>
        <time>2021-07-27T15:00:51.214Z</time>
      </trkpt>
      <trkpt lat="50.24490416049957" lon="5.724876327440143">
        <ele>642.52</ele>
        <time>2021-07-27T15:00:59.604Z</time>
      </trkpt>
      <trkpt lat="50.24468891322613" lon="5.724518420174718">
        <ele>641.85</ele>
        <time>2021-07-27T15:01:07.999Z</time>
      </trkpt>
      <trkpt lat="50.24447366595268" lon="5.724160512909293">
        <ele>641.14</ele>
        <time>2021-07-27T15:01:16.399Z</time>
      </trkpt>
      <trkpt lat="50.24425841867924" lon="5.7238026056438684">
        <ele>640.36</ele>
        <time>2021-07-27T15:01:24.804Z</time>
      </trkpt>
      <trkpt lat="50.24404317140579" lon="5.723444698378444">
        <ele>639.52</ele>
        <time>2021-07-27T15:01:33.214Z</time>
      </trkpt>
      <trkpt lat="50.24388995021582" lon="5.723189972341061">
        <ele>638.71</ele>
        <time>2021-07-27T15:01:41.627Z</time>
      </trkpt>
      <trkpt lat="50.24370999075472" lon="5.722869951277971">
        <ele>637.95</ele>
        <time>2021-07-27T15:01:50.045Z</time>
      </trkpt>
      <trkpt lat="50.243492145091295" lon="5.722515815868974">
        <ele>637.24</ele>
        <time>2021-07-27T15:01:58.468Z</time>
      </trkpt>
      <trkpt lat="50.2432743832469" lon="5.722161680459976">
        <ele>636.52</ele>
        <time>2021-07-27T15:02:06.896Z</time>
      </trkpt>
      <trkpt lat="50.2430566214025" lon="5.721807545050979">
        <ele>635.69</ele>
        <time>2021-07-27T15:02:15.329Z</time>
      </trkpt>
      <trkpt lat="50.242838859558105" lon="5.721453409641981">
        <ele>634.87</ele>
        <time>2021-07-27T15:02:23.767Z</time>
      </trkpt>
      <trkpt lat="50.24262101389468" lon="5.721099274232984">
        <ele>634.09</ele>
        <time>2021-07-27T15:02:32.210Z</time>
      </trkpt>
      <trkpt lat="50.24255999363959" lon="5.720999948680401">
        <ele>633.4</ele>
        <time>2021-07-27T15:02:40.654Z</time>
      </trkpt>
      <trkpt lat="50.24234474636614" lon="5.720641957595944">
        <ele>632.73</ele>
        <time>2021-07-27T15:02:49.103Z</time>
      </trkpt>
      <trkpt lat="50.24212958291173" lon="5.720283966511488">
        <ele>632.04</ele>
        <time>2021-07-27T15:02:57.557Z</time>
      </trkpt>
      <trkpt lat="50.241914419457316" lon="5.719926059246063">
        <ele>631.32</ele>
        <time>2021-07-27T15:03:06.016Z</time>
      </trkpt>
      <trkpt lat="50.2416992560029" lon="5.719568068161607">
        <ele>630.66</ele>
        <time>2021-07-27T15:03:14.480Z</time>
      </trkpt>
      <trkpt lat="50.24148409254849" lon="5.71921007707715">
        <ele>630.14</ele>
        <time>2021-07-27T15:03:22.949Z</time>
      </trkpt>
      <trkpt lat="50.241459952667356" lon="5.719169927760959">
        <ele>629.77</ele>
        <time>2021-07-27T15:03:31.419Z</time>
      </trkpt>
      <trkpt lat="50.24124369956553" lon="5.718813529238105">
        <ele>629.47</ele>
        <time>2021-07-27T15:03:39.894Z</time>
      </trkpt>
      <trkpt lat="50.241027446463704" lon="5.718457130715251">
        <ele>629.31</ele>
        <time>2021-07-27T15:03:48.374Z</time>
      </trkpt>
      <trkpt lat="50.24081127718091" lon="5.718100732192397">
        <ele>629.33</ele>
        <time>2021-07-27T15:03:56.859Z</time>
      </trkpt>
      <trkpt lat="50.240595024079084" lon="5.7177442498505116">
        <ele>629.27</ele>
        <time>2021-07-27T15:04:05.349Z</time>
      </trkpt>
      <trkpt lat="50.24037877097726" lon="5.717387851327658">
        <ele>629.23</ele>
        <time>2021-07-27T15:04:13.844Z</time>
      </trkpt>
      <trkpt lat="50.24016251787543" lon="5.717031452804804">
        <ele>629.22</ele>
        <time>2021-07-27T15:04:22.344Z</time>
      </trkpt>
      <trkpt lat="50.23994634859264" lon="5.71667505428195">
        <ele>629.43</ele>
        <time>2021-07-27T15:04:30.849Z</time>
      </trkpt>
      <trkpt lat="50.23973009549081" lon="5.716318571940064">
        <ele>629.64</ele>
        <time>2021-07-27T15:04:39.359Z</time>
      </trkpt>
      <trkpt lat="50.23951384238899" lon="5.715962173417211">
        <ele>629.94</ele>
        <time>2021-07-27T15:04:47.874Z</time>
      </trkpt>
      <trkpt lat="50.23929767310619" lon="5.715605774894357">
        <ele>630.34</ele>
        <time>2021-07-27T15:04:56.394Z</time>
      </trkpt>
      <trkpt lat="50.23908142000437" lon="5.715249292552471">
        <ele>630.77</ele>
        <time>2021-07-27T15:05:04.919Z</time>
      </trkpt>
      <trkpt lat="50.23886516690254" lon="5.714892894029617">
        <ele>631.21</ele>
        <time>2021-07-27T15:05:13.450Z</time>
      </trkpt>
      <trkpt lat="50.238729966804385" lon="5.714669935405254">
        <ele>631.78</ele>
        <time>2021-07-27T15:05:21.984Z</time>
      </trkpt>
      <trkpt lat="50.238514468073845" lon="5.71431253105402">
        <ele>632.37</ele>
        <time>2021-07-27T15:05:30.523Z</time>
      </trkpt>
      <trkpt lat="50.23831992410123" lon="5.713989995419979">
        <ele>632.94</ele>
        <time>2021-07-27T15:05:39.066Z</time>
      </trkpt>
      <trkpt lat="50.23831958882511" lon="5.713989408686757">
        <ele>632.88</ele>
        <time>2021-07-27T15:05:47.609Z</time>
      </trkpt>
      <trkpt lat="50.23810341954231" lon="5.7136340998113155">
        <ele>633.61</ele>
        <time>2021-07-27T15:05:56.157Z</time>
      </trkpt>
      <trkpt lat="50.23788683116436" lon="5.713278204202652">
        <ele>634.42</ele>
        <time>2021-07-27T15:06:04.710Z</time>
      </trkpt>
      <trkpt lat="50.23767024278641" lon="5.712922224774957">
        <ele>635.23</ele>
        <time>2021-07-27T15:06:13.268Z</time>
      </trkpt>
      <trkpt lat="50.237453654408455" lon="5.712566329166293">
        <ele>636.01</ele>
        <time>2021-07-27T15:06:21.831Z</time>
      </trkpt>
      <trkpt lat="50.2372370660305" lon="5.71221043355763">
        <ele>636.87</ele>
        <time>2021-07-27T15:06:30.399Z</time>
      </trkpt>
      <trkpt lat="50.23702056147158" lon="5.711854537948966">
        <ele>637.71</ele>
        <time>2021-07-27T15:06:38.973Z</time>
      </trkpt>
      <trkpt lat="50.23680397309363" lon="5.7114986423403025">
        <ele>638.52</ele>
        <time>2021-07-27T15:06:47.552Z</time>
      </trkpt>
      <trkpt lat="50.236587384715676" lon="5.711142746731639">
        <ele>639.19</ele>
        <time>2021-07-27T15:06:56.136Z</time>
      </trkpt>
      <trkpt lat="50.236370796337724" lon="5.710786851122975">
        <ele>639.74</ele>
        <time>2021-07-27T15:07:04.725Z</time>
      </trkpt>
      <trkpt lat="50.2361542917788" lon="5.710430955514312">
        <ele>640.13</ele>
        <time>2021-07-27T15:07:13.319Z</time>
      </trkpt>
      <trkpt lat="50.23593770340085" lon="5.710075059905648">
        <ele>640.34</ele>
        <time>2021-07-27T15:07:21.918Z</time>
      </trkpt>
      <trkpt lat="50.2357211150229" lon="5.709719164296985">
        <ele>640.53</ele>
        <time>2021-07-27T15:07:30.522Z</time>
      </trkpt>
      <trkpt lat="50.23550461046398" lon="5.709363268688321">
        <ele>640.72</ele>
        <time>2021-07-27T15:07:39.131Z</time>
      </trkpt>
      <trkpt lat="50.235288022086024" lon="5.7090073730796576">
        <ele>640.8</ele>
        <time>2021-07-27T15:07:47.745Z</time>
      </trkpt>
      <trkpt lat="50.23507143370807" lon="5.708651477470994">
        <ele>640.74</ele>
        <time>2021-07-27T15:07:56.364Z</time>
      </trkpt>
      <trkpt lat="50.23485492914915" lon="5.70829558186233">
        <ele>640.57</ele>
        <time>2021-07-27T15:08:04.988Z</time>
      </trkpt>
      <trkpt lat="50.2346383407712" lon="5.707939686253667">
        <ele>640.41</ele>
        <time>2021-07-27T15:08:13.617Z</time>
      </trkpt>
      <trkpt lat="50.23442183621228" lon="5.707583790645003">
        <ele>640.17</ele>
        <time>2021-07-27T15:08:22.251Z</time>
      </trkpt>
      <trkpt lat="50.23430993780494" lon="5.7073999755084515">
        <ele>639.87</ele>
        <time>2021-07-27T15:08:30.888Z</time>
      </trkpt>
      <trkpt lat="50.234104581177235" lon="5.707028321921825">
        <ele>639.49</ele>
        <time>2021-07-27T15:08:39.530Z</time>
      </trkpt>
      <trkpt lat="50.23409997113049" lon="5.707019940018654">
        <ele>639.11</ele>
        <time>2021-07-27T15:08:48.172Z</time>
      </trkpt>
      <trkpt lat="50.2338817063719" lon="5.706666558980942">
        <ele>638.73</ele>
        <time>2021-07-27T15:08:56.819Z</time>
      </trkpt>
      <trkpt lat="50.23366344161332" lon="5.70631317794323">
        <ele>638.29</ele>
        <time>2021-07-27T15:09:05.471Z</time>
      </trkpt>
      <trkpt lat="50.23344526067376" lon="5.705959796905518">
        <ele>637.72</ele>
        <time>2021-07-27T15:09:14.128Z</time>
      </trkpt>
      <trkpt lat="50.233226995915174" lon="5.7056064158678055">
        <ele>637.02</ele>
        <time>2021-07-27T15:09:22.790Z</time>
      </trkpt>
      <trkpt lat="50.23300873115659" lon="5.705253034830093">
        <ele>636.26</ele>
        <time>2021-07-27T15:09:31.457Z</time>
      </trkpt>
      <trkpt lat="50.23279055021703" lon="5.704899653792381">
        <ele>635.55</ele>
        <time>2021-07-27T15:09:40.129Z</time>
      </trkpt>
      <trkpt lat="50.232572285458446" lon="5.704546272754669">
        <ele>635.06</ele>
        <time>2021-07-27T15:09:48.806Z</time>
      </trkpt>
      <trkpt lat="50.23235410451889" lon="5.704192891716957">
        <ele>634.66</ele>
        <time>2021-07-27T15:09:57.488Z</time>
      </trkpt>
      <trkpt lat="50.2321358397603" lon="5.703839510679245">
        <ele>634.25</ele>
        <time>2021-07-27T15:10:06.175Z</time>
      </trkpt>
      <trkpt lat="50.23212997242808" lon="5.703829955309629">
        <ele>633.74</ele>
        <time>2021-07-27T15:10:14.862Z</time>
      </trkpt>
      <trkpt lat="50.23191933520138" lon="5.703465510159731">
        <ele>633.25</ele>
        <time>2021-07-27T15:10:23.554Z</time>
      </trkpt>
      <trkpt lat="50.2318699657917" lon="5.7033799309283495">
        <ele>632.77</ele>
        <time>2021-07-27T15:10:32.247Z</time>
      </trkpt>
      <trkpt lat="50.23165295831859" lon="5.70302470587194">
        <ele>632.24</ele>
        <time>2021-07-27T15:10:40.946Z</time>
      </trkpt>
      <trkpt lat="50.23143603466451" lon="5.702669396996498">
        <ele>631.85</ele>
        <time>2021-07-27T15:10:49.650Z</time>
      </trkpt>
      <trkpt lat="50.2312190271914" lon="5.702314171940088">
        <ele>631.45</ele>
        <time>2021-07-27T15:10:58.359Z</time>
      </trkpt>
      <trkpt lat="50.23100210353732" lon="5.701958946883678">
        <ele>631.0</ele>
        <time>2021-07-27T15:11:07.073Z</time>
      </trkpt>
      <trkpt lat="50.23078509606421" lon="5.701603638008237">
        <ele>630.53</ele>
        <time>2021-07-27T15:11:15.792Z</time>
      </trkpt>
      <trkpt lat="50.23056817241013" lon="5.701248412951827">
        <ele>630.14</ele>
        <time>2021-07-27T15:11:24.516Z</time>
      </trkpt>
      <trkpt lat="50.23035116493702" lon="5.7008931040763855">
        <ele>629.8</ele>
        <time>2021-07-27T15:11:33.245Z</time>
      </trkpt>
      <trkpt lat="50.23013424128294" lon="5.700537879019976">
        <ele>629.53</ele>
        <time>2021-07-27T15:11:41.979Z</time>
      </trkpt>
      <trkpt lat="50.22991723380983" lon="5.700182653963566">
        <ele>629.36</ele>
        <time>2021-07-27T15:11:50.718Z</time>
      </trkpt>
      <trkpt lat="50.22970031015575" lon="5.699827345088124">
        <ele>629.26</ele>
        <time>2021-07-27T15:11:59.462Z</time>
      </trkpt>
      <trkpt lat="50.22948330268264" lon="5.699472120031714">
        <ele>629.09</ele>
        <time>2021-07-27T15:12:08.211Z</time>
      </trkpt>
      <trkpt lat="50.22926637902856" lon="5.699116811156273">
        <ele>629.01</ele>
        <time>2021-07-27T15:12:16.965Z</time>
      </trkpt>
      <trkpt lat="50.22904937155545" lon="5.698761586099863">
        <ele>628.84</ele>
        <time>2021-07-27T15:12:25.724Z</time>
      </trkpt>
      <trkpt lat="50.22883244790137" lon="5.6984062772244215">
        <ele>628.66</ele>
        <time>2021-07-27T15:12:34.488Z</time>
      </trkpt>
      <trkpt lat="50.22861552424729" lon="5.698051052168012">
        <ele>628.47</ele>
        <time>2021-07-27T15:12:43.257Z</time>
      </trkpt>
      <trkpt lat="50.22839851677418" lon="5.69769574329257">
        <ele>628.21</ele>
        <time>2021-07-27T15:12:52.031Z</time>
      </trkpt>
      <trkpt lat="50.2281815931201" lon="5.69734051823616">
        <ele>627.93</ele>
        <time>2021-07-27T15:13:00.810Z</time>
      </trkpt>
      <trkpt lat="50.22796466946602" lon="5.69698529317975">
        <ele>627.63</ele>
        <time>2021-07-27T15:13:09.594Z</time>
      </trkpt>
      <trkpt lat="50.22774766199291" lon="5.696629984304309">
        <ele>627.31</ele>
        <time>2021-07-27T15:13:18.383Z</time>
      </trkpt>
      <trkpt lat="50.22764992900193" lon="5.696469973772764">
        <ele>627.03</ele>
        <time>2021-07-27T15:13:27.174Z</time>
      </trkpt>
      <trkpt lat="50.22743300534785" lon="5.696114664897323">
        <ele>626.74</ele>
        <time>2021-07-27T15:13:35.971Z</time>
      </trkpt>
      <trkpt lat="50.22721608169377" lon="5.695759356021881">
        <ele>626.4</ele>
        <time>2021-07-27T15:13:44.773Z</time>
      </trkpt>
      <trkpt lat="50.22706998512149" lon="5.695519968867302">
        <ele>626.04</ele>
        <time>2021-07-27T15:13:53.578Z</time>
      </trkpt>
      <trkpt lat="50.22688616998494" lon="5.695121828466654">
        <ele>625.66</ele>
        <time>2021-07-27T15:14:02.388Z</time>
      </trkpt>
      <trkpt lat="50.226829927414656" lon="5.69499995559454">
        <ele>625.38</ele>
        <time>2021-07-27T15:14:11.200Z</time>
      </trkpt>
      <trkpt lat="50.226684836670756" lon="5.694564683362842">
        <ele>625.11</ele>
        <time>2021-07-27T15:14:20.017Z</time>
      </trkpt>
      <trkpt lat="50.22663999348879" lon="5.694429986178875">
        <ele>624.84</ele>
        <time>2021-07-27T15:14:28.835Z</time>
      </trkpt>
      <trkpt lat="50.22654469124973" lon="5.6939624436199665">
        <ele>624.62</ele>
        <time>2021-07-27T15:14:37.658Z</time>
      </trkpt>
      <trkpt lat="50.226529939100146" lon="5.693889940157533">
        <ele>624.33</ele>
        <time>2021-07-27T15:14:46.482Z</time>
      </trkpt>
      <trkpt lat="50.22647453472018" lon="5.693407142534852">
        <ele>624.04</ele>
        <time>2021-07-27T15:14:55.311Z</time>
      </trkpt>
      <trkpt lat="50.226459950208664" lon="5.69327998906374">
        <ele>623.72</ele>
        <time>2021-07-27T15:15:04.141Z</time>
      </trkpt>
      <trkpt lat="50.22642734460533" lon="5.692792162299156">
        <ele>623.33</ele>
        <time>2021-07-27T15:15:12.976Z</time>
      </trkpt>
      <trkpt lat="50.22639465518296" lon="5.692304251715541">
        <ele>622.89</ele>
        <time>2021-07-27T15:15:21.816Z</time>
      </trkpt>
      <trkpt lat="50.22636204957962" lon="5.691816424950957">
        <ele>622.57</ele>
        <time>2021-07-27T15:15:30.661Z</time>
      </trkpt>
      <trkpt lat="50.22632936015725" lon="5.691328598186374">
        <ele>622.2</ele>
        <time>2021-07-27T15:15:39.512Z</time>
      </trkpt>
      <trkpt lat="50.226296754553914" lon="5.69084077142179">
        <ele>621.66</ele>
        <time>2021-07-27T15:15:48.368Z</time>
      </trkpt>
      <trkpt lat="50.22627999074757" lon="5.690589984878898">
        <ele>621.17</ele>
        <time>2021-07-27T15:15:57.226Z</time>
      </trkpt>
      <trkpt lat="50.22624294273555" lon="5.6901029124855995">
        <ele>620.69</ele>
        <time>2021-07-27T15:16:06.089Z</time>
      </trkpt>
      <trkpt lat="50.226205978542566" lon="5.68961575627327">
        <ele>620.31</ele>
        <time>2021-07-27T15:16:14.957Z</time>
      </trkpt>
      <trkpt lat="50.22616901434958" lon="5.6891286838799715">
        <ele>619.94</ele>
        <time>2021-07-27T15:16:23.830Z</time>
      </trkpt>
      <trkpt lat="50.22613205015659" lon="5.688641611486673">
        <ele>619.5</ele>
        <time>2021-07-27T15:16:32.708Z</time>
      </trkpt>
      <trkpt lat="50.22609508596361" lon="5.688154539093375">
        <ele>619.0</ele>
        <time>2021-07-27T15:16:41.591Z</time>
      </trkpt>
      <trkpt lat="50.22605812177062" lon="5.687667466700077">
        <ele>618.49</ele>
        <time>2021-07-27T15:16:50.479Z</time>
      </trkpt>
      <trkpt lat="50.226021157577634" lon="5.687180394306779">
        <ele>617.87</ele>
        <time>2021-07-27T15:16:59.372Z</time>
      </trkpt>
      <trkpt lat="50.22598419338465" lon="5.686693321913481">
        <ele>617.26</ele>
        <time>2021-07-27T15:17:08.270Z</time>
      </trkpt>
      <trkpt lat="50.22594722919166" lon="5.686206249520183">
        <ele>616.58</ele>
        <time>2021-07-27T15:17:17.173Z</time>
      </trkpt>
      <trkpt lat="50.225910264998674" lon="5.6857191771268845">
        <ele>615.84</ele>
        <time>2021-07-27T15:17:26.082Z</time>
      </trkpt>
      <trkpt lat="50.22587992250919" lon="5.685319947078824">
        <ele>615.1</ele>
        <time>2021-07-27T15:17:34.995Z</time>
      </trkpt>
      <trkpt lat="50.22584597580135" lon="5.684832371771336">
        <ele>614.38</ele>
        <time>2021-07-27T15:17:43.913Z</time>
      </trkpt>
      <trkpt lat="50.225812029093504" lon="5.6843447126448154">
        <ele>613.68</ele>
        <time>2021-07-27T15:17:52.836Z</time>
      </trkpt>
      <trkpt lat="50.22577808238566" lon="5.683857137337327">
        <ele>613.02</ele>
        <time>2021-07-27T15:18:01.764Z</time>
      </trkpt>
      <trkpt lat="50.225744135677814" lon="5.683369478210807">
        <ele>612.37</ele>
        <time>2021-07-27T15:18:10.697Z</time>
      </trkpt>
      <trkpt lat="50.22571018896997" lon="5.682881902903318">
        <ele>611.7</ele>
        <time>2021-07-27T15:18:19.635Z</time>
      </trkpt>
      <trkpt lat="50.225676242262125" lon="5.68239432759583">
        <ele>610.99</ele>
        <time>2021-07-27T15:18:28.578Z</time>
      </trkpt>
      <trkpt lat="50.22565998136997" lon="5.682159969583154">
        <ele>610.27</ele>
        <time>2021-07-27T15:18:37.523Z</time>
      </trkpt>
      <trkpt lat="50.22562553174794" lon="5.681672478094697">
        <ele>609.58</ele>
        <time>2021-07-27T15:18:46.473Z</time>
      </trkpt>
      <trkpt lat="50.22559099830687" lon="5.681184902787209">
        <ele>608.8</ele>
        <time>2021-07-27T15:18:55.428Z</time>
      </trkpt>
      <trkpt lat="50.225556548684835" lon="5.680697411298752">
        <ele>607.99</ele>
        <time>2021-07-27T15:19:04.388Z</time>
      </trkpt>
      <trkpt lat="50.2255220990628" lon="5.680209835991263">
        <ele>607.16</ele>
        <time>2021-07-27T15:19:13.353Z</time>
      </trkpt>
      <trkpt lat="50.225487649440765" lon="5.679722344502807">
        <ele>606.32</ele>
        <time>2021-07-27T15:19:22.324Z</time>
      </trkpt>
      <trkpt lat="50.22545319981873" lon="5.67923485301435">
        <ele>605.56</ele>
        <time>2021-07-27T15:19:31.300Z</time>
      </trkpt>
      <trkpt lat="50.225418750196695" lon="5.6787472777068615">
        <ele>604.69</ele>
        <time>2021-07-27T15:19:40.281Z</time>
      </trkpt>
      <trkpt lat="50.225389916449785" lon="5.678339917212725">
        <ele>603.83</ele>
        <time>2021-07-27T15:19:49.266Z</time>
      </trkpt>
      <trkpt lat="50.22535261698067" lon="5.677852928638458">
        <ele>603.07</ele>
        <time>2021-07-27T15:19:58.256Z</time>
      </trkpt>
      <trkpt lat="50.22531531751156" lon="5.677365940064192">
        <ele>602.28</ele>
        <time>2021-07-27T15:20:07.251Z</time>
      </trkpt>
      <trkpt lat="50.225278018042445" lon="5.676878951489925">
        <ele>601.45</ele>
        <time>2021-07-27T15:20:16.251Z</time>
      </trkpt>
      <trkpt lat="50.22524071857333" lon="5.676391962915659">
        <ele>600.67</ele>
        <time>2021-07-27T15:20:25.256Z</time>
      </trkpt>
      <trkpt lat="50.22520341910422" lon="5.675904890522361">
        <ele>599.91</ele>
        <time>2021-07-27T15:20:34.266Z</time>
      </trkpt>
      <trkpt lat="50.22519998252392" lon="5.675859963521361">
        <ele>599.19</ele>
        <time>2021-07-27T15:20:43.276Z</time>
      </trkpt>
      <trkpt lat="50.22515011020005" lon="5.67537565715611">
        <ele>598.4</ele>
        <time>2021-07-27T15:20:52.292Z</time>
      </trkpt>
      <trkpt lat="50.225129993632436" lon="5.675179939717054">
        <ele>597.7</ele>
        <time>2021-07-27T15:21:01.310Z</time>
      </trkpt>
      <trkpt lat="50.22504416294396" lon="5.674708038568497">
        <ele>596.99</ele>
        <time>2021-07-27T15:21:10.333Z</time>
      </trkpt>
      <trkpt lat="50.22500996477902" lon="5.674519948661327">
        <ele>596.34</ele>
        <time>2021-07-27T15:21:19.358Z</time>
      </trkpt>
      <trkpt lat="50.22489999420941" lon="5.674109989777207">
        <ele>595.72</ele>
        <time>2021-07-27T15:21:28.387Z</time>
      </trkpt>
      <trkpt lat="50.22475993260741" lon="5.673719979822636">
        <ele>595.11</ele>
        <time>2021-07-27T15:21:37.421Z</time>
      </trkpt>
      <trkpt lat="50.224572429433465" lon="5.673326114192605">
        <ele>594.45</ele>
        <time>2021-07-27T15:21:46.460Z</time>
      </trkpt>
      <trkpt lat="50.224384842440486" lon="5.672932332381606">
        <ele>593.71</ele>
        <time>2021-07-27T15:21:55.504Z</time>
      </trkpt>
      <trkpt lat="50.22435994818807" lon="5.672879945486784">
        <ele>593.05</ele>
        <time>2021-07-27T15:22:04.549Z</time>
      </trkpt>
      <trkpt lat="50.22416649386287" lon="5.672493120655417">
        <ele>592.37</ele>
        <time>2021-07-27T15:22:13.599Z</time>
      </trkpt>
      <trkpt lat="50.2239731233567" lon="5.672106295824051">
        <ele>591.73</ele>
        <time>2021-07-27T15:22:22.654Z</time>
      </trkpt>
      <trkpt lat="50.22387991659343" lon="5.671919966116548">
        <ele>591.09</ele>
        <time>2021-07-27T15:22:31.711Z</time>
      </trkpt>
      <trkpt lat="50.223685037344694" lon="5.671534901484847">
        <ele>590.41</ele>
        <time>2021-07-27T15:22:40.773Z</time>
      </trkpt>
      <trkpt lat="50.223490158095956" lon="5.671149920672178">
        <ele>589.73</ele>
        <time>2021-07-27T15:22:49.840Z</time>
      </trkpt>
      <trkpt lat="50.223295195028186" lon="5.6707649398595095">
        <ele>589.02</ele>
        <time>2021-07-27T15:22:58.912Z</time>
      </trkpt>
      <trkpt lat="50.22310031577945" lon="5.670379875227809">
        <ele>588.32</ele>
        <time>2021-07-27T15:23:07.989Z</time>
      </trkpt>
      <trkpt lat="50.22290535271168" lon="5.66999489441514">
        <ele>587.69</ele>
        <time>2021-07-27T15:23:17.071Z</time>
      </trkpt>
      <trkpt lat="50.22271047346294" lon="5.66960982978344">
        <ele>587.0</ele>
        <time>2021-07-27T15:23:26.158Z</time>
      </trkpt>
      <trkpt lat="50.2225155942142" lon="5.669224848970771">
        <ele>586.32</ele>
        <time>2021-07-27T15:23:35.250Z</time>
      </trkpt>
      <trkpt lat="50.22232063114643" lon="5.66883978433907">
        <ele>585.64</ele>
        <time>2021-07-27T15:23:44.347Z</time>
      </trkpt>
      <trkpt lat="50.22212575189769" lon="5.6684548035264015">
        <ele>584.98</ele>
        <time>2021-07-27T15:23:53.449Z</time>
      </trkpt>
      <trkpt lat="50.221930872648954" lon="5.668069738894701">
        <ele>584.35</ele>
        <time>2021-07-27T15:24:02.556Z</time>
      </trkpt>
      <trkpt lat="50.22184998728335" lon="5.6679099798202515">
        <ele>583.69</ele>
        <time>2021-07-27T15:24:11.666Z</time>
      </trkpt>
      <trkpt lat="50.221655778586864" lon="5.667523993179202">
        <ele>582.97</ele>
        <time>2021-07-27T15:24:20.781Z</time>
      </trkpt>
      <trkpt lat="50.22146165370941" lon="5.667138090357184">
        <ele>582.29</ele>
        <time>2021-07-27T15:24:29.901Z</time>
      </trkpt>
      <trkpt lat="50.22126752883196" lon="5.666752103716135">
        <ele>581.69</ele>
        <time>2021-07-27T15:24:39.026Z</time>
      </trkpt>
      <trkpt lat="50.221073320135474" lon="5.666366200894117">
        <ele>581.12</ele>
        <time>2021-07-27T15:24:48.156Z</time>
      </trkpt>
      <trkpt lat="50.22087919525802" lon="5.6659802980721">
        <ele>580.52</ele>
        <time>2021-07-27T15:24:57.291Z</time>
      </trkpt>
      <trkpt lat="50.22068507038057" lon="5.66559431143105">
        <ele>579.92</ele>
        <time>2021-07-27T15:25:06.431Z</time>
      </trkpt>
      <trkpt lat="50.220490945503116" lon="5.665208408609033">
        <ele>579.35</ele>
        <time>2021-07-27T15:25:15.576Z</time>
      </trkpt>
      <trkpt lat="50.22029673680663" lon="5.664822421967983">
        <ele>579.01</ele>
        <time>2021-07-27T15:25:24.726Z</time>
      </trkpt>
      <trkpt lat="50.22010261192918" lon="5.664436519145966">
        <ele>578.65</ele>
        <time>2021-07-27T15:25:33.881Z</time>
      </trkpt>
      <trkpt lat="50.219908487051725" lon="5.664050532504916">
        <ele>578.24</ele>
        <time>2021-07-27T15:25:43.041Z</time>
      </trkpt>
      <trkpt lat="50.21971436217427" lon="5.6636646296828985">
        <ele>577.68</ele>
        <time>2021-07-27T15:25:52.206Z</time>
      </trkpt>
      <trkpt lat="50.21952023729682" lon="5.663278643041849">
        <ele>577.27</ele>
        <time>2021-07-27T15:26:01.376Z</time>
      </trkpt>
      <trkpt lat="50.219369949772954" lon="5.662979995831847">
        <ele>576.96</ele>
        <time>2021-07-27T15:26:10.550Z</time>
      </trkpt>
      <trkpt lat="50.21917490288615" lon="5.662595182657242">
        <ele>576.68</ele>
        <time>2021-07-27T15:26:19.729Z</time>
      </trkpt>
      <trkpt lat="50.21897985599935" lon="5.6622103694826365">
        <ele>576.44</ele>
        <time>2021-07-27T15:26:28.913Z</time>
      </trkpt>
      <trkpt lat="50.21878472529352" lon="5.661825556308031">
        <ele>576.34</ele>
        <time>2021-07-27T15:26:38.102Z</time>
      </trkpt>
      <trkpt lat="50.218589678406715" lon="5.661440743133426">
        <ele>576.16</ele>
        <time>2021-07-27T15:26:47.296Z</time>
      </trkpt>
      <trkpt lat="50.218394631519914" lon="5.66105592995882">
        <ele>575.96</ele>
        <time>2021-07-27T15:26:56.495Z</time>
      </trkpt>
      <trkpt lat="50.21819958463311" lon="5.660671200603247">
        <ele>575.77</ele>
        <time>2021-07-27T15:27:05.699Z</time>
      </trkpt>
      <trkpt lat="50.21800453774631" lon="5.660286387428641">
        <ele>575.58</ele>
        <time>2021-07-27T15:27:14.908Z</time>
      </trkpt>
      <trkpt lat="50.21780949085951" lon="5.659901574254036">
        <ele>575.43</ele>
        <time>2021-07-27T15:27:24.122Z</time>
      </trkpt>
      <trkpt lat="50.21761444397271" lon="5.659516761079431">
        <ele>575.27</ele>
        <time>2021-07-27T15:27:33.341Z</time>
      </trkpt>
      <trkpt lat="50.21741931326687" lon="5.659131947904825">
        <ele>575.15</ele>
        <time>2021-07-27T15:27:42.565Z</time>
      </trkpt>
      <trkpt lat="50.21722426638007" lon="5.65874713473022">
        <ele>575.05</ele>
        <time>2021-07-27T15:27:51.794Z</time>
      </trkpt>
      <trkpt lat="50.21716995164752" lon="5.658639930188656">
        <ele>574.82</ele>
        <time>2021-07-27T15:28:01.025Z</time>
      </trkpt>
      <trkpt lat="50.216984543949366" lon="5.658243801444769">
        <ele>574.48</ele>
        <time>2021-07-27T15:28:10.261Z</time>
      </trkpt>
      <trkpt lat="50.21694992668927" lon="5.658169956877828">
        <ele>574.08</ele>
        <time>2021-07-27T15:28:19.498Z</time>
      </trkpt>
      <trkpt lat="50.21684993058443" lon="5.657919924706221">
        <ele>573.6</ele>
        <time>2021-07-27T15:28:28.738Z</time>
      </trkpt>
      <trkpt lat="50.21671992726624" lon="5.657519940286875">
        <ele>573.15</ele>
        <time>2021-07-27T15:28:37.982Z</time>
      </trkpt>
      <trkpt lat="50.21660475991666" lon="5.657063629478216">
        <ele>572.56</ele>
        <time>2021-07-27T15:28:47.231Z</time>
      </trkpt>
      <trkpt lat="50.216489592567086" lon="5.656607318669558">
        <ele>571.87</ele>
        <time>2021-07-27T15:28:56.485Z</time>
      </trkpt>
      <trkpt lat="50.21645992062986" lon="5.656489972025156">
        <ele>571.18</ele>
        <time>2021-07-27T15:29:05.741Z</time>
      </trkpt>
      <trkpt lat="50.21635036915541" lon="5.656030308455229">
        <ele>570.4</ele>
        <time>2021-07-27T15:29:15.002Z</time>
      </trkpt>
      <trkpt lat="50.21624073386192" lon="5.655570644885302">
        <ele>569.5</ele>
        <time>2021-07-27T15:29:24.268Z</time>
      </trkpt>
      <trkpt lat="50.21613118238747" lon="5.655110981315374">
        <ele>568.53</ele>
        <time>2021-07-27T15:29:33.539Z</time>
      </trkpt>
      <trkpt lat="50.21602154709399" lon="5.654651233926415">
        <ele>567.53</ele>
        <time>2021-07-27T15:29:42.815Z</time>
      </trkpt>
      <trkpt lat="50.215911995619535" lon="5.654191570356488">
        <ele>566.47</ele>
        <time>2021-07-27T15:29:52.096Z</time>
      </trkpt>
      <trkpt lat="50.21580244414508" lon="5.653731906786561">
        <ele>565.38</ele>
        <time>2021-07-27T15:30:01.382Z</time>
      </trkpt>
      <trkpt lat="50.215739998966455" lon="5.65346997231245">
        <ele>564.31</ele>
        <time>2021-07-27T15:30:10.671Z</time>
      </trkpt>
      <trkpt lat="50.2156306989491" lon="5.65301014110446">
        <ele>563.16</ele>
        <time>2021-07-27T15:30:19.965Z</time>
      </trkpt>
      <trkpt lat="50.21552139893174" lon="5.652550226077437">
        <ele>561.99</ele>
        <time>2021-07-27T15:30:29.264Z</time>
      </trkpt>
      <trkpt lat="50.21541218273342" lon="5.652090394869447">
        <ele>560.97</ele>
        <time>2021-07-27T15:30:38.568Z</time>
      </trkpt>
      <trkpt lat="50.21530288271606" lon="5.651630563661456">
        <ele>559.98</ele>
        <time>2021-07-27T15:30:47.877Z</time>
      </trkpt>
      <trkpt lat="50.215193666517735" lon="5.651170648634434">
        <ele>558.93</ele>
        <time>2021-07-27T15:30:57.191Z</time>
      </trkpt>
      <trkpt lat="50.21508436650038" lon="5.650710817426443">
        <ele>558.01</ele>
        <time>2021-07-27T15:31:06.510Z</time>
      </trkpt>
      <trkpt lat="50.21497515030205" lon="5.6502509862184525">
        <ele>557.1</ele>
        <time>2021-07-27T15:31:15.834Z</time>
      </trkpt>
      <trkpt lat="50.214865850284696" lon="5.649791155010462">
        <ele>556.11</ele>
        <time>2021-07-27T15:31:25.163Z</time>
      </trkpt>
      <trkpt lat="50.21482997573912" lon="5.649639945477247">
        <ele>555.24</ele>
        <time>2021-07-27T15:31:34.494Z</time>
      </trkpt>
      <trkpt lat="50.21471958607435" lon="5.64918078482151">
        <ele>554.41</ele>
        <time>2021-07-27T15:31:43.830Z</time>
      </trkpt>
      <trkpt lat="50.21460919640958" lon="5.648721540346742">
        <ele>553.59</ele>
        <time>2021-07-27T15:31:53.171Z</time>
      </trkpt>
      <trkpt lat="50.214498890563846" lon="5.648262295871973">
        <ele>552.82</ele>
        <time>2021-07-27T15:32:02.517Z</time>
      </trkpt>
      <trkpt lat="50.21438850089908" lon="5.647803135216236">
        <ele>552.21</ele>
        <time>2021-07-27T15:32:11.868Z</time>
      </trkpt>
      <trkpt lat="50.21427811123431" lon="5.6473438907414675">
        <ele>551.59</ele>
        <time>2021-07-27T15:32:21.224Z</time>
      </trkpt>
      <trkpt lat="50.21416780538857" lon="5.6468847300857306">
        <ele>551.04</ele>
        <time>2021-07-27T15:32:30.585Z</time>
      </trkpt>
      <trkpt lat="50.2140574157238" lon="5.646425485610962">
        <ele>550.51</ele>
        <time>2021-07-27T15:32:39.951Z</time>
      </trkpt>
      <trkpt lat="50.21394702605903" lon="5.645966324955225">
        <ele>549.96</ele>
        <time>2021-07-27T15:32:49.322Z</time>
      </trkpt>
      <trkpt lat="50.213836720213294" lon="5.645507080480456">
        <ele>549.41</ele>
        <time>2021-07-27T15:32:58.698Z</time>
      </trkpt>
      <trkpt lat="50.213726330548525" lon="5.645047919824719">
        <ele>548.94</ele>
        <time>2021-07-27T15:33:08.079Z</time>
      </trkpt>
      <trkpt lat="50.21361602470279" lon="5.644588675349951">
        <ele>548.48</ele>
        <time>2021-07-27T15:33:17.465Z</time>
      </trkpt>
      <trkpt lat="50.21350563503802" lon="5.644129430875182">
        <ele>548.04</ele>
        <time>2021-07-27T15:33:26.856Z</time>
      </trkpt>
      <trkpt lat="50.21339532919228" lon="5.643670270219445">
        <ele>547.64</ele>
        <time>2021-07-27T15:33:36.252Z</time>
      </trkpt>
      <trkpt lat="50.21328493952751" lon="5.643211025744677">
        <ele>547.24</ele>
        <time>2021-07-27T15:33:45.653Z</time>
      </trkpt>
      <trkpt lat="50.213174633681774" lon="5.64275186508894">
        <ele>546.9</ele>
        <time>2021-07-27T15:33:55.059Z</time>
      </trkpt>
      <trkpt lat="50.21306432783604" lon="5.642292620614171">
        <ele>546.55</ele>
        <time>2021-07-27T15:34:04.470Z</time>
      </trkpt>
      <trkpt lat="50.21295393817127" lon="5.641833459958434">
        <ele>546.28</ele>
        <time>2021-07-27T15:34:13.887Z</time>
      </trkpt>
      <trkpt lat="50.21284363232553" lon="5.6413742154836655">
        <ele>546.03</ele>
        <time>2021-07-27T15:34:23.309Z</time>
      </trkpt>
      <trkpt lat="50.21273332647979" lon="5.640914971008897">
        <ele>545.81</ele>
        <time>2021-07-27T15:34:32.736Z</time>
      </trkpt>
      <trkpt lat="50.21262293681502" lon="5.64045581035316">
        <ele>545.57</ele>
        <time>2021-07-27T15:34:42.168Z</time>
      </trkpt>
      <trkpt lat="50.212512630969286" lon="5.639996565878391">
        <ele>545.43</ele>
        <time>2021-07-27T15:34:51.605Z</time>
      </trkpt>
      <trkpt lat="50.21240232512355" lon="5.639537405222654">
        <ele>545.34</ele>
        <time>2021-07-27T15:35:01.047Z</time>
      </trkpt>
      <trkpt lat="50.21229201927781" lon="5.639078160747886">
        <ele>545.23</ele>
        <time>2021-07-27T15:35:10.494Z</time>
      </trkpt>
      <trkpt lat="50.21222999319434" lon="5.638819998130202">
        <ele>545.21</ele>
        <time>2021-07-27T15:35:19.944Z</time>
      </trkpt>
      <trkpt lat="50.21211884915829" lon="5.638361256569624">
        <ele>545.22</ele>
        <time>2021-07-27T15:35:29.399Z</time>
      </trkpt>
      <trkpt lat="50.21200770512223" lon="5.637902515009046">
        <ele>545.31</ele>
        <time>2021-07-27T15:35:38.859Z</time>
      </trkpt>
      <trkpt lat="50.21189656108618" lon="5.637443773448467">
        <ele>545.46</ele>
        <time>2021-07-27T15:35:48.324Z</time>
      </trkpt>
      <trkpt lat="50.21178541705012" lon="5.636985031887889">
        <ele>545.59</ele>
        <time>2021-07-27T15:35:57.794Z</time>
      </trkpt>
      <trkpt lat="50.21167427301407" lon="5.636526290327311">
        <ele>545.75</ele>
        <time>2021-07-27T15:36:07.269Z</time>
      </trkpt>
      <trkpt lat="50.211563128978014" lon="5.636067548766732">
        <ele>545.96</ele>
        <time>2021-07-27T15:36:16.749Z</time>
      </trkpt>
      <trkpt lat="50.21145198494196" lon="5.635608891025186">
        <ele>546.21</ele>
        <time>2021-07-27T15:36:26.234Z</time>
      </trkpt>
      <trkpt lat="50.211340840905905" lon="5.635150149464607">
        <ele>546.37</ele>
        <time>2021-07-27T15:36:35.724Z</time>
      </trkpt>
      <trkpt lat="50.21128996275365" lon="5.634939931333065">
        <ele>546.52</ele>
        <time>2021-07-27T15:36:45.216Z</time>
      </trkpt>
      <trkpt lat="50.211229948326945" lon="5.63464991748333">
        <ele>546.66</ele>
        <time>2021-07-27T15:36:54.711Z</time>
      </trkpt>
      <trkpt lat="50.21121997386217" lon="5.634589986875653">
        <ele>546.82</ele>
        <time>2021-07-27T15:37:04.207Z</time>
      </trkpt>
      <trkpt lat="50.21127998828888" lon="5.634429976344109">
        <ele>546.96</ele>
        <time>2021-07-27T15:37:13.705Z</time>
      </trkpt>
      <trkpt lat="50.21134997718036" lon="5.634319921955466">
        <ele>547.1</ele>
        <time>2021-07-27T15:37:23.204Z</time>
      </trkpt>
      <trkpt lat="50.21145994774997" lon="5.634209951385856">
        <ele>547.23</ele>
        <time>2021-07-27T15:37:32.706Z</time>
      </trkpt>
      <trkpt lat="50.21159992553294" lon="5.63423995859921">
        <ele>547.35</ele>
        <time>2021-07-27T15:37:42.210Z</time>
      </trkpt>
      <trkpt lat="50.21190980449319" lon="5.634325537830591">
        <ele>547.45</ele>
        <time>2021-07-27T15:37:51.719Z</time>
      </trkpt>
      <trkpt lat="50.21221959963441" lon="5.634411200881004">
        <ele>547.56</ele>
        <time>2021-07-27T15:38:01.233Z</time>
      </trkpt>
      <trkpt lat="50.21235999651253" lon="5.634449925273657">
        <ele>547.65</ele>
        <time>2021-07-27T15:38:10.749Z</time>
      </trkpt>
      <trkpt lat="50.212669875472784" lon="5.634534917771816">
        <ele>547.75</ele>
        <time>2021-07-27T15:38:20.270Z</time>
      </trkpt>
      <trkpt lat="50.212979754433036" lon="5.634619910269976">
        <ele>547.8</ele>
        <time>2021-07-27T15:38:29.796Z</time>
      </trkpt>
      <trkpt lat="50.2129799220711" lon="5.634619994089007">
        <ele>547.81</ele>
        <time>2021-07-27T15:38:39.322Z</time>
      </trkpt>
      <trkpt lat="50.213079918175936" lon="5.634619994089007">
        <ele>547.78</ele>
        <time>2021-07-27T15:38:48.850Z</time>
      </trkpt>
      <trkpt lat="50.213179998099804" lon="5.634579928591847">
        <ele>547.74</ele>
        <time>2021-07-27T15:38:58.380Z</time>
      </trkpt>
      <trkpt lat="50.21330991759896" lon="5.634529972448945">
        <ele>547.68</ele>
        <time>2021-07-27T15:39:07.912Z</time>
      </trkpt>
      <trkpt lat="50.213419971987605" lon="5.634469958022237">
        <ele>547.63</ele>
        <time>2021-07-27T15:39:17.446Z</time>
      </trkpt>
      <trkpt lat="50.21353991702199" lon="5.6343999691307545">
        <ele>547.56</ele>
        <time>2021-07-27T15:39:26.982Z</time>
      </trkpt>
      <trkpt lat="50.213739993050694" lon="5.634229984134436">
        <ele>547.44</ele>
        <time>2021-07-27T15:39:36.521Z</time>
      </trkpt>
      <trkpt lat="50.21383998915553" lon="5.634139962494373">
        <ele>547.33</ele>
        <time>2021-07-27T15:39:46.062Z</time>
      </trkpt>
      <trkpt lat="50.21411156281829" lon="5.633892361074686">
        <ele>547.21</ele>
        <time>2021-07-27T15:39:55.608Z</time>
      </trkpt>
      <trkpt lat="50.21438313648105" lon="5.633644675835967">
        <ele>547.18</ele>
        <time>2021-07-27T15:40:05.159Z</time>
      </trkpt>
      <trkpt lat="50.214519929140806" lon="5.633519953116775">
        <ele>547.12</ele>
        <time>2021-07-27T15:40:14.713Z</time>
      </trkpt>
      <trkpt lat="50.21479032933712" lon="5.63326908275485">
        <ele>546.99</ele>
        <time>2021-07-27T15:40:24.272Z</time>
      </trkpt>
      <trkpt lat="50.2150606457144" lon="5.6330181285738945">
        <ele>546.89</ele>
        <time>2021-07-27T15:40:33.836Z</time>
      </trkpt>
      <trkpt lat="50.215330962091684" lon="5.63276725821197">
        <ele>546.84</ele>
        <time>2021-07-27T15:40:43.405Z</time>
      </trkpt>
      <trkpt lat="50.215601362288" lon="5.632516304031014">
        <ele>546.7</ele>
        <time>2021-07-27T15:40:52.979Z</time>
      </trkpt>
      <trkpt lat="50.21587167866528" lon="5.63226543366909">
        <ele>546.64</ele>
        <time>2021-07-27T15:41:02.558Z</time>
      </trkpt>
      <trkpt lat="50.21604996174574" lon="5.632099974900484">
        <ele>546.59</ele>
        <time>2021-07-27T15:41:12.140Z</time>
      </trkpt>
      <trkpt lat="50.216050213202834" lon="5.632099639624357">
        <ele>546.29</ele>
        <time>2021-07-27T15:41:21.722Z</time>
      </trkpt>
      <trkpt lat="50.21632111631334" lon="5.631851200014353">
        <ele>546.71</ele>
        <time>2021-07-27T15:41:31.309Z</time>
      </trkpt>
      <trkpt lat="50.21659227088094" lon="5.631602508947253">
        <ele>546.78</ele>
        <time>2021-07-27T15:41:40.901Z</time>
      </trkpt>
      <trkpt lat="50.21686342544854" lon="5.631353734061122">
        <ele>546.77</ele>
        <time>2021-07-27T15:41:50.498Z</time>
      </trkpt>
      <trkpt lat="50.21713466383517" lon="5.631104959174991">
        <ele>546.8</ele>
        <time>2021-07-27T15:42:00.100Z</time>
      </trkpt>
      <trkpt lat="50.21737991832197" lon="5.6308799888938665">
        <ele>547.04</ele>
        <time>2021-07-27T15:42:09.707Z</time>
      </trkpt>
      <trkpt lat="50.217607989907265" lon="5.630542114377022">
        <ele>547.32</ele>
        <time>2021-07-27T15:42:19.319Z</time>
      </trkpt>
      <trkpt lat="50.21783606149256" lon="5.630204239860177">
        <ele>547.58</ele>
        <time>2021-07-27T15:42:28.936Z</time>
      </trkpt>
      <trkpt lat="50.21791996434331" lon="5.630079936236143">
        <ele>547.79</ele>
        <time>2021-07-27T15:42:38.555Z</time>
      </trkpt>
      <trkpt lat="50.2180999238044" lon="5.629859995096922">
        <ele>548.04</ele>
        <time>2021-07-27T15:42:48.178Z</time>
      </trkpt>
      <trkpt lat="50.21825993433595" lon="5.629699984565377">
        <ele>548.23</ele>
        <time>2021-07-27T15:42:57.804Z</time>
      </trkpt>
      <trkpt lat="50.21854441612959" lon="5.629490353167057">
        <ele>548.49</ele>
        <time>2021-07-27T15:43:07.435Z</time>
      </trkpt>
      <trkpt lat="50.21882889792323" lon="5.629280721768737">
        <ele>548.78</ele>
        <time>2021-07-27T15:43:17.071Z</time>
      </trkpt>
      <trkpt lat="50.21901992149651" lon="5.629139989614487">
        <ele>549.0</ele>
        <time>2021-07-27T15:43:26.710Z</time>
      </trkpt>
      <trkpt lat="50.21922997198999" lon="5.628989953547716">
        <ele>549.27</ele>
        <time>2021-07-27T15:43:36.353Z</time>
      </trkpt>
      <trkpt lat="50.219389982521534" lon="5.628799935802817">
        <ele>549.42</ele>
        <time>2021-07-27T15:43:45.999Z</time>
      </trkpt>
      <trkpt lat="50.219611935317516" lon="5.628452422097325">
        <ele>549.58</ele>
        <time>2021-07-27T15:43:55.650Z</time>
      </trkpt>
      <trkpt lat="50.21983397193253" lon="5.628104908391833">
        <ele>549.78</ele>
        <time>2021-07-27T15:44:05.306Z</time>
      </trkpt>
      <trkpt lat="50.220056008547544" lon="5.627757394686341">
        <ele>549.91</ele>
        <time>2021-07-27T15:44:14.967Z</time>
      </trkpt>
      <trkpt lat="50.22027804516256" lon="5.627409880980849">
        <ele>549.95</ele>
        <time>2021-07-27T15:44:24.633Z</time>
      </trkpt>
      <trkpt lat="50.22050008177757" lon="5.627062367275357">
        <ele>549.89</ele>
        <time>2021-07-27T15:44:34.304Z</time>
      </trkpt>
      <trkpt lat="50.22072211839259" lon="5.626714853569865">
        <ele>549.82</ele>
        <time>2021-07-27T15:44:43.980Z</time>
      </trkpt>
      <trkpt lat="50.220769979059696" lon="5.626639919355512">
        <ele>549.71</ele>
        <time>2021-07-27T15:44:53.657Z</time>
      </trkpt>
      <trkpt lat="50.22099168039858" lon="5.626291986554861">
        <ele>549.58</ele>
        <time>2021-07-27T15:45:03.339Z</time>
      </trkpt>
      <trkpt lat="50.22121338173747" lon="5.625943969935179">
        <ele>549.4</ele>
        <time>2021-07-27T15:45:13.026Z</time>
      </trkpt>
      <trkpt lat="50.22143516689539" lon="5.625596037134528">
        <ele>549.01</ele>
        <time>2021-07-27T15:45:22.718Z</time>
      </trkpt>
      <trkpt lat="50.22148998454213" lon="5.6255099549889565">
        <ele>548.62</ele>
        <time>2021-07-27T15:45:32.412Z</time>
      </trkpt>
      <trkpt lat="50.22161998786032" lon="5.625189933925867">
        <ele>548.16</ele>
        <time>2021-07-27T15:45:42.110Z</time>
      </trkpt>
      <trkpt lat="50.2217573672533" lon="5.624748794361949">
        <ele>547.55</ele>
        <time>2021-07-27T15:45:51.813Z</time>
      </trkpt>
      <trkpt lat="50.22180992178619" lon="5.624579982832074">
        <ele>546.91</ele>
        <time>2021-07-27T15:46:01.518Z</time>
      </trkpt>
      <trkpt lat="50.22199993953109" lon="5.624259961768985">
        <ele>546.18</ele>
        <time>2021-07-27T15:46:11.227Z</time>
      </trkpt>
      <trkpt lat="50.222229938954115" lon="5.623999955132604">
        <ele>545.45</ele>
        <time>2021-07-27T15:46:20.941Z</time>
      </trkpt>
      <trkpt lat="50.22248776629567" lon="5.6237187422811985">
        <ele>544.57</ele>
        <time>2021-07-27T15:46:30.660Z</time>
      </trkpt>
      <trkpt lat="50.22266998887062" lon="5.62351992353797">
        <ele>543.46</ele>
        <time>2021-07-27T15:46:40.382Z</time>
      </trkpt>
      <trkpt lat="50.222849948331714" lon="5.623389920219779">
        <ele>542.23</ele>
        <time>2021-07-27T15:46:50.107Z</time>
      </trkpt>
      <trkpt lat="50.223149601370096" lon="5.623240135610104">
        <ele>541.04</ele>
        <time>2021-07-27T15:46:59.837Z</time>
      </trkpt>
      <trkpt lat="50.22322998382151" lon="5.623199986293912">
        <ele>539.9</ele>
        <time>2021-07-27T15:47:09.569Z</time>
      </trkpt>
      <trkpt lat="50.22346995770931" lon="5.623139971867204">
        <ele>538.58</ele>
        <time>2021-07-27T15:47:19.305Z</time>
      </trkpt>
      <trkpt lat="50.22378461435437" lon="5.623139971867204">
        <ele>537.11</ele>
        <time>2021-07-27T15:47:29.046Z</time>
      </trkpt>
      <trkpt lat="50.223819985985756" lon="5.623139971867204">
        <ele>535.73</ele>
        <time>2021-07-27T15:47:38.787Z</time>
      </trkpt>
      <trkpt lat="50.2241303678602" lon="5.6232204381376505">
        <ele>534.28</ele>
        <time>2021-07-27T15:47:48.533Z</time>
      </trkpt>
      <trkpt lat="50.22435994818807" lon="5.623279949650168">
        <ele>532.79</ele>
        <time>2021-07-27T15:47:58.283Z</time>
      </trkpt>
      <trkpt lat="50.22453999146819" lon="5.623279949650168">
        <ele>531.23</ele>
        <time>2021-07-27T15:48:08.036Z</time>
      </trkpt>
      <trkpt lat="50.224846014752984" lon="5.623166291043162">
        <ele>529.66</ele>
        <time>2021-07-27T15:48:17.794Z</time>
      </trkpt>
      <trkpt lat="50.2248899359256" lon="5.623149946331978">
        <ele>528.04</ele>
        <time>2021-07-27T15:48:27.553Z</time>
      </trkpt>
      <trkpt lat="50.22519998252392" lon="5.6230999901890755">
        <ele>526.28</ele>
        <time>2021-07-27T15:48:37.317Z</time>
      </trkpt>
      <trkpt lat="50.225429981946945" lon="5.62312999740243">
        <ele>524.52</ele>
        <time>2021-07-27T15:48:47.084Z</time>
      </trkpt>
      <trkpt lat="50.22573600523174" lon="5.623243656009436">
        <ele>522.53</ele>
        <time>2021-07-27T15:48:56.856Z</time>
      </trkpt>
      <trkpt lat="50.22577992640436" lon="5.623259916901588">
        <ele>520.77</ele>
        <time>2021-07-27T15:49:06.629Z</time>
      </trkpt>
      <trkpt lat="50.22608117200434" lon="5.623401738703251">
        <ele>518.85</ele>
        <time>2021-07-27T15:49:16.407Z</time>
      </trkpt>
      <trkpt lat="50.226119980216026" lon="5.623419927433133">
        <ele>517.1</ele>
        <time>2021-07-27T15:49:26.186Z</time>
      </trkpt>
      <trkpt lat="50.22641435265541" lon="5.623593097552657">
        <ele>515.28</ele>
        <time>2021-07-27T15:49:35.970Z</time>
      </trkpt>
      <trkpt lat="50.226459950208664" lon="5.623619919642806">
        <ele>513.54</ele>
        <time>2021-07-27T15:49:45.755Z</time>
      </trkpt>
      <trkpt lat="50.226738564670086" lon="5.623847907409072">
        <ele>511.69</ele>
        <time>2021-07-27T15:49:55.545Z</time>
      </trkpt>
      <trkpt lat="50.22678994573653" lon="5.623889984562993">
        <ele>509.96</ele>
        <time>2021-07-27T15:50:05.336Z</time>
      </trkpt>
      <trkpt lat="50.2269399818033" lon="5.6239899806678295">
        <ele>508.22</ele>
        <time>2021-07-27T15:50:15.129Z</time>
      </trkpt>
      <trkpt lat="50.22711994126439" lon="5.624049995094538">
        <ele>506.54</ele>
        <time>2021-07-27T15:50:24.925Z</time>
      </trkpt>
      <trkpt lat="50.227433843538165" lon="5.624084863811731">
        <ele>504.88</ele>
        <time>2021-07-27T15:50:34.726Z</time>
      </trkpt>
      <trkpt lat="50.22765998728573" lon="5.624109925702214">
        <ele>503.24</ele>
        <time>2021-07-27T15:50:44.531Z</time>
      </trkpt>
      <trkpt lat="50.227973721921444" lon="5.624147476628423">
        <ele>501.53</ele>
        <time>2021-07-27T15:50:54.341Z</time>
      </trkpt>
      <trkpt lat="50.228287456557155" lon="5.6241849437355995">
        <ele>499.93</ele>
        <time>2021-07-27T15:51:04.156Z</time>
      </trkpt>
      <trkpt lat="50.22857998497784" lon="5.6242199800908566">
        <ele>498.41</ele>
        <time>2021-07-27T15:51:13.976Z</time>
      </trkpt>
      <trkpt lat="50.228893384337425" lon="5.624263901263475">
        <ele>496.97</ele>
        <time>2021-07-27T15:51:23.801Z</time>
      </trkpt>
      <trkpt lat="50.22920669987798" lon="5.624307822436094">
        <ele>495.63</ele>
        <time>2021-07-27T15:51:33.631Z</time>
      </trkpt>
      <trkpt lat="50.22952009923756" lon="5.624351743608713">
        <ele>494.42</ele>
        <time>2021-07-27T15:51:43.466Z</time>
      </trkpt>
      <trkpt lat="50.22964993491769" lon="5.624369932338595">
        <ele>493.3</ele>
        <time>2021-07-27T15:51:53.303Z</time>
      </trkpt>
      <trkpt lat="50.22996283136308" lon="5.624422654509544">
        <ele>492.25</ele>
        <time>2021-07-27T15:52:03.145Z</time>
      </trkpt>
      <trkpt lat="50.230275643989444" lon="5.624475292861462">
        <ele>491.28</ele>
        <time>2021-07-27T15:52:12.992Z</time>
      </trkpt>
      <trkpt lat="50.230588456615806" lon="5.624528015032411">
        <ele>490.37</ele>
        <time>2021-07-27T15:52:22.844Z</time>
      </trkpt>
      <trkpt lat="50.23059993982315" lon="5.62452994287014">
        <ele>489.56</ele>
        <time>2021-07-27T15:52:32.696Z</time>
      </trkpt>
      <trkpt lat="50.23091216571629" lon="5.624591214582324">
        <ele>488.75</ele>
        <time>2021-07-27T15:52:42.553Z</time>
      </trkpt>
      <trkpt lat="50.2312243077904" lon="5.624652402475476">
        <ele>487.98</ele>
        <time>2021-07-27T15:52:52.415Z</time>
      </trkpt>
      <trkpt lat="50.23153653368354" lon="5.6247135903686285">
        <ele>487.29</ele>
        <time>2021-07-27T15:53:02.282Z</time>
      </trkpt>
      <trkpt lat="50.231619933620095" lon="5.624729935079813">
        <ele>486.75</ele>
        <time>2021-07-27T15:53:12.151Z</time>
      </trkpt>
      <trkpt lat="50.23193350061774" lon="5.624771174043417">
        <ele>486.26</ele>
        <time>2021-07-27T15:53:22.025Z</time>
      </trkpt>
      <trkpt lat="50.23199996910989" lon="5.624779975041747">
        <ele>485.84</ele>
        <time>2021-07-27T15:53:31.900Z</time>
      </trkpt>
      <trkpt lat="50.23209996521473" lon="5.624709986150265">
        <ele>485.48</ele>
        <time>2021-07-27T15:53:41.776Z</time>
      </trkpt>
      <trkpt lat="50.232362151145935" lon="5.624438747763634">
        <ele>485.11</ele>
        <time>2021-07-27T15:53:51.657Z</time>
      </trkpt>
      <trkpt lat="50.232389979064465" lon="5.624409997835755">
        <ele>484.83</ele>
        <time>2021-07-27T15:54:01.539Z</time>
      </trkpt>
      <trkpt lat="50.23255996406078" lon="5.624159965664148">
        <ele>484.55</ele>
        <time>2021-07-27T15:54:11.425Z</time>
      </trkpt>
      <trkpt lat="50.232669934630394" lon="5.623749922960997">
        <ele>484.25</ele>
        <time>2021-07-27T15:54:21.315Z</time>
      </trkpt>
      <trkpt lat="50.23276892490685" lon="5.623284308239818">
        <ele>484.04</ele>
        <time>2021-07-27T15:54:31.210Z</time>
      </trkpt>
      <trkpt lat="50.23283991962671" lon="5.622949954122305">
        <ele>483.91</ele>
        <time>2021-07-27T15:54:41.109Z</time>
      </trkpt>
      <trkpt lat="50.232956344261765" lon="5.622494230046868">
        <ele>483.8</ele>
        <time>2021-07-27T15:54:51.013Z</time>
      </trkpt>
      <trkpt lat="50.23295994848013" lon="5.622479980811477">
        <ele>483.69</ele>
        <time>2021-07-27T15:55:00.917Z</time>
      </trkpt>
      <trkpt lat="50.233182990923524" lon="5.622133892029524">
        <ele>483.65</ele>
        <time>2021-07-27T15:55:10.826Z</time>
      </trkpt>
      <trkpt lat="50.233249962329865" lon="5.622029956430197">
        <ele>483.56</ele>
        <time>2021-07-27T15:55:20.737Z</time>
      </trkpt>
      <trkpt lat="50.23332992568612" lon="5.62192996032536">
        <ele>483.48</ele>
        <time>2021-07-27T15:55:30.649Z</time>
      </trkpt>
      <trkpt lat="50.2335399761796" lon="5.621789982542396">
        <ele>483.38</ele>
        <time>2021-07-27T15:55:40.565Z</time>
      </trkpt>
      <trkpt lat="50.23362999781966" lon="5.62177992425859">
        <ele>483.24</ele>
        <time>2021-07-27T15:55:50.482Z</time>
      </trkpt>
      <trkpt lat="50.23384993895888" lon="5.62177992425859">
        <ele>483.06</ele>
        <time>2021-07-27T15:56:00.403Z</time>
      </trkpt>
      <trkpt lat="50.23416258394718" lon="5.621836083009839">
        <ele>482.89</ele>
        <time>2021-07-27T15:56:10.329Z</time>
      </trkpt>
      <trkpt lat="50.234239948913455" lon="5.621849996969104">
        <ele>482.7</ele>
        <time>2021-07-27T15:56:20.256Z</time>
      </trkpt>
      <trkpt lat="50.234389984980226" lon="5.621939934790134">
        <ele>482.46</ele>
        <time>2021-07-27T15:56:30.186Z</time>
      </trkpt>
      <trkpt lat="50.23468695580959" lon="5.62210195697844">
        <ele>482.07</ele>
        <time>2021-07-27T15:56:40.121Z</time>
      </trkpt>
      <trkpt lat="50.23471998050809" lon="5.622119978070259">
        <ele>481.78</ele>
        <time>2021-07-27T15:56:50.056Z</time>
      </trkpt>
      <trkpt lat="50.23488996550441" lon="5.622159959748387">
        <ele>481.36</ele>
        <time>2021-07-27T15:56:59.994Z</time>
      </trkpt>
      <trkpt lat="50.235009994357824" lon="5.622149985283613">
        <ele>481.02</ele>
        <time>2021-07-27T15:57:09.934Z</time>
      </trkpt>
      <trkpt lat="50.23531719110906" lon="5.622044373303652">
        <ele>480.73</ele>
        <time>2021-07-27T15:57:19.879Z</time>
      </trkpt>
      <trkpt lat="50.23532993160188" lon="5.622039930894971">
        <ele>480.37</ele>
        <time>2021-07-27T15:57:29.824Z</time>
      </trkpt>
      <trkpt lat="50.23563536815345" lon="5.621921746060252">
        <ele>479.97</ele>
        <time>2021-07-27T15:57:39.774Z</time>
      </trkpt>
      <trkpt lat="50.2356399782002" lon="5.621919985860586">
        <ele>479.55</ele>
        <time>2021-07-27T15:57:49.725Z</time>
      </trkpt>
      <trkpt lat="50.23592999204993" lon="5.62177992425859">
        <ele>478.98</ele>
        <time>2021-07-27T15:57:59.680Z</time>
      </trkpt>
      <trkpt lat="50.23617994040251" lon="5.621579932048917">
        <ele>478.4</ele>
        <time>2021-07-27T15:58:09.640Z</time>
      </trkpt>
      <trkpt lat="50.23633995093405" lon="5.621409947052598">
        <ele>477.87</ele>
        <time>2021-07-27T15:58:19.603Z</time>
      </trkpt>
      <trkpt lat="50.236594174057245" lon="5.621120855212212">
        <ele>477.4</ele>
        <time>2021-07-27T15:58:29.571Z</time>
      </trkpt>
      <trkpt lat="50.23684839718044" lon="5.620831763371825">
        <ele>476.86</ele>
        <time>2021-07-27T15:58:39.544Z</time>
      </trkpt>
      <trkpt lat="50.23710262030363" lon="5.620542671531439">
        <ele>476.1</ele>
        <time>2021-07-27T15:58:49.522Z</time>
      </trkpt>
      <trkpt lat="50.237356843426824" lon="5.620253579691052">
        <ele>475.37</ele>
        <time>2021-07-27T15:58:59.505Z</time>
      </trkpt>
      <trkpt lat="50.237359944731" lon="5.620249975472689">
        <ele>474.76</ele>
        <time>2021-07-27T15:59:09.488Z</time>
      </trkpt>
      <trkpt lat="50.23751995526254" lon="5.620029950514436">
        <ele>474.08</ele>
        <time>2021-07-27T15:59:19.475Z</time>
      </trkpt>
      <trkpt lat="50.237730257213116" lon="5.619665002450347">
        <ele>473.44</ele>
        <time>2021-07-27T15:59:29.467Z</time>
      </trkpt>
      <trkpt lat="50.23785992525518" lon="5.619439948350191">
        <ele>472.7</ele>
        <time>2021-07-27T15:59:39.462Z</time>
      </trkpt>
      <trkpt lat="50.23807684890926" lon="5.619084555655718">
        <ele>471.99</ele>
        <time>2021-07-27T15:59:49.462Z</time>
      </trkpt>
      <trkpt lat="50.23829377256334" lon="5.618729162961245">
        <ele>471.25</ele>
        <time>2021-07-27T15:59:59.467Z</time>
      </trkpt>
      <trkpt lat="50.23832998238504" lon="5.6186699867248535">
        <ele>470.43</ele>
        <time>2021-07-27T16:00:09.473Z</time>
      </trkpt>
      <trkpt lat="50.2383301500231" lon="5.618669567629695">
        <ele>470.14</ele>
        <time>2021-07-27T16:00:19.479Z</time>
      </trkpt>
      <trkpt lat="50.23853860795498" lon="5.618302691727877">
        <ele>469.64</ele>
        <time>2021-07-27T16:00:29.490Z</time>
      </trkpt>
      <trkpt lat="50.23874723352492" lon="5.6179354805499315">
        <ele>468.67</ele>
        <time>2021-07-27T16:00:39.506Z</time>
      </trkpt>
      <trkpt lat="50.23882996290922" lon="5.617789970710874">
        <ele>467.66</ele>
        <time>2021-07-27T16:00:49.524Z</time>
      </trkpt>
      <trkpt lat="50.239017801359296" lon="5.617396356537938">
        <ele>466.7</ele>
        <time>2021-07-27T16:00:59.547Z</time>
      </trkpt>
      <trkpt lat="50.23903992958367" lon="5.617349920794368">
        <ele>465.58</ele>
        <time>2021-07-27T16:01:09.570Z</time>
      </trkpt>
      <trkpt lat="50.23920547217131" lon="5.616932669654489">
        <ele>464.26</ele>
        <time>2021-07-27T16:01:19.598Z</time>
      </trkpt>
      <trkpt lat="50.239371014758945" lon="5.616515502333641">
        <ele>462.8</ele>
        <time>2021-07-27T16:01:29.631Z</time>
      </trkpt>
      <trkpt lat="50.2395199611783" lon="5.616139993071556">
        <ele>461.32</ele>
        <time>2021-07-27T16:01:39.669Z</time>
      </trkpt>
      <trkpt lat="50.2397099789232" lon="5.615769932046533">
        <ele>459.8</ele>
        <time>2021-07-27T16:01:49.712Z</time>
      </trkpt>
      <trkpt lat="50.239921789616346" lon="5.615407163277268">
        <ele>458.4</ele>
        <time>2021-07-27T16:01:59.760Z</time>
      </trkpt>
      <trkpt lat="50.24013368412852" lon="5.615044478327036">
        <ele>456.83</ele>
        <time>2021-07-27T16:02:09.813Z</time>
      </trkpt>
      <trkpt lat="50.24034549482167" lon="5.614681709557772">
        <ele>455.22</ele>
        <time>2021-07-27T16:02:19.871Z</time>
      </trkpt>
      <trkpt lat="50.24043995887041" lon="5.614519938826561">
        <ele>453.5</ele>
        <time>2021-07-27T16:02:29.931Z</time>
      </trkpt>
      <trkpt lat="50.240639951080084" lon="5.614179968833923">
        <ele>451.74</ele>
        <time>2021-07-27T16:02:39.996Z</time>
      </trkpt>
      <trkpt lat="50.24080867879093" lon="5.613765818998218">
        <ele>449.98</ele>
        <time>2021-07-27T16:02:50.066Z</time>
      </trkpt>
      <trkpt lat="50.24085997603834" lon="5.613639922812581">
        <ele>448.29</ele>
        <time>2021-07-27T16:03:00.138Z</time>
      </trkpt>
      <trkpt lat="50.240974221378565" lon="5.613182857632637">
        <ele>446.61</ele>
        <time>2021-07-27T16:03:10.215Z</time>
      </trkpt>
      <trkpt lat="50.24097992107272" lon="5.613159975036979">
        <ele>444.98</ele>
        <time>2021-07-27T16:03:20.292Z</time>
      </trkpt>
      <trkpt lat="50.241071535274386" lon="5.6126905884593725">
        <ele>443.32</ele>
        <time>2021-07-27T16:03:30.374Z</time>
      </trkpt>
      <trkpt lat="50.241139931604266" lon="5.612339973449707">
        <ele>441.69</ele>
        <time>2021-07-27T16:03:40.460Z</time>
      </trkpt>
      <trkpt lat="50.24121109396219" lon="5.611862037330866">
        <ele>440.03</ele>
        <time>2021-07-27T16:03:50.551Z</time>
      </trkpt>
      <trkpt lat="50.24128234013915" lon="5.611384101212025">
        <ele>438.4</ele>
        <time>2021-07-27T16:04:00.647Z</time>
      </trkpt>
      <trkpt lat="50.24135350249708" lon="5.610906248912215">
        <ele>436.76</ele>
        <time>2021-07-27T16:04:10.748Z</time>
      </trkpt>
      <trkpt lat="50.24141997098923" lon="5.6104599963873625">
        <ele>435.0</ele>
        <time>2021-07-27T16:04:20.853Z</time>
      </trkpt>
      <trkpt lat="50.24149004369974" lon="5.609981641173363">
        <ele>433.12</ele>
        <time>2021-07-27T16:04:30.964Z</time>
      </trkpt>
      <trkpt lat="50.241560116410255" lon="5.609503285959363">
        <ele>431.48</ele>
        <time>2021-07-27T16:04:41.080Z</time>
      </trkpt>
      <trkpt lat="50.24163018912077" lon="5.609025014564395">
        <ele>430.07</ele>
        <time>2021-07-27T16:04:51.201Z</time>
      </trkpt>
      <trkpt lat="50.241649970412254" lon="5.6088899821043015">
        <ele>428.72</ele>
        <time>2021-07-27T16:05:01.323Z</time>
      </trkpt>
      <trkpt lat="50.24170436896384" lon="5.6084066815674305">
        <ele>427.33</ele>
        <time>2021-07-27T16:05:11.450Z</time>
      </trkpt>
      <trkpt lat="50.24172993376851" lon="5.60817995108664">
        <ele>426.04</ele>
        <time>2021-07-27T16:05:21.579Z</time>
      </trkpt>
      <trkpt lat="50.241721384227276" lon="5.607689525932074">
        <ele>424.86</ele>
        <time>2021-07-27T16:05:31.713Z</time>
      </trkpt>
      <trkpt lat="50.24171995930374" lon="5.607609981670976">
        <ele>423.79</ele>
        <time>2021-07-27T16:05:41.848Z</time>
      </trkpt>
      <trkpt lat="50.241642175242305" lon="5.607134560123086">
        <ele>422.71</ele>
        <time>2021-07-27T16:05:51.988Z</time>
      </trkpt>
      <trkpt lat="50.241629937663674" lon="5.607059961184859">
        <ele>421.76</ele>
        <time>2021-07-27T16:06:02.129Z</time>
      </trkpt>
      <trkpt lat="50.24148719385266" lon="5.606622761115432">
        <ele>420.82</ele>
        <time>2021-07-27T16:06:12.275Z</time>
      </trkpt>
      <trkpt lat="50.24146992713213" lon="5.606569955125451">
        <ele>420.01</ele>
        <time>2021-07-27T16:06:22.422Z</time>
      </trkpt>
      <trkpt lat="50.241268426179886" lon="5.60619318857789">
        <ele>419.26</ele>
        <time>2021-07-27T16:06:32.574Z</time>
      </trkpt>
      <trkpt lat="50.2412399277091" lon="5.606139963492751">
        <ele>418.59</ele>
        <time>2021-07-27T16:06:42.727Z</time>
      </trkpt>
      <trkpt lat="50.241009928286076" lon="5.605839975178242">
        <ele>417.92</ele>
        <time>2021-07-27T16:06:52.884Z</time>
      </trkpt>
      <trkpt lat="50.24074380286038" lon="5.605578292161226">
        <ele>417.31</ele>
        <time>2021-07-27T16:07:03.046Z</time>
      </trkpt>
      <trkpt lat="50.24047759361565" lon="5.605316609144211">
        <ele>416.6</ele>
        <time>2021-07-27T16:07:13.213Z</time>
      </trkpt>
      <trkpt lat="50.24041992612183" lon="5.605259947478771">
        <ele>416.04</ele>
        <time>2021-07-27T16:07:23.382Z</time>
      </trkpt>
      <trkpt lat="50.240153297781944" lon="5.604999605566263">
        <ele>415.48</ele>
        <time>2021-07-27T16:07:33.556Z</time>
      </trkpt>
      <trkpt lat="50.23999999277294" lon="5.604849988594651">
        <ele>414.97</ele>
        <time>2021-07-27T16:07:43.732Z</time>
      </trkpt>
      <trkpt lat="50.239909971132874" lon="5.604699952527881">
        <ele>414.44</ele>
        <time>2021-07-27T16:07:53.911Z</time>
      </trkpt>
      <trkpt lat="50.23987996391952" lon="5.604599956423044">
        <ele>413.94</ele>
        <time>2021-07-27T16:08:04.091Z</time>
      </trkpt>
      <trkpt lat="50.239869989454746" lon="5.604399964213371">
        <ele>413.42</ele>
        <time>2021-07-27T16:08:14.273Z</time>
      </trkpt>
      <trkpt lat="50.2398999966681" lon="5.604309942573309">
        <ele>412.91</ele>
        <time>2021-07-27T16:08:24.456Z</time>
      </trkpt>
      <trkpt lat="50.23996998555958" lon="5.604199972003698">
        <ele>412.37</ele>
        <time>2021-07-27T16:08:34.640Z</time>
      </trkpt>
      <trkpt lat="50.24004994891584" lon="5.60415999032557">
        <ele>411.76</ele>
        <time>2021-07-27T16:08:44.826Z</time>
      </trkpt>
      <trkpt lat="50.24024994112551" lon="5.604199972003698">
        <ele>411.03</ele>
        <time>2021-07-27T16:08:55.015Z</time>
      </trkpt>
      <trkpt lat="50.24055856280029" lon="5.604295525699854">
        <ele>410.27</ele>
        <time>2021-07-27T16:09:05.209Z</time>
      </trkpt>
      <trkpt lat="50.24066995829344" lon="5.604329975321889">
        <ele>409.45</ele>
        <time>2021-07-27T16:09:15.405Z</time>
      </trkpt>
      <trkpt lat="50.24096776731312" lon="5.604488477110863">
        <ele>408.41</ele>
        <time>2021-07-27T16:09:25.606Z</time>
      </trkpt>
      <trkpt lat="50.241265492513776" lon="5.6046469788998365">
        <ele>407.35</ele>
        <time>2021-07-27T16:09:35.812Z</time>
      </trkpt>
      <trkpt lat="50.24128996767104" lon="5.604659970849752">
        <ele>406.39</ele>
        <time>2021-07-27T16:09:46.018Z</time>
      </trkpt>
      <trkpt lat="50.2415871899575" lon="5.604820819571614">
        <ele>405.27</ele>
        <time>2021-07-27T16:09:56.229Z</time>
      </trkpt>
      <trkpt lat="50.241884496062994" lon="5.604981668293476">
        <ele>404.24</ele>
        <time>2021-07-27T16:10:06.445Z</time>
      </trkpt>
      <trkpt lat="50.24213997647166" lon="5.6051199696958065">
        <ele>403.14</ele>
        <time>2021-07-27T16:10:16.666Z</time>
      </trkpt>
      <trkpt lat="50.24236997589469" lon="5.605249973013997">
        <ele>401.96</ele>
        <time>2021-07-27T16:10:26.891Z</time>
      </trkpt>
      <trkpt lat="50.242659989744425" lon="5.6053499691188335">
        <ele>400.75</ele>
        <time>2021-07-27T16:10:37.120Z</time>
      </trkpt>
      <trkpt lat="50.24296844378114" lon="5.6054468639194965">
        <ele>399.33</ele>
        <time>2021-07-27T16:10:47.354Z</time>
      </trkpt>
      <trkpt lat="50.24300993420184" lon="5.605459939688444">
        <ele>398.06</ele>
        <time>2021-07-27T16:10:57.589Z</time>
      </trkpt>
      <trkpt lat="50.24332039989531" lon="5.605539567768574">
        <ele>396.49</ele>
        <time>2021-07-27T16:11:07.829Z</time>
      </trkpt>
      <trkpt lat="50.243630949407816" lon="5.605619195848703">
        <ele>395.05</ele>
        <time>2021-07-27T16:11:18.074Z</time>
      </trkpt>
      <trkpt lat="50.24378995411098" lon="5.605659931898117">
        <ele>393.75</ele>
        <time>2021-07-27T16:11:28.322Z</time>
      </trkpt>
      <trkpt lat="50.24403998628259" lon="5.605699997395277">
        <ele>392.45</ele>
        <time>2021-07-27T16:11:38.574Z</time>
      </trkpt>
      <trkpt lat="50.24417996406555" lon="5.605689939111471">
        <ele>391.19</ele>
        <time>2021-07-27T16:11:48.828Z</time>
      </trkpt>
      <trkpt lat="50.24438993074" lon="5.605639982968569">
        <ele>389.88</ele>
        <time>2021-07-27T16:11:59.085Z</time>
      </trkpt>
      <trkpt lat="50.244489926844835" lon="5.605579968541861">
        <ele>388.56</ele>
        <time>2021-07-27T16:12:09.344Z</time>
      </trkpt>
      <trkpt lat="50.24460995569825" lon="5.605459939688444">
        <ele>387.27</ele>
        <time>2021-07-27T16:12:19.605Z</time>
      </trkpt>
      <trkpt lat="50.244699977338314" lon="5.6053499691188335">
        <ele>386.01</ele>
        <time>2021-07-27T16:12:29.868Z</time>
      </trkpt>
      <trkpt lat="50.244887229055166" lon="5.604955684393644">
        <ele>384.77</ele>
        <time>2021-07-27T16:12:40.136Z</time>
      </trkpt>
      <trkpt lat="50.24488999508321" lon="5.604949984699488">
        <ele>383.6</ele>
        <time>2021-07-27T16:12:50.404Z</time>
      </trkpt>
      <trkpt lat="50.24506199173629" lon="5.604539103806019">
        <ele>382.42</ele>
        <time>2021-07-27T16:13:00.677Z</time>
      </trkpt>
      <trkpt lat="50.245234072208405" lon="5.604128306731582">
        <ele>381.19</ele>
        <time>2021-07-27T16:13:10.955Z</time>
      </trkpt>
      <trkpt lat="50.24537991732359" lon="5.6037799548357725">
        <ele>380.09</ele>
        <time>2021-07-27T16:13:21.238Z</time>
      </trkpt>
      <trkpt lat="50.24553674273193" lon="5.603354489430785">
        <ele>378.81</ele>
        <time>2021-07-27T16:13:31.526Z</time>
      </trkpt>
      <trkpt lat="50.24558996781707" lon="5.603209985420108">
        <ele>377.71</ele>
        <time>2021-07-27T16:13:41.815Z</time>
      </trkpt>
      <trkpt lat="50.245777890086174" lon="5.602816455066204">
        <ele>376.62</ele>
        <time>2021-07-27T16:13:52.110Z</time>
      </trkpt>
      <trkpt lat="50.24590998888016" lon="5.602539936080575">
        <ele>375.55</ele>
        <time>2021-07-27T16:14:02.408Z</time>
      </trkpt>
      <trkpt lat="50.24613244459033" lon="5.602192925289273">
        <ele>374.45</ele>
        <time>2021-07-27T16:14:12.711Z</time>
      </trkpt>
      <trkpt lat="50.24615993723273" lon="5.602149926126003">
        <ele>373.44</ele>
        <time>2021-07-27T16:14:23.015Z</time>
      </trkpt>
      <trkpt lat="50.24639521725476" lon="5.601824205368757">
        <ele>372.31</ele>
        <time>2021-07-27T16:14:33.324Z</time>
      </trkpt>
      <trkpt lat="50.246419943869114" lon="5.601789923384786">
        <ele>371.34</ele>
        <time>2021-07-27T16:14:43.633Z</time>
      </trkpt>
      <trkpt lat="50.246663857251406" lon="5.601480044424534">
        <ele>370.3</ele>
        <time>2021-07-27T16:14:53.947Z</time>
      </trkpt>
      <trkpt lat="50.24690785445273" lon="5.60117008164525">
        <ele>369.36</ele>
        <time>2021-07-27T16:15:04.266Z</time>
      </trkpt>
      <trkpt lat="50.24715176783502" lon="5.600860118865967">
        <ele>368.34</ele>
        <time>2021-07-27T16:15:14.590Z</time>
      </trkpt>
      <trkpt lat="50.24726995266974" lon="5.6007099989801645">
        <ele>367.39</ele>
        <time>2021-07-27T16:15:24.917Z</time>
      </trkpt>
      <trkpt lat="50.247526187449694" lon="5.600425181910396">
        <ele>366.54</ele>
        <time>2021-07-27T16:15:35.249Z</time>
      </trkpt>
      <trkpt lat="50.247539933770895" lon="5.600409926846623">
        <ele>365.67</ele>
        <time>2021-07-27T16:15:45.581Z</time>
      </trkpt>
      <trkpt lat="50.24771997705102" lon="5.600259974598885">
        <ele>364.72</ele>
        <time>2021-07-27T16:15:55.916Z</time>
      </trkpt>
      <trkpt lat="50.24799666367471" lon="5.6000264547765255">
        <ele>363.87</ele>
        <time>2021-07-27T16:16:06.256Z</time>
      </trkpt>
      <trkpt lat="50.248273434117436" lon="5.599792934954166">
        <ele>362.99</ele>
        <time>2021-07-27T16:16:16.602Z</time>
      </trkpt>
      <trkpt lat="50.24835993535817" lon="5.599719928577542">
        <ele>362.12</ele>
        <time>2021-07-27T16:16:26.949Z</time>
      </trkpt>
      <trkpt lat="50.24863469414413" lon="5.599480709061027">
        <ele>361.23</ele>
        <time>2021-07-27T16:16:37.301Z</time>
      </trkpt>
      <trkpt lat="50.24866998195648" lon="5.599449947476387">
        <ele>360.4</ele>
        <time>2021-07-27T16:16:47.654Z</time>
      </trkpt>
      <trkpt lat="50.24882999248803" lon="5.599299995228648">
        <ele>359.52</ele>
        <time>2021-07-27T16:16:58.010Z</time>
      </trkpt>
      <trkpt lat="50.24908958002925" lon="5.599022638052702">
        <ele>358.74</ele>
        <time>2021-07-27T16:17:08.371Z</time>
      </trkpt>
      <trkpt lat="50.2492699585855" lon="5.598829938098788">
        <ele>357.95</ele>
        <time>2021-07-27T16:17:18.735Z</time>
      </trkpt>
      <trkpt lat="50.24952418170869" lon="5.598540678620338">
        <ele>357.08</ele>
        <time>2021-07-27T16:17:29.104Z</time>
      </trkpt>
      <trkpt lat="50.249778321012855" lon="5.59825150296092">
        <ele>356.27</ele>
        <time>2021-07-27T16:17:39.478Z</time>
      </trkpt>
      <trkpt lat="50.24984998628497" lon="5.598169947043061">
        <ele>355.51</ele>
        <time>2021-07-27T16:17:49.854Z</time>
      </trkpt>
      <trkpt lat="50.250009996816516" lon="5.5980299692600965">
        <ele>354.7</ele>
        <time>2021-07-27T16:18:00.233Z</time>
      </trkpt>
      <trkpt lat="50.250179981812835" lon="5.59792997315526">
        <ele>353.82</ele>
        <time>2021-07-27T16:18:10.615Z</time>
      </trkpt>
      <trkpt lat="50.250469744205475" lon="5.597738698124886">
        <ele>352.8</ele>
        <time>2021-07-27T16:18:21.002Z</time>
      </trkpt>
      <trkpt lat="50.25067996233702" lon="5.597599977627397">
        <ele>351.94</ele>
        <time>2021-07-27T16:18:31.392Z</time>
      </trkpt>
      <trkpt lat="50.25096645578742" lon="5.597397219389677">
        <ele>351.17</ele>
        <time>2021-07-27T16:18:41.787Z</time>
      </trkpt>
      <trkpt lat="50.251253033056855" lon="5.597194377332926">
        <ele>350.67</ele>
        <time>2021-07-27T16:18:52.187Z</time>
      </trkpt>
      <trkpt lat="50.25132997892797" lon="5.5971399787813425">
        <ele>350.12</ele>
        <time>2021-07-27T16:19:02.589Z</time>
      </trkpt>
      <trkpt lat="50.251617478206754" lon="5.59694048948586">
        <ele>349.63</ele>
        <time>2021-07-27T16:19:12.996Z</time>
      </trkpt>
      <trkpt lat="50.25181998498738" lon="5.596799924969673">
        <ele>349.1</ele>
        <time>2021-07-27T16:19:23.406Z</time>
      </trkpt>
      <trkpt lat="50.25211435742676" lon="5.596626754850149">
        <ele>348.47</ele>
        <time>2021-07-27T16:19:33.821Z</time>
      </trkpt>
      <trkpt lat="50.252159954980016" lon="5.59659993276">
        <ele>347.91</ele>
        <time>2021-07-27T16:19:44.237Z</time>
      </trkpt>
      <trkpt lat="50.25243999436498" lon="5.5964599549770355">
        <ele>347.33</ele>
        <time>2021-07-27T16:19:54.658Z</time>
      </trkpt>
      <trkpt lat="50.2527426648885" lon="5.596326179802418">
        <ele>346.83</ele>
        <time>2021-07-27T16:20:05.084Z</time>
      </trkpt>
      <trkpt lat="50.25304541923106" lon="5.5961924046278">
        <ele>346.37</ele>
        <time>2021-07-27T16:20:15.515Z</time>
      </trkpt>
      <trkpt lat="50.25329997763038" lon="5.596079919487238">
        <ele>345.93</ele>
        <time>2021-07-27T16:20:25.950Z</time>
      </trkpt>
      <trkpt lat="50.25360843166709" lon="5.595983024686575">
        <ele>345.39</ele>
        <time>2021-07-27T16:20:36.390Z</time>
      </trkpt>
      <trkpt lat="50.25364992208779" lon="5.595969948917627">
        <ele>344.86</ele>
        <time>2021-07-27T16:20:46.831Z</time>
      </trkpt>
      <trkpt lat="50.25382996536791" lon="5.595949999988079">
        <ele>344.21</ele>
        <time>2021-07-27T16:20:57.275Z</time>
      </trkpt>
      <trkpt lat="50.25414462201297" lon="5.595949999988079">
        <ele>343.57</ele>
        <time>2021-07-27T16:21:07.724Z</time>
      </trkpt>
      <trkpt lat="50.25418996810913" lon="5.595949999988079">
        <ele>343.09</ele>
        <time>2021-07-27T16:21:18.174Z</time>
      </trkpt>
      <trkpt lat="50.25450454093516" lon="5.5959569569677114">
        <ele>342.64</ele>
        <time>2021-07-27T16:21:28.629Z</time>
      </trkpt>
      <trkpt lat="50.25481919758022" lon="5.595963913947344">
        <ele>342.16</ele>
        <time>2021-07-27T16:21:39.089Z</time>
      </trkpt>
      <trkpt lat="50.25508993305266" lon="5.595969948917627">
        <ele>341.55</ele>
        <time>2021-07-27T16:21:49.553Z</time>
      </trkpt>
      <trkpt lat="50.25540458969772" lon="5.595979588106275">
        <ele>340.89</ele>
        <time>2021-07-27T16:22:00.022Z</time>
      </trkpt>
      <trkpt lat="50.25571916252375" lon="5.595989227294922">
        <ele>340.37</ele>
        <time>2021-07-27T16:22:10.496Z</time>
      </trkpt>
      <trkpt lat="50.256033735349774" lon="5.595998866483569">
        <ele>339.92</ele>
        <time>2021-07-27T16:22:20.975Z</time>
      </trkpt>
      <trkpt lat="50.256069945171475" lon="5.5959999561309814">
        <ele>339.6</ele>
        <time>2021-07-27T16:22:31.455Z</time>
      </trkpt>
      <trkpt lat="50.25617999956012" lon="5.5959799233824015">
        <ele>339.34</ele>
        <time>2021-07-27T16:22:41.937Z</time>
      </trkpt>
      <trkpt lat="50.25632995180786" lon="5.595879927277565">
        <ele>339.12</ele>
        <time>2021-07-27T16:22:52.421Z</time>
      </trkpt>
      <trkpt lat="50.25647998787463" lon="5.5957399494946">
        <ele>338.98</ele>
        <time>2021-07-27T16:23:02.908Z</time>
      </trkpt>
      <trkpt lat="50.256559951230884" lon="5.595619920641184">
        <ele>338.83</ele>
        <time>2021-07-27T16:23:13.397Z</time>
      </trkpt>
      <trkpt lat="50.25663999840617" lon="5.595409953966737">
        <ele>338.74</ele>
        <time>2021-07-27T16:23:23.888Z</time>
      </trkpt>
      <trkpt lat="50.25669992901385" lon="5.595129998400807">
        <ele>338.65</ele>
        <time>2021-07-27T16:23:34.382Z</time>
      </trkpt>
      <trkpt lat="50.25671560317278" lon="5.594639740884304">
        <ele>338.62</ele>
        <time>2021-07-27T16:23:44.881Z</time>
      </trkpt>
      <trkpt lat="50.2567299362272" lon="5.594189967960119">
        <ele>338.53</ele>
        <time>2021-07-27T16:23:55.385Z</time>
      </trkpt>
      <trkpt lat="50.256709987297654" lon="5.593879921361804">
        <ele>338.42</ele>
        <time>2021-07-27T16:24:05.892Z</time>
      </trkpt>
      <trkpt lat="50.25668827816844" lon="5.593390334397554">
        <ele>338.33</ele>
        <time>2021-07-27T16:24:16.404Z</time>
      </trkpt>
      <trkpt lat="50.25666665285826" lon="5.592900663614273">
        <ele>338.14</ele>
        <time>2021-07-27T16:24:26.921Z</time>
      </trkpt>
      <trkpt lat="50.25665994733572" lon="5.592749956995249">
        <ele>337.92</ele>
        <time>2021-07-27T16:24:37.440Z</time>
      </trkpt>
      <trkpt lat="50.256649972870946" lon="5.592469917610288">
        <ele>337.61</ele>
        <time>2021-07-27T16:24:47.962Z</time>
      </trkpt>
      <trkpt lat="50.256649972870946" lon="5.591979157179594">
        <ele>337.21</ele>
        <time>2021-07-27T16:24:58.489Z</time>
      </trkpt>
      <trkpt lat="50.256649972870946" lon="5.591849992051721">
        <ele>336.95</ele>
        <time>2021-07-27T16:25:09.017Z</time>
      </trkpt>
      <trkpt lat="50.25671996176243" lon="5.5915699526667595">
        <ele>336.72</ele>
        <time>2021-07-27T16:25:19.548Z</time>
      </trkpt>
      <trkpt lat="50.256799925118685" lon="5.591409942135215">
        <ele>336.44</ele>
        <time>2021-07-27T16:25:30.081Z</time>
      </trkpt>
      <trkpt lat="50.25699212215841" lon="5.5910212732851505">
        <ele>336.15</ele>
        <time>2021-07-27T16:25:40.619Z</time>
      </trkpt>
      <trkpt lat="50.2571842353791" lon="5.590632604435086">
        <ele>335.73</ele>
        <time>2021-07-27T16:25:51.162Z</time>
      </trkpt>
      <trkpt lat="50.25723997503519" lon="5.590519951656461">
        <ele>335.33</ele>
        <time>2021-07-27T16:26:01.707Z</time>
      </trkpt>
      <trkpt lat="50.257394537329674" lon="5.590092474594712">
        <ele>334.84</ele>
        <time>2021-07-27T16:26:12.257Z</time>
      </trkpt>
      <trkpt lat="50.25740996003151" lon="5.5900499783456326">
        <ele>334.43</ele>
        <time>2021-07-27T16:26:22.807Z</time>
      </trkpt>
      <trkpt lat="50.25741004385054" lon="5.590049223974347">
        <ele>334.31</ele>
        <time>2021-07-27T16:26:33.357Z</time>
      </trkpt>
      <trkpt lat="50.25751129724085" lon="5.589585285633802">
        <ele>333.98</ele>
        <time>2021-07-27T16:26:43.912Z</time>
      </trkpt>
      <trkpt lat="50.257529988884926" lon="5.589499957859516">
        <ele>333.55</ele>
        <time>2021-07-27T16:26:54.468Z</time>
      </trkpt>
      <trkpt lat="50.257613472640514" lon="5.589026715606451">
        <ele>333.06</ele>
        <time>2021-07-27T16:27:05.029Z</time>
      </trkpt>
      <trkpt lat="50.2576969563961" lon="5.588553557172418">
        <ele>332.56</ele>
        <time>2021-07-27T16:27:15.595Z</time>
      </trkpt>
      <trkpt lat="50.25776996277273" lon="5.588139994069934">
        <ele>332.12</ele>
        <time>2021-07-27T16:27:26.166Z</time>
      </trkpt>
      <trkpt lat="50.257849087938666" lon="5.587664907798171">
        <ele>331.73</ele>
        <time>2021-07-27T16:27:36.742Z</time>
      </trkpt>
      <trkpt lat="50.25785998441279" lon="5.587599948048592">
        <ele>331.37</ele>
        <time>2021-07-27T16:27:47.318Z</time>
      </trkpt>
      <trkpt lat="50.25791178457439" lon="5.587115893140435">
        <ele>330.99</ele>
        <time>2021-07-27T16:27:57.899Z</time>
      </trkpt>
      <trkpt lat="50.2579199988395" lon="5.587039953097701">
        <ele>330.67</ele>
        <time>2021-07-27T16:28:08.481Z</time>
      </trkpt>
      <trkpt lat="50.25796802714467" lon="5.586554892361164">
        <ele>330.4</ele>
        <time>2021-07-27T16:28:19.068Z</time>
      </trkpt>
      <trkpt lat="50.25801605544984" lon="5.586069831624627">
        <ele>330.12</ele>
        <time>2021-07-27T16:28:29.660Z</time>
      </trkpt>
      <trkpt lat="50.25802996940911" lon="5.585929937660694">
        <ele>329.89</ele>
        <time>2021-07-27T16:28:40.254Z</time>
      </trkpt>
      <trkpt lat="50.25808813981712" lon="5.585447642952204">
        <ele>329.75</ele>
        <time>2021-07-27T16:28:50.853Z</time>
      </trkpt>
      <trkpt lat="50.25809995830059" lon="5.585349993780255">
        <ele>329.56</ele>
        <time>2021-07-27T16:29:01.453Z</time>
      </trkpt>
      <trkpt lat="50.25821428745985" lon="5.584892677143216">
        <ele>329.25</ele>
        <time>2021-07-27T16:29:12.058Z</time>
      </trkpt>
      <trkpt lat="50.25828997604549" lon="5.58458992280066">
        <ele>329.02</ele>
        <time>2021-07-27T16:29:22.666Z</time>
      </trkpt>
      <trkpt lat="50.25841059163213" lon="5.584136629477143">
        <ele>328.83</ele>
        <time>2021-07-27T16:29:33.279Z</time>
      </trkpt>
      <trkpt lat="50.258531207218766" lon="5.583683336153626">
        <ele>328.57</ele>
        <time>2021-07-27T16:29:43.897Z</time>
      </trkpt>
      <trkpt lat="50.258651822805405" lon="5.58323004283011">
        <ele>328.53</ele>
        <time>2021-07-27T16:29:54.520Z</time>
      </trkpt>
      <trkpt lat="50.25877243839204" lon="5.582776665687561">
        <ele>328.47</ele>
        <time>2021-07-27T16:30:05.148Z</time>
      </trkpt>
      <trkpt lat="50.25889305397868" lon="5.582323372364044">
        <ele>328.6</ele>
        <time>2021-07-27T16:30:15.781Z</time>
      </trkpt>
      <trkpt lat="50.25890998542309" lon="5.582259921357036">
        <ele>328.5</ele>
        <time>2021-07-27T16:30:26.415Z</time>
      </trkpt>
      <trkpt lat="50.2590580098331" lon="5.581826828420162">
        <ele>328.49</ele>
        <time>2021-07-27T16:30:37.054Z</time>
      </trkpt>
      <trkpt lat="50.25917996652424" lon="5.581469926983118">
        <ele>328.4</ele>
        <time>2021-07-27T16:30:47.697Z</time>
      </trkpt>
      <trkpt lat="50.25936998426914" lon="5.581079917028546">
        <ele>328.23</ele>
        <time>2021-07-27T16:30:58.345Z</time>
      </trkpt>
      <trkpt lat="50.259549943730235" lon="5.580759979784489">
        <ele>327.98</ele>
        <time>2021-07-27T16:31:08.998Z</time>
      </trkpt>
      <trkpt lat="50.259775165468454" lon="5.580417243763804">
        <ele>327.53</ele>
        <time>2021-07-27T16:31:19.656Z</time>
      </trkpt>
      <trkpt lat="50.260000387206674" lon="5.58007450774312">
        <ele>327.08</ele>
        <time>2021-07-27T16:31:30.319Z</time>
      </trkpt>
      <trkpt lat="50.26000994257629" lon="5.580059923231602">
        <ele>326.82</ele>
        <time>2021-07-27T16:31:40.982Z</time>
      </trkpt>
      <trkpt lat="50.26023373939097" lon="5.579714924097061">
        <ele>326.56</ele>
        <time>2021-07-27T16:31:51.650Z</time>
      </trkpt>
      <trkpt lat="50.26045753620565" lon="5.579369924962521">
        <ele>326.25</ele>
        <time>2021-07-27T16:32:02.323Z</time>
      </trkpt>
      <trkpt lat="50.26048997417092" lon="5.579319968819618">
        <ele>325.94</ele>
        <time>2021-07-27T16:32:12.997Z</time>
      </trkpt>
      <trkpt lat="50.260619977489114" lon="5.5791099183261395">
        <ele>325.59</ele>
        <time>2021-07-27T16:32:23.674Z</time>
      </trkpt>
      <trkpt lat="50.26078778319061" lon="5.578694762662053">
        <ele>325.2</ele>
        <time>2021-07-27T16:32:34.356Z</time>
      </trkpt>
      <trkpt lat="50.26080999523401" lon="5.578639945015311">
        <ele>324.92</ele>
        <time>2021-07-27T16:32:45.039Z</time>
      </trkpt>
      <trkpt lat="50.2609399985522" lon="5.578339956700802">
        <ele>324.57</ele>
        <time>2021-07-27T16:32:55.725Z</time>
      </trkpt>
      <trkpt lat="50.261049969121814" lon="5.578129990026355">
        <ele>324.28</ele>
        <time>2021-07-27T16:33:06.414Z</time>
      </trkpt>
      <trkpt lat="50.26114996522665" lon="5.5780199356377125">
        <ele>324.06</ele>
        <time>2021-07-27T16:33:17.105Z</time>
      </trkpt>
      <trkpt lat="50.26129991747439" lon="5.577909965068102">
        <ele>323.87</ele>
        <time>2021-07-27T16:33:27.799Z</time>
      </trkpt>
      <trkpt lat="50.26159957051277" lon="5.5777601804584265">
        <ele>323.71</ele>
        <time>2021-07-27T16:33:38.498Z</time>
      </trkpt>
      <trkpt lat="50.26159998960793" lon="5.577759929001331">
        <ele>323.51</ele>
        <time>2021-07-27T16:33:49.197Z</time>
      </trkpt>
      <trkpt lat="50.26174994185567" lon="5.577649958431721">
        <ele>323.28</ele>
        <time>2021-07-27T16:33:59.898Z</time>
      </trkpt>
      <trkpt lat="50.26185999624431" lon="5.577509980648756">
        <ele>323.05</ele>
        <time>2021-07-27T16:34:10.602Z</time>
      </trkpt>
      <trkpt lat="50.26187994517386" lon="5.577459940686822">
        <ele>322.86</ele>
        <time>2021-07-27T16:34:21.306Z</time>
      </trkpt>
      <trkpt lat="50.26205328293145" lon="5.577050317078829">
        <ele>322.7</ele>
        <time>2021-07-27T16:34:32.015Z</time>
      </trkpt>
      <trkpt lat="50.262226620689034" lon="5.576640609651804">
        <ele>322.59</ele>
        <time>2021-07-27T16:34:42.729Z</time>
      </trkpt>
      <trkpt lat="50.26239995844662" lon="5.576230986043811">
        <ele>322.35</ele>
        <time>2021-07-27T16:34:53.448Z</time>
      </trkpt>
      <trkpt lat="50.262429965659976" lon="5.576159991323948">
        <ele>322.08</ele>
        <time>2021-07-27T16:35:04.168Z</time>
      </trkpt>
      <trkpt lat="50.2625531796366" lon="5.575708290562034">
        <ele>321.75</ele>
        <time>2021-07-27T16:35:14.893Z</time>
      </trkpt>
      <trkpt lat="50.26267630979419" lon="5.575256589800119">
        <ele>321.36</ele>
        <time>2021-07-27T16:35:25.623Z</time>
      </trkpt>
      <trkpt lat="50.26275996118784" lon="5.5749499797821045">
        <ele>320.99</ele>
        <time>2021-07-27T16:35:36.357Z</time>
      </trkpt>
      <trkpt lat="50.26287638582289" lon="5.574493920430541">
        <ele>320.57</ele>
        <time>2021-07-27T16:35:47.096Z</time>
      </trkpt>
      <trkpt lat="50.262992810457945" lon="5.574037944898009">
        <ele>320.13</ele>
        <time>2021-07-27T16:35:57.840Z</time>
      </trkpt>
      <trkpt lat="50.26310931891203" lon="5.573581969365478">
        <ele>319.6</ele>
        <time>2021-07-27T16:36:08.589Z</time>
      </trkpt>
      <trkpt lat="50.26322574354708" lon="5.573125910013914">
        <ele>319.07</ele>
        <time>2021-07-27T16:36:19.343Z</time>
      </trkpt>
      <trkpt lat="50.263342168182135" lon="5.572669934481382">
        <ele>318.46</ele>
        <time>2021-07-27T16:36:30.102Z</time>
      </trkpt>
      <trkpt lat="50.26345867663622" lon="5.572213875129819">
        <ele>317.83</ele>
        <time>2021-07-27T16:36:40.866Z</time>
      </trkpt>
      <trkpt lat="50.26357510127127" lon="5.571757899597287">
        <ele>317.14</ele>
        <time>2021-07-27T16:36:51.635Z</time>
      </trkpt>
      <trkpt lat="50.263691525906324" lon="5.571301924064755">
        <ele>316.42</ele>
        <time>2021-07-27T16:37:02.409Z</time>
      </trkpt>
      <trkpt lat="50.26380803436041" lon="5.570845864713192">
        <ele>315.57</ele>
        <time>2021-07-27T16:37:13.188Z</time>
      </trkpt>
      <trkpt lat="50.26382999494672" lon="5.570759950205684">
        <ele>314.76</ele>
        <time>2021-07-27T16:37:23.968Z</time>
      </trkpt>
      <trkpt lat="50.263943653553724" lon="5.570302214473486">
        <ele>313.81</ele>
        <time>2021-07-27T16:37:34.753Z</time>
      </trkpt>
      <trkpt lat="50.26405731216073" lon="5.56984456256032">
        <ele>312.9</ele>
        <time>2021-07-27T16:37:45.543Z</time>
      </trkpt>
      <trkpt lat="50.264170970767736" lon="5.569386826828122">
        <ele>311.98</ele>
        <time>2021-07-27T16:37:56.338Z</time>
      </trkpt>
      <trkpt lat="50.264209946617484" lon="5.569229917600751">
        <ele>311.05</ele>
        <time>2021-07-27T16:38:07.135Z</time>
      </trkpt>
      <trkpt lat="50.264327712357044" lon="5.568774780258536">
        <ele>310.0</ele>
        <time>2021-07-27T16:38:17.937Z</time>
      </trkpt>
      <trkpt lat="50.264359982684255" lon="5.568649973720312">
        <ele>308.99</ele>
        <time>2021-07-27T16:38:28.740Z</time>
      </trkpt>
      <trkpt lat="50.264469953253865" lon="5.56827999651432">
        <ele>307.93</ele>
        <time>2021-07-27T16:38:39.547Z</time>
      </trkpt>
      <trkpt lat="50.26462996378541" lon="5.567929968237877">
        <ele>306.84</ele>
        <time>2021-07-27T16:38:50.359Z</time>
      </trkpt>
      <trkpt lat="50.2648099232465" lon="5.5676099471747875">
        <ele>305.74</ele>
        <time>2021-07-27T16:39:01.175Z</time>
      </trkpt>
      <trkpt lat="50.2649999409914" lon="5.567319933325052">
        <ele>304.66</ele>
        <time>2021-07-27T16:39:11.996Z</time>
      </trkpt>
      <trkpt lat="50.265214098617435" lon="5.5669602658599615">
        <ele>303.57</ele>
        <time>2021-07-27T16:39:22.822Z</time>
      </trkpt>
      <trkpt lat="50.26524997316301" lon="5.566899999976158">
        <ele>302.54</ele>
        <time>2021-07-27T16:39:33.648Z</time>
      </trkpt>
      <trkpt lat="50.26540210470557" lon="5.566470259800553">
        <ele>301.45</ele>
        <time>2021-07-27T16:39:44.479Z</time>
      </trkpt>
      <trkpt lat="50.26541995815933" lon="5.566419968381524">
        <ele>300.51</ele>
        <time>2021-07-27T16:39:55.311Z</time>
      </trkpt>
      <trkpt lat="50.265513667836785" lon="5.565951336175203">
        <ele>299.55</ele>
        <time>2021-07-27T16:40:06.148Z</time>
      </trkpt>
      <trkpt lat="50.26560737751424" lon="5.565482787787914">
        <ele>298.64</ele>
        <time>2021-07-27T16:40:16.990Z</time>
      </trkpt>
      <trkpt lat="50.26568993926048" lon="5.565069979056716">
        <ele>297.8</ele>
        <time>2021-07-27T16:40:27.837Z</time>
      </trkpt>
      <trkpt lat="50.26578892953694" lon="5.56460402905941">
        <ele>296.98</ele>
        <time>2021-07-27T16:40:38.689Z</time>
      </trkpt>
      <trkpt lat="50.2658599242568" lon="5.5642699263989925">
        <ele>296.24</ele>
        <time>2021-07-27T16:40:49.544Z</time>
      </trkpt>
      <trkpt lat="50.26592957787216" lon="5.563791235908866">
        <ele>295.65</ele>
        <time>2021-07-27T16:41:00.404Z</time>
      </trkpt>
      <trkpt lat="50.26593997143209" lon="5.563719989731908">
        <ele>295.1</ele>
        <time>2021-07-27T16:41:11.265Z</time>
      </trkpt>
      <trkpt lat="50.26598481461406" lon="5.563234090805054">
        <ele>294.59</ele>
        <time>2021-07-27T16:41:22.131Z</time>
      </trkpt>
      <trkpt lat="50.266029657796025" lon="5.5627481918782">
        <ele>294.09</ele>
        <time>2021-07-27T16:41:33.002Z</time>
      </trkpt>
      <trkpt lat="50.26607450097799" lon="5.562262292951345">
        <ele>293.8</ele>
        <time>2021-07-27T16:41:43.878Z</time>
      </trkpt>
      <trkpt lat="50.26611934415996" lon="5.561776477843523">
        <ele>293.58</ele>
        <time>2021-07-27T16:41:54.759Z</time>
      </trkpt>
      <trkpt lat="50.26611993089318" lon="5.561769939959049">
        <ele>293.34</ele>
        <time>2021-07-27T16:42:05.640Z</time>
      </trkpt>
      <trkpt lat="50.26617994531989" lon="5.561659969389439">
        <ele>293.11</ele>
        <time>2021-07-27T16:42:16.523Z</time>
      </trkpt>
      <trkpt lat="50.2662399597466" lon="5.56161998771131">
        <ele>292.95</ele>
        <time>2021-07-27T16:42:27.407Z</time>
      </trkpt>
      <trkpt lat="50.26632998138666" lon="5.56159995496273">
        <ele>292.84</ele>
        <time>2021-07-27T16:42:38.292Z</time>
      </trkpt>
      <trkpt lat="50.26657992973924" lon="5.561589980497956">
        <ele>292.76</ele>
        <time>2021-07-27T16:42:49.181Z</time>
      </trkpt>
      <trkpt lat="50.26674999855459" lon="5.561529966071248">
        <ele>292.75</ele>
        <time>2021-07-27T16:43:00.073Z</time>
      </trkpt>
      <trkpt lat="50.266829961910844" lon="5.5613799300044775">
        <ele>292.81</ele>
        <time>2021-07-27T16:43:10.967Z</time>
      </trkpt>
      <trkpt lat="50.266879918053746" lon="5.561299966648221">
        <ele>292.91</ele>
        <time>2021-07-27T16:43:21.862Z</time>
      </trkpt>
      <trkpt lat="50.26702274568379" lon="5.560862515121698">
        <ele>293.09</ele>
        <time>2021-07-27T16:43:32.762Z</time>
      </trkpt>
      <trkpt lat="50.26703992858529" lon="5.560809960588813">
        <ele>293.3</ele>
        <time>2021-07-27T16:43:43.663Z</time>
      </trkpt>
      <trkpt lat="50.26710991747677" lon="5.560569986701012">
        <ele>293.5</ele>
        <time>2021-07-27T16:43:54.567Z</time>
      </trkpt>
      <trkpt lat="50.26722994633019" lon="5.56015994399786">
        <ele>293.79</ele>
        <time>2021-07-27T16:44:05.475Z</time>
      </trkpt>
      <trkpt lat="50.267349975183606" lon="5.5598299484699965">
        <ele>294.1</ele>
        <time>2021-07-27T16:44:16.387Z</time>
      </trkpt>
      <trkpt lat="50.26745994575322" lon="5.559589974582195">
        <ele>294.41</ele>
        <time>2021-07-27T16:44:27.302Z</time>
      </trkpt>
      <trkpt lat="50.26766438037157" lon="5.559216728433967">
        <ele>294.73</ele>
        <time>2021-07-27T16:44:38.222Z</time>
      </trkpt>
      <trkpt lat="50.26786873117089" lon="5.558843482285738">
        <ele>295.18</ele>
        <time>2021-07-27T16:44:49.147Z</time>
      </trkpt>
      <trkpt lat="50.26791994459927" lon="5.558749940246344">
        <ele>295.54</ele>
        <time>2021-07-27T16:45:00.073Z</time>
      </trkpt>
      <trkpt lat="50.268153212964535" lon="5.55842044763267">
        <ele>295.89</ele>
        <time>2021-07-27T16:45:11.004Z</time>
      </trkpt>
      <trkpt lat="50.2683864813298" lon="5.558091038838029">
        <ele>296.18</ele>
        <time>2021-07-27T16:45:21.940Z</time>
      </trkpt>
      <trkpt lat="50.26861974969506" lon="5.557761546224356">
        <ele>296.43</ele>
        <time>2021-07-27T16:45:32.882Z</time>
      </trkpt>
      <trkpt lat="50.268719997256994" lon="5.557619975879788">
        <ele>296.66</ele>
        <time>2021-07-27T16:45:43.826Z</time>
      </trkpt>
      <trkpt lat="50.268934071063995" lon="5.557260224595666">
        <ele>296.83</ele>
        <time>2021-07-27T16:45:54.775Z</time>
      </trkpt>
      <trkpt lat="50.26896994560957" lon="5.557199958711863">
        <ele>297.05</ele>
        <time>2021-07-27T16:46:05.725Z</time>
      </trkpt>
      <trkpt lat="50.26915518566966" lon="5.55680307559669">
        <ele>297.25</ele>
        <time>2021-07-27T16:46:16.680Z</time>
      </trkpt>
      <trkpt lat="50.26931997388601" lon="5.556449946016073">
        <ele>297.43</ele>
        <time>2021-07-27T16:46:27.639Z</time>
      </trkpt>
      <trkpt lat="50.269539998844266" lon="5.55609991773963">
        <ele>297.56</ele>
        <time>2021-07-27T16:46:38.603Z</time>
      </trkpt>
      <trkpt lat="50.269752983003855" lon="5.555738657712936">
        <ele>297.72</ele>
        <time>2021-07-27T16:46:49.572Z</time>
      </trkpt>
      <trkpt lat="50.269966050982475" lon="5.555377397686243">
        <ele>297.81</ele>
        <time>2021-07-27T16:47:00.546Z</time>
      </trkpt>
      <trkpt lat="50.26999999769032" lon="5.555319981649518">
        <ele>297.89</ele>
        <time>2021-07-27T16:47:11.521Z</time>
      </trkpt>
      <trkpt lat="50.27014994993806" lon="5.555109931156039">
        <ele>298.0</ele>
        <time>2021-07-27T16:47:22.499Z</time>
      </trkpt>
      <trkpt lat="50.270249946042895" lon="5.554999960586429">
        <ele>298.05</ele>
        <time>2021-07-27T16:47:33.479Z</time>
      </trkpt>
      <trkpt lat="50.27046997100115" lon="5.5547599866986275">
        <ele>298.12</ele>
        <time>2021-07-27T16:47:44.464Z</time>
      </trkpt>
      <trkpt lat="50.270706340670586" lon="5.5544360261410475">
        <ele>298.02</ele>
        <time>2021-07-27T16:47:55.454Z</time>
      </trkpt>
      <trkpt lat="50.2707399521023" lon="5.554389925673604">
        <ele>297.9</ele>
        <time>2021-07-27T16:48:06.444Z</time>
      </trkpt>
      <trkpt lat="50.270973639562726" lon="5.5540611036121845">
        <ele>297.84</ele>
        <time>2021-07-27T16:48:17.439Z</time>
      </trkpt>
      <trkpt lat="50.27100993320346" lon="5.554009974002838">
        <ele>297.64</ele>
        <time>2021-07-27T16:48:28.435Z</time>
      </trkpt>
      <trkpt lat="50.27122995816171" lon="5.553699927404523">
        <ele>297.33</ele>
        <time>2021-07-27T16:48:39.436Z</time>
      </trkpt>
      <trkpt lat="50.27146825566888" lon="5.553379403427243">
        <ele>296.89</ele>
        <time>2021-07-27T16:48:50.442Z</time>
      </trkpt>
      <trkpt lat="50.27151997201145" lon="5.553309917449951">
        <ele>296.52</ele>
        <time>2021-07-27T16:49:01.449Z</time>
      </trkpt>
      <trkpt lat="50.271741673350334" lon="5.552961565554142">
        <ele>296.16</ele>
        <time>2021-07-27T16:49:12.461Z</time>
      </trkpt>
      <trkpt lat="50.271799927577376" lon="5.552869951352477">
        <ele>295.76</ele>
        <time>2021-07-27T16:49:23.474Z</time>
      </trkpt>
      <trkpt lat="50.27200201526284" lon="5.552493687719107">
        <ele>295.38</ele>
        <time>2021-07-27T16:49:34.492Z</time>
      </trkpt>
      <trkpt lat="50.27208994142711" lon="5.5523299891501665">
        <ele>294.98</ele>
        <time>2021-07-27T16:49:45.513Z</time>
      </trkpt>
      <trkpt lat="50.272274846211076" lon="5.551932770758867">
        <ele>294.56</ele>
        <time>2021-07-27T16:49:56.539Z</time>
      </trkpt>
      <trkpt lat="50.27235992252827" lon="5.551749961450696">
        <ele>294.12</ele>
        <time>2021-07-27T16:50:07.567Z</time>
      </trkpt>
      <trkpt lat="50.27257005684078" lon="5.551384510472417">
        <ele>293.52</ele>
        <time>2021-07-27T16:50:18.600Z</time>
      </trkpt>
      <trkpt lat="50.272589921951294" lon="5.55134997703135">
        <ele>293.1</ele>
        <time>2021-07-27T16:50:29.633Z</time>
      </trkpt>
      <trkpt lat="50.272719925269485" lon="5.551159959286451">
        <ele>292.67</ele>
        <time>2021-07-27T16:50:40.669Z</time>
      </trkpt>
      <trkpt lat="50.272869961336255" lon="5.550999948754907">
        <ele>292.29</ele>
        <time>2021-07-27T16:50:51.708Z</time>
      </trkpt>
      <trkpt lat="50.27313491329551" lon="5.550735080614686">
        <ele>291.82</ele>
        <time>2021-07-27T16:51:02.752Z</time>
      </trkpt>
      <trkpt lat="50.2732199896127" lon="5.550649920478463">
        <ele>291.45</ele>
        <time>2021-07-27T16:51:13.798Z</time>
      </trkpt>
      <trkpt lat="50.27347496710718" lon="5.550362253561616">
        <ele>291.15</ele>
        <time>2021-07-27T16:51:24.849Z</time>
      </trkpt>
      <trkpt lat="50.27360999956727" lon="5.550209954380989">
        <ele>290.92</ele>
        <time>2021-07-27T16:51:35.903Z</time>
      </trkpt>
      <trkpt lat="50.27373991906643" lon="5.55001993663609">
        <ele>290.79</ele>
        <time>2021-07-27T16:51:46.959Z</time>
      </trkpt>
      <trkpt lat="50.273879980668426" lon="5.5498299188911915">
        <ele>290.68</ele>
        <time>2021-07-27T16:51:58.018Z</time>
      </trkpt>
      <trkpt lat="50.27401995845139" lon="5.549659933894873">
        <ele>290.55</ele>
        <time>2021-07-27T16:52:09.080Z</time>
      </trkpt>
      <trkpt lat="50.274289855733514" lon="5.549407470971346">
        <ele>290.35</ele>
        <time>2021-07-27T16:52:20.147Z</time>
      </trkpt>
      <trkpt lat="50.274329921230674" lon="5.549369920045137">
        <ele>290.13</ele>
        <time>2021-07-27T16:52:31.215Z</time>
      </trkpt>
      <trkpt lat="50.274479957297444" lon="5.549209993332624">
        <ele>289.91</ele>
        <time>2021-07-27T16:52:42.286Z</time>
      </trkpt>
      <trkpt lat="50.27472554706037" lon="5.548902964219451">
        <ele>289.63</ele>
        <time>2021-07-27T16:52:53.362Z</time>
      </trkpt>
      <trkpt lat="50.274759996682405" lon="5.548859965056181">
        <ele>289.39</ele>
        <time>2021-07-27T16:53:04.439Z</time>
      </trkpt>
      <trkpt lat="50.275014555081725" lon="5.548571459949017">
        <ele>289.08</ele>
        <time>2021-07-27T16:53:15.521Z</time>
      </trkpt>
      <trkpt lat="50.275059984996915" lon="5.548519995063543">
        <ele>288.8</ele>
        <time>2021-07-27T16:53:26.604Z</time>
      </trkpt>
      <trkpt lat="50.27533181011677" lon="5.548272812739015">
        <ele>288.43</ele>
        <time>2021-07-27T16:53:37.692Z</time>
      </trkpt>
      <trkpt lat="50.27549995109439" lon="5.548119926825166">
        <ele>288.08</ele>
        <time>2021-07-27T16:53:48.783Z</time>
      </trkpt>
      <trkpt lat="50.27575518004596" lon="5.5478328466415405">
        <ele>287.69</ele>
        <time>2021-07-27T16:53:59.879Z</time>
      </trkpt>
      <trkpt lat="50.27581997215748" lon="5.547759924083948">
        <ele>287.33</ele>
        <time>2021-07-27T16:54:10.976Z</time>
      </trkpt>
      <trkpt lat="50.276076877489686" lon="5.547476448118687">
        <ele>286.92</ele>
        <time>2021-07-27T16:54:22.078Z</time>
      </trkpt>
      <trkpt lat="50.276109986007214" lon="5.5474399868398905">
        <ele>286.55</ele>
        <time>2021-07-27T16:54:33.181Z</time>
      </trkpt>
      <trkpt lat="50.276374854147434" lon="5.547175034880638">
        <ele>286.23</ele>
        <time>2021-07-27T16:54:44.289Z</time>
      </trkpt>
      <trkpt lat="50.27644995599985" lon="5.547099933028221">
        <ele>285.85</ele>
        <time>2021-07-27T16:54:55.398Z</time>
      </trkpt>
      <trkpt lat="50.27655992656946" lon="5.547039918601513">
        <ele>285.42</ele>
        <time>2021-07-27T16:55:06.509Z</time>
      </trkpt>
      <trkpt lat="50.27673996984959" lon="5.546979987993836">
        <ele>284.94</ele>
        <time>2021-07-27T16:55:17.623Z</time>
      </trkpt>
      <trkpt lat="50.27704993262887" lon="5.546895414590836">
        <ele>284.47</ele>
        <time>2021-07-27T16:55:28.742Z</time>
      </trkpt>
      <trkpt lat="50.27706996537745" lon="5.546889966353774">
        <ele>284.02</ele>
        <time>2021-07-27T16:55:39.861Z</time>
      </trkpt>
      <trkpt lat="50.277229975908995" lon="5.546849984675646">
        <ele>283.54</ele>
        <time>2021-07-27T16:55:50.983Z</time>
      </trkpt>
      <trkpt lat="50.27723031118512" lon="5.546849817037582">
        <ele>283.51</ele>
        <time>2021-07-27T16:56:02.105Z</time>
      </trkpt>
      <trkpt lat="50.27753499336541" lon="5.546729536727071">
        <ele>283.01</ele>
        <time>2021-07-27T16:56:13.232Z</time>
      </trkpt>
      <trkpt lat="50.27784001082182" lon="5.5466091725975275">
        <ele>282.47</ele>
        <time>2021-07-27T16:56:24.364Z</time>
      </trkpt>
      <trkpt lat="50.27798996306956" lon="5.546549996361136">
        <ele>281.96</ele>
        <time>2021-07-27T16:56:35.499Z</time>
      </trkpt>
      <trkpt lat="50.27828995138407" lon="5.546459974721074">
        <ele>281.4</ele>
        <time>2021-07-27T16:56:46.638Z</time>
      </trkpt>
      <trkpt lat="50.27848994359374" lon="5.546439941972494">
        <ele>280.92</ele>
        <time>2021-07-27T16:56:57.781Z</time>
      </trkpt>
      <trkpt lat="50.278803845867515" lon="5.546405995264649">
        <ele>280.38</ele>
        <time>2021-07-27T16:57:08.929Z</time>
      </trkpt>
      <trkpt lat="50.27885992079973" lon="5.546399960294366">
        <ele>280.01</ele>
        <time>2021-07-27T16:57:20.078Z</time>
      </trkpt>
      <trkpt lat="50.27917214669287" lon="5.546460896730423">
        <ele>279.67</ele>
        <time>2021-07-27T16:57:31.232Z</time>
      </trkpt>
      <trkpt lat="50.279269963502884" lon="5.546479923650622">
        <ele>279.37</ele>
        <time>2021-07-27T16:57:42.387Z</time>
      </trkpt>
      <trkpt lat="50.2794399484992" lon="5.546479923650622">
        <ele>279.12</ele>
        <time>2021-07-27T16:57:53.545Z</time>
      </trkpt>
      <trkpt lat="50.2796299662441" lon="5.546439941972494">
        <ele>278.89</ele>
        <time>2021-07-27T16:58:04.706Z</time>
      </trkpt>
      <trkpt lat="50.27992785908282" lon="5.5462816916406155">
        <ele>278.76</ele>
        <time>2021-07-27T16:58:15.872Z</time>
      </trkpt>
      <trkpt lat="50.27994998730719" lon="5.546269956976175">
        <ele>278.63</ele>
        <time>2021-07-27T16:58:27.038Z</time>
      </trkpt>
      <trkpt lat="50.28025089763105" lon="5.546126626431942">
        <ele>278.68</ele>
        <time>2021-07-27T16:58:38.210Z</time>
      </trkpt>
      <trkpt lat="50.28055189177394" lon="5.545983295887709">
        <ele>278.72</ele>
        <time>2021-07-27T16:58:49.387Z</time>
      </trkpt>
      <trkpt lat="50.28078993782401" lon="5.5458699725568295">
        <ele>278.7</ele>
        <time>2021-07-27T16:59:00.568Z</time>
      </trkpt>
      <trkpt lat="50.28095992282033" lon="5.545789925381541">
        <ele>278.66</ele>
        <time>2021-07-27T16:59:11.751Z</time>
      </trkpt>
      <trkpt lat="50.28126276098192" lon="5.545656401664019">
        <ele>278.61</ele>
        <time>2021-07-27T16:59:22.939Z</time>
      </trkpt>
      <trkpt lat="50.281299976632" lon="5.545639973133802">
        <ele>278.59</ele>
        <time>2021-07-27T16:59:34.128Z</time>
      </trkpt>
      <trkpt lat="50.28140994720161" lon="5.545699987560511">
        <ele>278.54</ele>
        <time>2021-07-27T16:59:45.319Z</time>
      </trkpt>
      <trkpt lat="50.28170574456453" lon="5.54586754180491">
        <ele>278.43</ele>
        <time>2021-07-27T16:59:56.515Z</time>
      </trkpt>
      <trkpt lat="50.28170993551612" lon="5.5458699725568295">
        <ele>278.51</ele>
        <time>2021-07-27T17:00:07.711Z</time>
      </trkpt>
      <trkpt lat="50.281979916617274" lon="5.545959994196892">
        <ele>278.49</ele>
        <time>2021-07-27T17:00:18.911Z</time>
      </trkpt>
      <trkpt lat="50.282129952684045" lon="5.54599997587502">
        <ele>278.57</ele>
        <time>2021-07-27T17:00:30.114Z</time>
      </trkpt>
      <trkpt lat="50.28233991935849" lon="5.546019924804568">
        <ele>278.66</ele>
        <time>2021-07-27T17:00:41.320Z</time>
      </trkpt>
      <trkpt lat="50.2825399953872" lon="5.546029983088374">
        <ele>278.84</ele>
        <time>2021-07-27T17:00:52.529Z</time>
      </trkpt>
      <trkpt lat="50.282854568213224" lon="5.546029983088374">
        <ele>279.06</ele>
        <time>2021-07-27T17:01:03.743Z</time>
      </trkpt>
      <trkpt lat="50.283169224858284" lon="5.546029983088374">
        <ele>279.38</ele>
        <time>2021-07-27T17:01:14.963Z</time>
      </trkpt>
      <trkpt lat="50.28323996812105" lon="5.546029983088374">
        <ele>279.69</ele>
        <time>2021-07-27T17:01:26.184Z</time>
      </trkpt>
      <trkpt lat="50.28355462476611" lon="5.5460278037935495">
        <ele>280.02</ele>
        <time>2021-07-27T17:01:37.410Z</time>
      </trkpt>
      <trkpt lat="50.28386928141117" lon="5.546025624498725">
        <ele>280.29</ele>
        <time>2021-07-27T17:01:48.641Z</time>
      </trkpt>
      <trkpt lat="50.28418393805623" lon="5.546023361384869">
        <ele>280.72</ele>
        <time>2021-07-27T17:01:59.877Z</time>
      </trkpt>
      <trkpt lat="50.28449851088226" lon="5.546021182090044">
        <ele>281.2</ele>
        <time>2021-07-27T17:02:11.118Z</time>
      </trkpt>
      <trkpt lat="50.28467997908592" lon="5.546019924804568">
        <ele>281.51</ele>
        <time>2021-07-27T17:02:22.362Z</time>
      </trkpt>
      <trkpt lat="50.28495993465185" lon="5.546019924804568">
        <ele>281.81</ele>
        <time>2021-07-27T17:02:33.610Z</time>
      </trkpt>
      <trkpt lat="50.28525992296636" lon="5.546139953657985">
        <ele>282.0</ele>
        <time>2021-07-27T17:02:44.863Z</time>
      </trkpt>
      <trkpt lat="50.285557229071856" lon="5.546300802379847">
        <ele>281.95</ele>
        <time>2021-07-27T17:02:56.121Z</time>
      </trkpt>
      <trkpt lat="50.28585453517735" lon="5.546461651101708">
        <ele>281.92</ele>
        <time>2021-07-27T17:03:07.384Z</time>
      </trkpt>
      <trkpt lat="50.285869957879186" lon="5.546469949185848">
        <ele>281.7</ele>
        <time>2021-07-27T17:03:18.648Z</time>
      </trkpt>
      <trkpt lat="50.28591999784112" lon="5.546479923650622">
        <ele>281.4</ele>
        <time>2021-07-27T17:03:29.912Z</time>
      </trkpt>
      <trkpt lat="50.286230966448784" lon="5.5465546902269125">
        <ele>281.11</ele>
        <time>2021-07-27T17:03:41.181Z</time>
      </trkpt>
      <trkpt lat="50.28654193505645" lon="5.546629456803203">
        <ele>280.44</ele>
        <time>2021-07-27T17:03:52.455Z</time>
      </trkpt>
      <trkpt lat="50.28685290366411" lon="5.546704223379493">
        <ele>279.66</ele>
        <time>2021-07-27T17:04:03.734Z</time>
      </trkpt>
      <trkpt lat="50.28695994056761" lon="5.546729955822229">
        <ele>278.93</ele>
        <time>2021-07-27T17:04:15.015Z</time>
      </trkpt>
      <trkpt lat="50.28727074153721" lon="5.546806734055281">
        <ele>278.07</ele>
        <time>2021-07-27T17:04:26.301Z</time>
      </trkpt>
      <trkpt lat="50.287581542506814" lon="5.5468834284693">
        <ele>277.02</ele>
        <time>2021-07-27T17:04:37.592Z</time>
      </trkpt>
      <trkpt lat="50.287892343476415" lon="5.546960206702352">
        <ele>275.9</ele>
        <time>2021-07-27T17:04:48.888Z</time>
      </trkpt>
      <trkpt lat="50.288203060626984" lon="5.547036901116371">
        <ele>274.98</ele>
        <time>2021-07-27T17:05:00.189Z</time>
      </trkpt>
      <trkpt lat="50.288513861596584" lon="5.5471136793494225">
        <ele>274.23</ele>
        <time>2021-07-27T17:05:11.495Z</time>
      </trkpt>
      <trkpt lat="50.28857999481261" lon="5.547129940241575">
        <ele>273.47</ele>
        <time>2021-07-27T17:05:22.802Z</time>
      </trkpt>
      <trkpt lat="50.288619976490736" lon="5.547139998525381">
        <ele>272.73</ele>
        <time>2021-07-27T17:05:34.110Z</time>
      </trkpt>
      <trkpt lat="50.2887599542737" lon="5.5471699219197035">
        <ele>272.02</ele>
        <time>2021-07-27T17:05:45.420Z</time>
      </trkpt>
      <trkpt lat="50.288919964805245" lon="5.5473099835217">
        <ele>271.29</ele>
        <time>2021-07-27T17:05:56.733Z</time>
      </trkpt>
      <trkpt lat="50.288919964805245" lon="5.547379972413182">
        <ele>270.72</ele>
        <time>2021-07-27T17:06:08.047Z</time>
      </trkpt>
      <trkpt lat="50.28892993927002" lon="5.5474399868398905">
        <ele>270.24</ele>
        <time>2021-07-27T17:06:19.362Z</time>
      </trkpt>
      <trkpt lat="50.28898995369673" lon="5.547539982944727">
        <ele>269.85</ele>
        <time>2021-07-27T17:06:30.678Z</time>
      </trkpt>
      <trkpt lat="50.2889999281615" lon="5.547999981790781">
        <ele>269.56</ele>
        <time>2021-07-27T17:06:41.999Z</time>
      </trkpt>
      <trkpt lat="50.28900998644531" lon="5.548139959573746">
        <ele>269.5</ele>
        <time>2021-07-27T17:06:53.321Z</time>
      </trkpt>
      <trkpt lat="50.288959946483374" lon="5.548409940674901">
        <ele>269.61</ele>
        <time>2021-07-27T17:07:04.646Z</time>
      </trkpt>
      <trkpt lat="50.288877971470356" lon="5.548884104937315">
        <ele>269.85</ele>
        <time>2021-07-27T17:07:15.976Z</time>
      </trkpt>
      <trkpt lat="50.28881996870041" lon="5.549219967797399">
        <ele>270.21</ele>
        <time>2021-07-27T17:07:27.310Z</time>
      </trkpt>
      <trkpt lat="50.28877998702228" lon="5.549499923363328">
        <ele>270.76</ele>
        <time>2021-07-27T17:07:38.647Z</time>
      </trkpt>
      <trkpt lat="50.28877998702228" lon="5.549679966643453">
        <ele>271.43</ele>
        <time>2021-07-27T17:07:49.986Z</time>
      </trkpt>
      <trkpt lat="50.288789961487055" lon="5.549809969961643">
        <ele>272.19</ele>
        <time>2021-07-27T17:08:01.326Z</time>
      </trkpt>
      <trkpt lat="50.28886992484331" lon="5.55001993663609">
        <ele>273.12</ele>
        <time>2021-07-27T17:08:12.668Z</time>
      </trkpt>
      <trkpt lat="50.28892993927002" lon="5.550109958276153">
        <ele>274.05</ele>
        <time>2021-07-27T17:08:24.012Z</time>
      </trkpt>
      <trkpt lat="50.28901996091008" lon="5.550179947167635">
        <ele>275.05</ele>
        <time>2021-07-27T17:08:35.357Z</time>
      </trkpt>
      <trkpt lat="50.28927996754646" lon="5.550269968807697">
        <ele>276.13</ele>
        <time>2021-07-27T17:08:46.707Z</time>
      </trkpt>
      <trkpt lat="50.289519941434264" lon="5.55033995769918">
        <ele>277.26</ele>
        <time>2021-07-27T17:08:58.060Z</time>
      </trkpt>
      <trkpt lat="50.28978992253542" lon="5.550439953804016">
        <ele>278.47</ele>
        <time>2021-07-27T17:09:09.418Z</time>
      </trkpt>
      <trkpt lat="50.29009049758315" lon="5.550585379824042">
        <ele>279.69</ele>
        <time>2021-07-27T17:09:20.781Z</time>
      </trkpt>
      <trkpt lat="50.290099969133735" lon="5.550589989870787">
        <ele>280.86</ele>
        <time>2021-07-27T17:09:32.144Z</time>
      </trkpt>
      <trkpt lat="50.29040314257145" lon="5.550721501931548">
        <ele>282.11</ele>
        <time>2021-07-27T17:09:43.512Z</time>
      </trkpt>
      <trkpt lat="50.29062995687127" lon="5.550819989293814">
        <ele>283.41</ele>
        <time>2021-07-27T17:09:54.884Z</time>
      </trkpt>
      <trkpt lat="50.290942434221506" lon="5.5508774891495705">
        <ele>284.78</ele>
        <time>2021-07-27T17:10:06.261Z</time>
      </trkpt>
      <trkpt lat="50.29100999236107" lon="5.550889978185296">
        <ele>286.01</ele>
        <time>2021-07-27T17:10:17.639Z</time>
      </trkpt>
      <trkpt lat="50.29126999899745" lon="5.55089995265007">
        <ele>287.35</ele>
        <time>2021-07-27T17:10:29.021Z</time>
      </trkpt>
      <trkpt lat="50.2914799656719" lon="5.550949992612004">
        <ele>288.49</ele>
        <time>2021-07-27T17:10:40.407Z</time>
      </trkpt>
      <trkpt lat="50.29158993624151" lon="5.551019981503487">
        <ele>289.58</ele>
        <time>2021-07-27T17:10:51.795Z</time>
      </trkpt>
      <trkpt lat="50.291729997843504" lon="5.5511699337512255">
        <ele>290.68</ele>
        <time>2021-07-27T17:11:03.185Z</time>
      </trkpt>
      <trkpt lat="50.29178992845118" lon="5.551289962604642">
        <ele>291.79</ele>
        <time>2021-07-27T17:11:14.577Z</time>
      </trkpt>
      <trkpt lat="50.291790096089244" lon="5.551290297880769">
        <ele>292.7</ele>
        <time>2021-07-27T17:11:25.969Z</time>
      </trkpt>
      <trkpt lat="50.29184994287789" lon="5.551429940387607">
        <ele>292.89</ele>
        <time>2021-07-27T17:11:37.363Z</time>
      </trkpt>
      <trkpt lat="50.29192999005318" lon="5.551729928702116">
        <ele>294.02</ele>
        <time>2021-07-27T17:11:48.760Z</time>
      </trkpt>
      <trkpt lat="50.29192999005318" lon="5.552009968087077">
        <ele>295.12</ele>
        <time>2021-07-27T17:12:00.160Z</time>
      </trkpt>
      <trkpt lat="50.29186368919909" lon="5.552490083500743">
        <ele>296.29</ele>
        <time>2021-07-27T17:12:11.565Z</time>
      </trkpt>
      <trkpt lat="50.29184994287789" lon="5.552589995786548">
        <ele>297.43</ele>
        <time>2021-07-27T17:12:22.971Z</time>
      </trkpt>
      <trkpt lat="50.291819935664535" lon="5.552799962460995">
        <ele>298.6</ele>
        <time>2021-07-27T17:12:34.379Z</time>
      </trkpt>
      <trkpt lat="50.291757406666875" lon="5.553281335160136">
        <ele>299.79</ele>
        <time>2021-07-27T17:12:45.792Z</time>
      </trkpt>
      <trkpt lat="50.29169479385018" lon="5.553762624040246">
        <ele>300.97</ele>
        <time>2021-07-27T17:12:57.210Z</time>
      </trkpt>
      <trkpt lat="50.291689932346344" lon="5.553799923509359">
        <ele>302.05</ele>
        <time>2021-07-27T17:13:08.629Z</time>
      </trkpt>
      <trkpt lat="50.291669983416796" lon="5.554199991747737">
        <ele>303.19</ele>
        <time>2021-07-27T17:13:20.052Z</time>
      </trkpt>
      <trkpt lat="50.29169999063015" lon="5.554479947313666">
        <ele>304.36</ele>
        <time>2021-07-27T17:13:31.478Z</time>
      </trkpt>
      <trkpt lat="50.29184516519308" lon="5.554915638640523">
        <ele>305.6</ele>
        <time>2021-07-27T17:13:42.909Z</time>
      </trkpt>
      <trkpt lat="50.29184994287789" lon="5.554929971694946">
        <ele>306.79</ele>
        <time>2021-07-27T17:13:54.340Z</time>
      </trkpt>
      <trkpt lat="50.29189998283982" lon="5.554999960586429">
        <ele>308.06</ele>
        <time>2021-07-27T17:14:05.772Z</time>
      </trkpt>
      <trkpt lat="50.291900066658854" lon="5.555000128224492">
        <ele>308.49</ele>
        <time>2021-07-27T17:14:17.204Z</time>
      </trkpt>
      <trkpt lat="50.29212998226285" lon="5.55525996722281">
        <ele>309.49</ele>
        <time>2021-07-27T17:14:28.640Z</time>
      </trkpt>
      <trkpt lat="50.29241530224681" lon="5.555467000231147">
        <ele>310.87</ele>
        <time>2021-07-27T17:14:40.081Z</time>
      </trkpt>
      <trkpt lat="50.292639937251806" lon="5.5556299444288015">
        <ele>312.32</ele>
        <time>2021-07-27T17:14:51.526Z</time>
      </trkpt>
      <trkpt lat="50.29292391613126" lon="5.555841503664851">
        <ele>313.79</ele>
        <time>2021-07-27T17:15:02.976Z</time>
      </trkpt>
      <trkpt lat="50.29320789501071" lon="5.556053146719933">
        <ele>315.38</ele>
        <time>2021-07-27T17:15:14.431Z</time>
      </trkpt>
      <trkpt lat="50.29349187389016" lon="5.556264705955982">
        <ele>316.85</ele>
        <time>2021-07-27T17:15:25.892Z</time>
      </trkpt>
      <trkpt lat="50.29365993104875" lon="5.556389931589365">
        <ele>318.21</ele>
        <time>2021-07-27T17:15:37.356Z</time>
      </trkpt>
      <trkpt lat="50.293915662914515" lon="5.556676173582673">
        <ele>319.74</ele>
        <time>2021-07-27T17:15:48.825Z</time>
      </trkpt>
      <trkpt lat="50.29417139478028" lon="5.556962415575981">
        <ele>321.14</ele>
        <time>2021-07-27T17:16:00.299Z</time>
      </trkpt>
      <trkpt lat="50.294329980388284" lon="5.557139944285154">
        <ele>322.36</ele>
        <time>2021-07-27T17:16:11.776Z</time>
      </trkpt>
      <trkpt lat="50.29444992542267" lon="5.557329962030053">
        <ele>323.57</ele>
        <time>2021-07-27T17:16:23.255Z</time>
      </trkpt>
      <trkpt lat="50.2944999653846" lon="5.557479998096824">
        <ele>324.75</ele>
        <time>2021-07-27T17:16:34.736Z</time>
      </trkpt>
      <trkpt lat="50.2944999653846" lon="5.557619975879788">
        <ele>325.88</ele>
        <time>2021-07-27T17:16:46.219Z</time>
      </trkpt>
      <trkpt lat="50.294459983706474" lon="5.55783991701901">
        <ele>327.01</ele>
        <time>2021-07-27T17:16:57.704Z</time>
      </trkpt>
      <trkpt lat="50.29438999481499" lon="5.5579699203372">
        <ele>328.09</ele>
        <time>2021-07-27T17:17:09.191Z</time>
      </trkpt>
      <trkpt lat="50.29431992210448" lon="5.558029934763908">
        <ele>329.07</ele>
        <time>2021-07-27T17:17:20.679Z</time>
      </trkpt>
      <trkpt lat="50.29423995874822" lon="5.5580599419772625">
        <ele>329.99</ele>
        <time>2021-07-27T17:17:32.168Z</time>
      </trkpt>
      <trkpt lat="50.294029992073774" lon="5.558069916442037">
        <ele>330.9</ele>
        <time>2021-07-27T17:17:43.661Z</time>
      </trkpt>
      <trkpt lat="50.293859923258424" lon="5.5580599419772625">
        <ele>331.8</ele>
        <time>2021-07-27T17:17:55.156Z</time>
      </trkpt>
      <trkpt lat="50.293859923258424" lon="5.558059690520167">
        <ele>331.98</ele>
        <time>2021-07-27T17:18:06.651Z</time>
      </trkpt>
      <trkpt lat="50.293859923258424" lon="5.558049967512488">
        <ele>332.6</ele>
        <time>2021-07-27T17:18:18.146Z</time>
      </trkpt>
      <trkpt lat="50.29354560188949" lon="5.558028174564242">
        <ele>333.49</ele>
        <time>2021-07-27T17:18:29.647Z</time>
      </trkpt>
      <trkpt lat="50.29323128052056" lon="5.558006381615996">
        <ele>334.16</ele>
        <time>2021-07-27T17:18:41.153Z</time>
      </trkpt>
      <trkpt lat="50.292916959151626" lon="5.55798458866775">
        <ele>334.53</ele>
        <time>2021-07-27T17:18:52.664Z</time>
      </trkpt>
      <trkpt lat="50.292849987745285" lon="5.557979978621006">
        <ele>334.77</ele>
        <time>2021-07-27T17:19:04.176Z</time>
      </trkpt>
      <trkpt lat="50.29272995889187" lon="5.55800998583436">
        <ele>334.89</ele>
        <time>2021-07-27T17:19:15.690Z</time>
      </trkpt>
      <trkpt lat="50.29251999221742" lon="5.558129930868745">
        <ele>334.89</ele>
        <time>2021-07-27T17:19:27.207Z</time>
      </trkpt>
      <trkpt lat="50.292399963364005" lon="5.558219952508807">
        <ele>334.75</ele>
        <time>2021-07-27T17:19:38.726Z</time>
      </trkpt>
      <trkpt lat="50.292269960045815" lon="5.558359930291772">
        <ele>334.55</ele>
        <time>2021-07-27T17:19:50.248Z</time>
      </trkpt>
      <trkpt lat="50.29200970195234" lon="5.558610130101442">
        <ele>334.26</ele>
        <time>2021-07-27T17:20:01.775Z</time>
      </trkpt>
    </trkseg>
  </trk>
</gpx>
